     2.11           OBSERVATION DATA    G (GPS)             RINEX VERSION / TYPE
teqc 2010Oct21 OPUS Account 20111027 14:08:28UTC            PGM / RUN BY / DATE
V 1523                                                      MARKER NAME
1200                                                        MARKER NUMBER
CSMIDDLETON NGS                                             OBSERVER / AGENCY
0220269730 TRIMBLE 5700 NP 1.22 / SP 1.22                   REC # / TYPE / VERS
60041226 TRM41249.00 NONE                                   ANT # / TYPE
  -751380.2079 -5519145.5124  3097021.1373                  APPROX POSITION XYZ
        2.0010        0.0000        0.0000                  ANTENNA: DELTA H/E/N
     1     1                                                WAVELENGTH FACT L1/2
     5    L1    L2    C1    P1    P2                        # / TYPES OF OBSERV
    15                                                      LEAP SECONDS
  2011     8    13     0     0   30.0000000     GPS         TIME OF FIRST OBS
                                                            END OF HEADER
 11  8 13  0  0 30.0000000  0  8G10G28G12G09G17G05G04G02
 -35750058.64557 -27840133.91755  21411974.4144                   21411974.1524
 -90663000.90256 -70628065.82153  23502012.7734                   23502012.3444
 -19316263.10957 -15034405.13854  22750585.8444                   22750584.8954
 -36637891.12157 -28530568.02854  22411920.4224                   22411921.2934
 -74464040.60557 -57995778.92455  22220989.4614                   22220988.5944
  -7801915.89856  -6062279.27554  23841216.3054                   23841218.3714
 -66120422.51258 -51503271.66856  20378914.8134                   20378914.3164
 -46474225.35558 -36195200.24656  20848133.9224                   20848131.1524
 11  8 13  0  1  0.0000000  0  8G10G28G12G09G17G05G04G02
 -35892906.32447 -27951443.75645  21384791.5394                   21384791.1604
 -90655111.93446 -70621918.68343  23503514.1334                   23503514.2854
 -19490520.09847 -15170189.75044  22717425.6804                   22717424.4384
 -36674942.29347 -28559439.09644  22404869.8754                   22404870.7424
 -74508041.07047 -58030065.01745  22212616.2034                   22212615.4384
  -7992854.23846  -6211062.20643  23804881.5164                   23804883.7384
 -66153763.59048 -51529251.72246  20372570.7344                   20372569.8364
 -46593164.88748 -36287880.36846  20825500.2814                   20825497.9614
 11  8 13  0  1 30.0000000  0  8G10G28G12G09G17G05G04G02
 -36035115.48047 -28062256.03545  21357729.6334                   21357729.2464
 -90646791.88346 -70615435.59543  23505096.6954                   23505097.2934
 -19664419.17247 -15305695.50544  22684334.1024                   22684332.7274
 -36711350.96947 -28587809.50744  22397941.4304                   22397941.6564
 -74551772.52347 -58064141.48545  22204294.3524                   22204294.3204
  -8183612.58646  -6359704.85944  23768580.8984                   23768583.8164
 -66186572.68048 -51554817.25346  20366327.0944                   20366326.5594
 -46711572.05547 -36380145.67646  20802968.3754                   20802965.7854
 11  8 13  0  2  0.0000000  0  8G10G28G12G09G17G05G04G02
 -36176680.91047 -28172566.73245  21330790.8284                   21330790.1524
 -90638039.89846 -70608615.94043  23506762.3054                   23506762.8364
 -19837955.46147 -15440918.57744  22651311.1174                   22651309.8674
 -36747117.90247 -28615679.88844  22391135.2664                   22391135.7854
 -74595231.91847 -58098005.95845  22196023.9694                   22196023.6724
  -8374186.12946  -6508203.57043  23732316.3914                   23732318.5394
 -66218849.97348 -51579968.41146  20360185.0864                   20360184.2734
 -46829444.79347 -36471994.54546  20780537.7584                   20780535.6604
 11  8 13  0  2 30.0000000  0  8G10G28G12G09G17G05G04G02
 -36317601.16447 -28282374.66145  21303974.3134                   21303974.2034
 -90628859.13346 -70601462.11543  23508509.3984                   23508510.1294
 -20011128.21547 -15575858.36144  22618357.3364                   22618355.8014
 -36782246.76247 -28643053.03844  22384450.5554                   22384451.1374
 -74638420.16847 -58131659.14545  22187805.4384                   22187805.0784
  -8564573.33246  -6656557.02643  23696086.5234                   23696089.2664
 -66250599.01648 -51604707.92046  20354143.4144                   20354142.8204
 -46946784.63347 -36563428.14146  20758209.0634                   20758206.4614
 11  8 13  0  3  0.0000000  0  8G10G28G12G09G17G05G04G02
 -36457873.02047 -28391677.36645  21277281.8204                   21277281.1954
 -90619250.93446 -70593975.29843  23510337.9384                   23510338.5204
 -20183934.13747 -15710512.32845  22585473.7664                   22585472.6454
 -36816740.09047 -28669931.02544  22377886.7274                   22377887.1214
 -74681336.12947 -58165100.19145  22179639.1644                   22179638.2304
  -8754770.92646  -6804762.74944  23659893.4534                   23659895.4104
 -66281821.61748 -51629037.23346  20348202.0554                   20348201.3674
 -47063591.24248 -36654446.25546  20735981.2194                   20735978.5044
 11  8 13  0  3 30.0000000  0  8G10G28G12G09G17G05G04G02
 -35022073.35947 -27272872.38345  21550505.5164                   21550505.0204
 -89033801.59046 -69358560.35143  23812038.5004                   23812039.7464
 -18780948.96547 -14617277.11645  22852452.7734                   22852451.9844
 -35275183.64847 -27468718.24644  22671235.6094                   22671235.5984
 -73148562.26647 -56970730.93045  22471316.6644                   22471315.5204
  -7369353.79346  -5725216.75744  23923528.9144                   23923531.7274
 -64737103.28548 -50425360.61846  20642152.1804                   20642151.3674
 -45604445.15648 -35517449.28246  21013647.5314                   21013644.6414
 11  8 13  0  4  0.0000000  0  8G10G28G12G09G17G05G04G02
 -35161040.74247 -27381158.60645  21524060.2034                   21524060.3134
 -89023343.50846 -69350411.23943  23814027.8444                   23814029.4494
 -18953013.55947 -14751353.41145  22819709.5394                   22819708.8634
 -35308414.24647 -27494612.26944  22664911.6884                   22664912.4144
 -73190932.22747 -57003746.50045  22463253.9774                   22463252.4344
  -7559163.34847  -5873120.09144  23887409.9534                   23887411.5514
 -64767279.82048 -50448874.81646  20636409.8204                   20636408.7194
 -45720186.32448 -35607637.19646  20991622.7344                   20991620.1214
 11  8 13  0  4 30.0000000  0  8G10G28G12G09G17G05G04G02
 -35299356.53547 -27488937.09845  21497740.0164                   21497739.1844
 -89012467.89845 -69341936.86043  23816098.6174                   23816100.0984
 -19124707.73847 -14885141.07145  22787038.0004                   22787036.5744
 -35341022.49647 -27520021.34144  22658706.5554                   22658706.9494
 -73233033.07847 -57036552.38745  22455242.2424                   22455241.4224
  -7748779.56647  -6020872.82544  23851326.6094                   23851329.7934
 -64796941.94548 -50471988.16946  20630765.2974                   20630764.3674
 -45835400.19147 -35697414.21346  20969698.2504                   20969695.1804
 11  8 13  0  5  0.0000000  0  8G10G28G12G09G17G05G04G02
 -35437017.51647 -27596205.34245  21471543.8444                   21471543.8594
 -89001175.63346 -69333137.82043  23818246.7734                   23818249.3324
 -19296029.72747 -15018638.71445  22754436.2584                   22754435.3914
 -35373010.43447 -27544947.06644  22652619.4304                   22652620.0784
 -73274863.57047 -57069147.59045  22447282.5554                   22447281.5314
  -7938198.56247  -6168471.85544  23815281.8984                   23815284.0084
 -64826090.87148 -50494701.62846  20625218.3674                   20625217.7114
 -45950086.05947 -35786779.79346  20947874.1644                   20947871.7934
 11  8 13  0  5 30.0000000  0  8G10G28G12G09G17G05G04G02
 -35574019.26647 -27702959.90145  21445473.0944                   21445472.7424
 -88989466.82046 -69324014.14943  23820475.5474                   23820477.1844
 -19466974.63747 -15151842.52445  22721906.6884                   22721905.4384
 -35404379.41047 -27569390.49144  22646650.2584                   22646650.9494
 -73316421.23847 -57101530.21445  22439374.2814                   22439372.9654
  -8127415.71147  -6315913.59244  23779274.7114                   23779276.7034
 -64854727.44948 -50517015.86246  20619769.0474                   20619768.4734
 -46064242.70748 -35875732.98746  20926150.8754                   20926148.1484
 11  8 13  0  6  0.0000000  0  8G10G28G12G09G17G05G04G02
 -35710366.55147 -27809204.48845  21419526.7424                   21419526.7544
 -88977350.87946 -69314573.25343  23822780.9144                   23822782.2344
 -19637547.27747 -15284756.25745  22689448.0474                   22689446.8594
 -35435139.88747 -27593359.72944  22640796.8054                   22640797.6334
 -73357713.37147 -57133705.91945  22431516.3444                   22431515.9534
  -8316435.69947  -6463201.71644  23743304.9384                   23743307.0634
 -64882861.24248 -50538938.30146  20614415.2734                   20614414.9384
 -46177877.74248 -35964279.72946  20904526.7504                   20904524.1254
 11  8 13  0  6 30.0000000  0  8G10G28G12G09G17G05G04G02
 -35846057.81247 -27914937.88145  21393705.4224                   21393705.6954
 -88964830.37946 -69304817.07743  23825164.3444                   23825164.7384
 -19807745.63347 -15417378.31345  22657059.6884                   22657058.9414
 -35465295.62147 -27616857.75944  22635057.8134                   22635058.7814
 -73398739.78947 -57165674.59645  22423709.5864                   22423708.7734
  -8505256.59447  -6610334.67844  23707373.7664                   23707375.9964
 -64910495.58648 -50560471.57646  20609156.6644                   20609156.0904
 -46290992.57448 -36052421.14246  20883001.7974                   20882999.0084
 11  8 13  0  7  0.0000000  0  8G10G28G12G09G17G05G04G02
 -35981089.22347 -28020157.13145  21368010.3524                   21368010.0704
 -88951905.94946 -69294746.19343  23827624.0474                   23827624.3874
 -19977566.44547 -15549706.19345  22624744.0164                   22624742.9844
 -35494848.24247 -27639885.82544  22629434.8524                   22629435.8324
 -73439499.51247 -57197435.43645  22415953.0554                   22415952.3204
  -8693874.48847  -6757309.47744  23671480.5004                   23671483.0314
 -64937631.69948 -50581616.62046  20603993.0944                   20603992.2304
 -46403586.38748 -36140156.54946  20861575.9614                   20861573.1764
 11  8 13  0  7 30.0000000  0  8G10G28G12G09G17G05G04G02
 -36115458.81247 -28124860.66345  21342440.2664                   21342439.8914
 -88938579.47746 -69284362.03143  23830159.1334                   23830160.4574
 -20147007.50047 -15681738.14345  22592500.0004                   22592499.4804
 -35523801.09847 -27662446.55544  22623924.7974                   22623925.9924
 -73479992.17647 -57228988.17345  22408247.7734                   22408246.8674
  -8882286.98447  -6904124.23744  23635627.1174                   23635629.0394
 -64964272.44548 -50602375.64246  20598923.8134                   20598922.7624
 -46515659.79747 -36227486.46646  20840249.3134                   20840245.9924
 11  8 13  0  8  0.0000000  0  8G10G28G12G09G17G05G04G02
 -36249161.93047 -28229044.84845  21316997.6884                   21316997.0554
 -88924851.32446 -69273664.82343  23832772.4304                   23832772.6214
 -20316063.98847 -15813470.41345  22560329.6254                   22560329.0234
 -35552154.95747 -27684540.54744  22618529.7894                   22618530.5864
 -73520215.05547 -57260330.71545  22400593.7974                   22400592.8834
  -9070488.77047  -7050774.79844  23599813.0394                   23599815.1724
 -64990417.90248 -50622748.72546  20593948.0234                   20593947.4924
 -46627211.43447 -36314409.80446  20819021.4774                   20819018.6644
 11  8 13  0  8 30.0000000  0  8G10G28G12G09G17G05G04G02
 -36382203.47747 -28332713.54745  21291680.9144                   21291680.5904
 -88910730.39146 -69262661.69943  23835459.1644                   23835459.0514
 -20484740.91447 -15944906.91545  22528231.6564                   22528230.9304
 -35579920.02746 -27706175.75944  22613246.2344                   22613247.1054
 -73560174.84847 -57291468.25745  22392989.3524                   22392988.4414
  -9258484.51246  -7197264.81644  23564038.2664                   23564040.7384
 -65016077.91448 -50642743.53846  20589065.0164                   20589064.4964
 -46738248.85247 -36400932.45946  20797891.7504                   20797888.6374
 11  8 13  0  9  0.0000000  0  8G10G28G12G09G17G05G04G02
 -36514577.65247 -28435862.19945  21266490.3754                   21266490.1174
 -88896214.90246 -69251351.02543  23838221.2504                   23838221.8404
 -20653032.13347 -16076042.88745  22496207.3204                   22496205.6054
 -35607096.04747 -27727351.90744  22608074.9304                   22608075.7894
 -73599867.71947 -57322397.79145  22385436.3914                   22385435.6374
  -9446267.88747  -7343589.35744  23528304.2734                   23528306.8094
 -65041251.27748 -50662359.15546  20584274.9304                   20584274.0314
 -46848769.05147 -36487052.07446  20776860.3524                   20776857.5704
 11  8 13  0  9 30.0000000  0  8G10G28G12G09G17G05G04G02
 -36646283.37547 -28538490.00645  21241427.7974                   21241427.6374
 -88881308.19946 -69239735.46942  23841058.0084                   23841058.8834
 -20820936.56247 -16206877.45245  22464256.2114                   22464254.4924
 -35633687.59846 -27748072.64744  22603014.8134                   22603015.2584
 -73639294.33247 -57353119.86345  22377933.6884                   22377932.8794
  -9633837.28947  -7489747.17144  23492610.3204                   23492612.9614
 -65065941.89847 -50681598.59546  20579576.4534                   20579575.5474
 -46958774.06247 -36572770.25146  20755927.3834                   20755924.5084
 11  8 13  0 10  0.0000000  0  8G10G28G12G09G17G05G04G02
 -36777319.26647 -28640595.84245  21216492.1174                   21216492.2934
 -88866013.89546 -69227817.92242  23843968.2814                   23843969.2034
 -20988453.00447 -16337409.69745  22432378.2664                   22432377.5784
 -35659699.08647 -27768341.41944  22598065.1094                   22598066.0044
 -73678456.07847 -57383635.51645  22370481.8444                   22370480.6764
  -9821191.62547  -7635737.37244  23456958.3594                   23456959.6804
 -65090153.42247 -50700464.71346  20574969.1254                   20574968.0864
 -47068265.76648 -36658088.45346  20735091.7424                   20735089.0164
 11  8 13  0 10 30.0000000  0  8G10G28G12G09G17G05G04G02
 -36907686.37947 -28742180.56545  21191683.7114                   21191683.9614
 -88850336.56646 -69215602.00143  23846952.2504                   23846952.7154
 -21155582.24247 -16467640.20945  22400575.0554                   22400574.0434
 -35685136.48047 -27788162.80544  22593224.9224                   22593224.9494
 -73717354.88347 -57413946.28745  22363079.0784                   22363078.5704
 -10008330.89547  -7781560.02244  23421346.4774                   23421349.0474
 -65113891.43747 -50718961.86646  20570451.8914                   20570450.7034
 -47177247.52348 -36743009.28746  20714352.9064                   20714350.4104
 11  8 13  0 11  0.0000000  0  8G10G28G12G09G17G05G04G02
 -37037381.89147 -28843241.98145  21167003.9844                   21167003.8834
 -88834277.14146 -69203088.28643  23850008.0554                   23850009.3794
 -21322320.85547 -16597566.35745  22368845.3054                   22368844.4964
 -35710002.40647 -27807538.89844  22588492.6334                   22588493.2544
 -73755989.29347 -57444051.02845  22355727.2344                   22355726.8834
 -10195251.45346  -7927212.23044  23385776.9694                   23385779.3134
 -65137157.63747 -50737091.38046  20566024.3204                   20566023.6134
 -47285719.13347 -36827532.61446  20693711.4304                   20693708.8014
 11  8 13  0 11 30.0000000  0  8G10G28G12G09G17G05G04G02
 -37166408.37947 -28943782.05745  21142451.3364                   21142450.8834
 -88817843.05146 -69190282.57343  23853134.9694                   23853136.2274
 -21488671.58247 -16727190.24145  22337190.2504                   22337189.0944
 -35734304.91847 -27826475.97844  22583867.7274                   22583868.9614
 -73794364.96147 -57473954.17945  22348424.3524                   22348423.4774
 -10381955.56646  -8072695.78744  23350247.5314                   23350249.7774
 -65159959.72348 -50754859.23946  20561685.2734                   20561684.8674
 -47393686.23048 -36911662.78646  20673166.4144                   20673163.2704
 11  8 13  0 12  0.0000000  0  8G10G28G12G09G17G05G04G02
 -37294761.21147 -29043797.22945  21118026.9454                   21118025.9264
 -88801034.25046 -69177184.88543  23856333.3834                   23856335.6604
 -21654629.06647 -16856507.71945  22305609.2114                   22305608.3914
 -35758044.90247 -27844974.75744  22579350.8594                   22579351.8794
 -73832478.58247 -57503653.11545  22341171.5864                   22341170.7584
 -10568438.44946  -8218007.00044  23314761.3284                   23314763.8754
 -65182297.58647 -50772265.37546  20557434.6414                   20557433.9064
 -47501147.20348 -36995398.60446  20652717.1334                   20652714.4574
 11  8 13  0 12 30.0000000  0  8G10G28G12G09G17G05G04G02
 -37422437.69147 -29143285.36545  21093730.5234                   21093729.6604
 -88783852.30546 -69163796.49743  23859604.2034                   23859604.6884
 -21820191.45347 -16985517.33345  22274103.4064                   22274102.6884
 -35781225.16447 -27863037.32844  22574939.6414                   22574940.0594
 -73870329.25047 -57533147.14545  22333968.8914                   22333968.3594
 -10754696.47746  -8363142.96244  23279317.3054                   23279319.9924
 -65204173.50048 -50789311.55246  20553271.7504                   20553271.0824
 -47608102.35948 -37078740.25846  20632364.1804                   20632361.4924
 11  8 13  0 13  0.0000000  0  8G10G28G12G09G17G05G04G02
 -35974012.39547 -28014642.23845  21369356.5634                   21369356.1804
 -87190880.28146 -67922519.70043  24162736.3364                   24162738.1684
 -20409931.00447 -15886613.03645  22542467.5164                   22542466.6294
 -34228428.85947 -26653066.25244  22870426.6644                   22870427.3914
 -72332495.79747 -56334835.35945  22626609.3674                   22626608.1604
  -9365301.59047  -7280497.42044  23543710.4844                   23543711.6764
 -63650169.71147 -49578399.50346  20848988.6094                   20848988.2304
 -46139129.52348 -35934086.08546  20911900.3054                   20911897.6564
 11  8 13  0 13 30.0000000  0  8G10G28G12G09G17G05G04G02
 -36100334.53147 -28113075.03345  21345318.0004                   21345317.8244
 -87172962.19146 -67908557.67443  24166146.3444                   24166147.3404
 -20574699.02747 -16015003.66645  22511112.8444                   22511111.6884
 -34250503.48846 -26670267.31144  22866226.0314                   22866226.7304
 -72369823.80947 -56363922.13745  22619506.0314                   22619505.5234
  -9551106.07447  -7425279.98944  23508353.1024                   23508354.7664
 -63671133.12147 -49594734.66346  20844999.8444                   20844998.7114
 -46245079.12548 -36016644.19746  20891738.8284                   20891735.6724
 11  8 13  0 14  0.0000000  0  8G10G28G12G09G17G05G04G02
 -36225973.26247 -28210975.29645  21321410.0164                   21321409.4654
 -87154676.29746 -67894309.01243  24169625.4454                   24169627.9024
 -20739063.71547 -16143080.02045  22479835.1024                   22479834.5234
 -34272027.33246 -26687039.23744  22862130.6414                   22862131.0044
 -72406886.75447 -56392802.34645  22612452.9924                   22612452.3204
  -9736676.80946  -7569880.39144  23473040.0164                   23473041.4144
 -63691641.50447 -49610715.22046  20841097.2814                   20841096.0234
 -46350524.46547 -36098809.38846  20871673.1884                   20871670.3674
 11  8 13  0 14 30.0000000  0  8G10G28G12G09G17G05G04G02
 -36350930.63347 -28308344.64645  21297631.4144                   21297630.6564
 -87136028.80546 -67879778.58043  24173174.7814                   24173175.9614
 -20903026.70347 -16270843.36745  22448633.9694                   22448633.1524
 -34293008.07847 -26703387.89344  22858137.4534                   22858138.3284
 -72443688.98847 -56421479.42145  22605450.1484                   22605448.8634
  -9922015.48047  -7714300.03844  23437770.6644                   23437771.8014
 -63711701.30947 -49626346.25046  20837279.6024                   20837279.6024
 -46455470.00848 -36180585.12646  20851702.7974                   20851700.1414
 11  8 13  0 15  0.0000000  0  8G10G28G12G09G17G05G04G02
 -36475201.60247 -28405179.13145  21273982.9454                   21273982.7194
 -87117018.75046 -67864965.69743  24176792.6724                   24176793.5004
 -21066582.09847 -16398289.09445  22417510.4774                   22417509.7154
 -34313446.04747 -26719313.68144  22854248.7894                   22854250.0784
 -72480226.32847 -56449950.05645  22598497.1094                   22598496.0084
 -10107116.14146  -7858534.18044  23402547.5004                   23402548.5234
 -63731312.17647 -49641627.44646  20833547.8444                   20833547.4694
 -46559913.57448 -36261969.70946  20831827.9774                   20831824.3594
 11  8 13  0 15 30.0000000  0  8G10G28G12G09G17G05G04G02
 -36598789.69547 -28501481.49945  21250465.0944                   21250464.9534
 -87097653.76246 -67849876.22643  24180477.3594                   24180478.7114
 -21229733.23047 -16525419.82045  22386464.4224                   22386463.7384
 -34333349.75846 -26734823.15844  22850461.2344                   22850462.1174
 -72516504.47347 -56478218.77545  22591593.2424                   22591593.0354
 -10291981.34047  -8002584.81144  23367368.4224                   23367369.5234
 -63750481.93748 -49656564.92746  20829899.9774                   20829899.4144
 -46663861.22348 -36342967.87146  20812047.1884                   20812043.9844
 11  8 13  0 16  0.0000000  0  8G10G28G12G09G17G05G04G02
 -36721693.71548 -28597250.81545  21227077.3054                   21227076.8714
 -87077936.98046 -67834512.61343  24184230.1884                   24184231.1844
 -21392478.85547 -16652234.57545  22355494.0314                   22355493.7344
 -34352723.68746 -26749919.78844  22846774.3984                   22846775.1374
 -72552523.63347 -56506285.64345  22584739.3284                   22584738.7304
 -10476609.27347  -8146450.60044  23332235.1174                   23332236.7114
 -63769214.16047 -49671161.47546  20826335.5084                   20826334.6804
 -46767314.75048 -36423580.99346  20792359.9534                   20792358.0434
 11  8 13  0 16 30.0000000  0  8G10G28G12G09G17G05G04G02
 -36843909.70347 -28692484.02745  21203820.2424                   21203819.6644
 -87057868.25446 -67818874.72543  24188048.5004                   24188050.0394
 -21554814.12947 -16778729.58345  22324602.7424                   22324602.3714
 -34371568.85546 -26764604.39444  22843188.1334                   22843189.1684
 -72588281.29347 -56534148.76645  22577934.9224                   22577934.3164
 -10660995.07447  -8290127.71244  23297147.2114                   23297148.8244
 -63787509.11347 -49685417.29146  20822853.8674                   20822853.5044
 -46870272.68448 -36503807.94246  20772768.3284                   20772765.6884
 11  8 13  0 17  0.0000000  0  8G10G28G12G09G17G05G04G02
 -36965436.70347 -28787180.34645  21180694.4614                   21180693.8914
 -87037451.05946 -67802965.37043  24191933.7974                   24191935.0704
 -21716737.80147 -16904903.85045  22293789.9454                   22293789.1884
 -34389889.55946 -26778880.32344  22839702.1884                   22839702.8594
 -72623778.14547 -56561808.66945  22571179.1884                   22571178.9454
 -10845136.99247  -8433614.81044  23262106.3834                   23262107.4844
 -63805370.67647 -49699335.40946  20819455.2814                   20819454.4024
 -46972737.12548 -36583650.36446  20753270.1644                   20753267.2584
 11  8 13  0 17 30.0000000  0  8G10G28G12G09G17G05G04G02
 -37086272.69947 -28881338.24045  21157699.7034                   21157699.3094
 -87016687.35246 -67786785.93742  24195884.7894                   24195885.4734
 -21878247.56647 -17030755.58645  22263055.4454                   22263055.1604
 -34407689.31646 -26792750.35444  22836315.1174                   22836316.0434
 -72659014.08647 -56589265.26445  22564474.7274                   22564474.4264
 -11029032.40247  -8576909.80444  23227112.1254                   23227112.6134
 -63822801.08647 -49712917.55546  20816138.0004                   20816137.7814
 -47074708.76648 -36663108.76946  20733865.5164                   20733862.5784
 11  8 13  0 18  0.0000000  0  8G10G28G12G09G17G05G04G02
 -37206414.87547 -28974955.49545  21134838.3754                   21134837.2504
 -86995578.27046 -67770337.34943  24199901.9924                   24199902.4064
 -22039339.92247 -17156282.09745  22232400.3674                   22232399.8364
 -34424970.53147 -26806216.27744  22833026.3364                   22833027.4104
 -72693987.31647 -56616517.15945  22557819.8984                   22557818.6684
 -11212677.45747  -8720009.74344  23192165.2344                   23192166.2504
 -63839802.10248 -49726165.12646  20812903.1414                   20812902.5784
 -47176187.24648 -36742182.90446  20714554.7734                   20714552.1564
 11  8 13  0 18 30.0000000  0  8G10G28G12G09G17G05G04G02
 -37325864.73847 -29068033.28245  21112107.2034                   21112106.6294
 -86974129.57446 -67753624.16042  24203983.9144                   24203984.4344
 -22200015.71147 -17281483.98145  22201825.6414                   22201823.7774
 -34441740.05147 -26819283.46844  22829835.4694                   22829835.8984
 -72728700.93047 -56643566.73745  22551213.9774                   22551212.6524
 -11396072.82047  -8862915.11544  23157265.8284                   23157267.0594
 -63856379.59848 -49739082.67146  20809748.7194                   20809747.9384
 -47277176.87548 -36820876.11646  20695337.0004                   20695334.2384
 11  8 13  0 19  0.0000000  0  8G10G28G12G09G17G05G04G02
 -37444620.32047 -29160570.06745  21089508.8054                   21089508.4734
 -86952343.09846 -67736647.77742  24208130.1094                   24208131.1174
 -22360272.30147 -17406359.24145  22171329.3834                   22171328.5204
 -34458001.02047 -26831954.41844  22826741.1804                   22826741.9694
 -72763154.18047 -56670413.47445  22544657.6484                   22544657.2074
 -11579215.38747  -9005623.52644  23122415.6024                   23122416.6994
 -63872535.67648 -49751671.83246  20806674.1644                   20806673.5824
 -47377678.29348 -36899188.90446  20676212.4144                   20676209.5204
 11  8 13  0 19 30.0000000  0  8G10G28G12G09G17G05G04G02
 -37562677.31247 -29252562.48245  21067043.3134                   21067042.5744
 -86930218.59046 -67719407.97742  24212339.4304                   24212341.6254
 -22520105.05547 -17530904.21745  22140914.1954                   22140913.3914
 -34473754.51647 -26844229.90444  22823743.2664                   22823744.5984
 -72797344.13347 -56697055.02945  22538151.1414                   22538150.8094
 -11762100.02347  -9148130.91444  23087613.4534                   23087614.4614
 -63888270.67648 -49763932.88846  20803680.1644                   20803679.1804
 -47477689.77048 -36977119.91346  20657180.7344                   20657178.0514
 11  8 13  0 20  0.0000000  0  8G10G28G12G09G17G05G04G02
 -37680039.34448 -29344013.38145  21044710.1254                   21044709.4884
 -86907763.81645 -67701910.84543  24216613.4144                   24216614.6954
 -22679517.23847 -17655121.48745  22110579.4064                   22110577.5784
 -34489009.38347 -26856116.92044  22820840.5634                   22820841.9264
 -72831276.53147 -56723495.87144  22531694.4064                   22531692.9104
 -11944729.13747  -9290439.22344  23052860.5784                   23052861.7664
 -63903592.48048 -49775871.97646  20800764.5554                   20800763.6724
 -47577217.72748 -37054674.14946  20638241.2894                   20638238.2034
 11  8 13  0 20 30.0000000  0  8G10G28G12G09G17G05G04G02
 -37796700.67247 -29434918.28445  21022510.0634                   21022509.6764
 -86884977.04346 -67684154.92443  24220948.9844                   24220950.8164
 -22838502.19547 -17779005.84845  22080325.4774                   22080323.7274
 -34503765.06247 -26867614.91444  22818032.6334                   22818033.7664
 -72864946.69547 -56749732.41045  22525287.2194                   22525286.5124
 -12127096.74247  -9432543.76144  23018156.5394                   23018158.7384
 -63918499.95348 -49787488.20546  20797927.3754                   20797926.8094
 -47676259.03548 -37131849.17546  20619394.3524                   20619392.0164
 11  8 13  0 21  0.0000000  0  7G10G12G09G17G05G04G02
 -37912660.00847 -29525276.19345  21000443.9774                   21000443.4454
 -22997057.94147 -17902555.75745  22050152.7814                   22050151.9024
 -34518025.39547 -26878726.90844  22815319.8284                   22815320.4494
 -72898354.46547 -56775764.46845  22518929.6094                   22518929.4344
 -12309199.98847  -9574442.29744  22983503.5474                   22983504.5314
 -63932995.78548 -49798783.66546  20795168.7034                   20795167.8324
 -47774815.06648 -37208646.07346  20600639.5004                   20600636.7194
 11  8 13  0 21 30.0000000  0  7G10G12G09G17G05G04G02
 -38027912.45747 -29615083.25545  20978511.7584                   20978511.1684
 -23155179.02347 -18025766.97445  22020063.4064                   22020062.8484
 -34531790.88346 -26889453.32744  22812700.0004                   22812701.1524
 -72931496.50847 -56801589.48145  22512623.0864                   22512622.6374
 -12491032.92247  -9716130.18144  22948901.7894                   22948903.9104
 -63947079.52747 -49809758.01146  20792488.7504                   20792488.2384
 -47872883.56248 -37285063.06846  20581977.8204                   20581974.8054
 11  8 13  0 22  0.0000000  0  7G10G12G09G17G05G04G02
 -38142447.14147 -29704331.02445  20956716.6334                   20956716.4264
 -23312853.63347 -18148630.25645  21990059.1254                   21990057.8284
 -34545055.69146 -26899789.64344  22810175.8444                   22810177.2234
 -72964363.32047 -56827199.98245  22506368.4384                   22506367.5084
 -12672583.80147  -9857598.29344  22914354.1804                   22914355.9144
 -63960744.39147 -49820405.97346  20789888.6174                   20789887.9574
 -47970456.36748 -37361093.80546  20563410.2664                   20563407.5984
 11  8 13  0 22 30.0000000  0  7G10G12G09G17G05G04G02
 -38256257.51647 -29793014.41645  20935059.3594                   20935058.6484
 -23470074.81647 -18271140.24045  21960140.8834                   21960139.9144
 -34557818.02746 -26909734.38544  22807747.1024                   22807747.8364
 -72996949.38347 -56852591.75844  22500167.8134                   22500167.4494
 -12853844.60247  -9998840.36145  22879861.2194                   22879862.9734
 -63973988.09848 -49830725.75846  20787368.6564                   20787367.7704
 -48067529.13748 -37436734.91646  20544938.0164                   20544935.0634
 11  8 13  0 23  0.0000000  0  7G10G12G09G17G05G04G02
 -36793916.83647 -28653528.14645  21213333.6414                   21213332.8014
 -22051413.77747 -17165690.03845  22230103.1954                   22230101.7974
 -32994659.88346 -25691689.16144  23105206.1954                   23105207.2194
 -71453832.07847 -55650162.72945  22793813.7894                   22793812.8754
 -11459385.62947  -8912248.83545  23145217.9384                   23145219.0044
 -62411391.53147 -48613118.06846  21084720.5314                   21084719.5514
 -46588678.47348 -36284383.72946  20826353.9844                   20826350.9964
 11  8 13  0 23 30.0000000  0  7G10G12G09G17G05G04G02
 -36906274.60547 -28741079.62646  21191952.4534                   21191951.7504
 -22207721.80547 -17287488.44645  22200358.7274                   22200357.3094
 -33006429.14547 -25700860.07644  23102966.9384                   23102967.9924
 -71485856.45347 -55675116.78945  22787719.5234                   22787718.6684
 -11640059.63347  -9053033.68045  23110836.4384                   23110837.8834
 -62423801.48447 -48622788.18245  21082359.2114                   21082358.3914
 -46684755.35248 -36359248.81546  20808071.0554                   20808068.4104
 11  8 13  0 24  0.0000000  0  7G10G12G09G17G05G04G02
 -37017904.99247 -28828064.32045  21170709.7974                   21170709.3524
 -22363571.25847 -17408929.54445  22170701.5634                   22170699.8524
 -33017708.77047 -25709649.46844  23100820.2034                   23100821.3094
 -71517601.21147 -55699852.99645  22781678.5784                   22781678.1294
 -11820437.29347  -9193587.58645  23076511.7974                   23076513.2664
 -62435799.79348 -48632137.51745  21080076.0554                   21080075.0434
 -46780337.09848 -36433728.07446  20789882.2344                   20789879.5434
 11  8 13  0 24 30.0000000  0  7G10G12G09G17G05G04G02
 -37128817.10247 -28914489.30946  21149604.0084                   21149603.8284
 -22518970.27747 -17530019.64745  22141129.8914                   22141129.5234
 -33028512.93047 -25718068.38644  23098764.6254                   23098765.6804
 -71549076.22747 -55724379.01045  22775689.5634                   22775688.8284
 -12000526.77047  -9333916.94645  23042241.9454                   23042242.8404
 -62447399.64147 -48641176.36845  21077868.6644                   21077867.8834
 -46875435.46148 -36507830.68746  20771785.9224                   20771782.9694
 11  8 13  0 25  0.0000000  0  7G10G12G09G17G05G04G02
 -37239009.77347 -29000353.70645  21128635.1334                   21128634.2774
 -22673916.67647 -17650757.05845  22111644.8834                   22111643.4264
 -33038845.41046 -25726119.77044  23096798.5234                   23096799.6254
 -71580281.41047 -55748694.76344  22769751.3284                   22769750.6174
 -12180325.63347  -9474019.84145  23008027.5634                   23008028.4804
 -62458603.68747 -48649906.81745  21075736.7584                   21075735.9064
 -46970051.45348 -36581557.41846  20753781.0164                   20753778.0554
 11  8 13  0 25 30.0000000  0  7G10G12G09G17G05G04G02
 -37348477.53147 -29085653.21545  21107804.2584                   21107803.3714
 -22828404.25847 -17771136.94545  22082246.6254                   22082245.3284
 -33048705.62946 -25733803.17944  23094922.1094                   23094923.5744
 -71611212.68747 -55772797.07945  22763865.6254                   22763864.8674
 -12359826.85947  -9613890.80845  22973869.2344                   22973870.1334
 -62469410.66047 -48658327.83346  21073680.1484                   21073679.4654
 -47064182.11748 -36654905.97946  20735868.2814                   20735865.4184
 11  8 13  0 26  0.0000000  0  7G10G12G09G17G05G04G02
 -37457222.15647 -29170389.26945  21087110.3444                   21087109.4264
 -22982434.14147 -17891160.19945  22052935.5474                   22052934.9024
 -33058100.77746 -25741124.18444  23093133.9694                   23093135.5944
 -71641873.16447 -55796688.35245  22758030.7734                   22758029.4654
 -12539031.24247  -9753530.49045  22939767.9224                   22939768.3634
 -62479826.66448 -48666444.21845  21071698.2424                   21071697.3524
 -47157832.10948 -36727879.98046  20718047.7344                   20718044.3094
 11  8 13  0 26 30.0000000  0  7G10G12G09G17G05G04G02
 -37565244.40247 -29254562.42745  21066554.7584                   21066554.1254
 -23136005.96147 -18010826.52045  22023712.1644                   22023710.7774
 -33067036.35247 -25748087.00544  23091433.9844                   23091434.7034
 -71672264.25447 -55820369.76845  22752246.4694                   22752246.8834
 -12717938.02047  -9892938.23645  22905722.8054                   22905723.5944
 -62489856.22348 -48674259.45445  21069789.2194                   21069788.6604
 -47251004.29747 -36800481.66946  20700317.3054                   20700314.3014
 11  8 13  0 27  0.0000000  0  7G10G12G09G17G05G04G02
 -37672543.20347 -29338171.85045  21046136.0944                   21046135.5784
 -23289117.78147 -18130134.37845  21994575.8364                   21994574.7304
 -33075515.86346 -25754694.40644  23089820.1954                   23089822.0394
 -71702386.23847 -55843841.45645  22746515.3914                   22746515.4774
 -12896544.81247 -10032112.27745  22871735.1644                   22871735.4144
 -62499502.00048 -48681775.67245  21067953.8054                   21067953.1484
 -47343699.96948 -36872712.04646  20682678.0164                   20682675.1174
 11  8 13  0 27 30.0000000  0  7G10G12G09G17G05G04G02
 -37779112.43447 -29421212.78845  21025856.5164                   21025855.8204
 -23441762.23447 -18249078.10045  21965528.3754                   21965527.1644
 -33083538.61747 -25760945.91844  23088293.6094                   23088295.4774
 -71732233.63347 -55867099.17745  22740836.0164                   22740834.7974
 -13074843.96147 -10171046.57745  22837805.6414                   22837806.5434
 -62508762.01647 -48688991.27145  21066191.6644                   21066191.0864
 -47435915.41848 -36944568.22146  20665130.0634                   20665126.6294
 11  8 13  0 28  0.0000000  0  7G10G12G09G17G05G04G02
 -37884961.43747 -29503692.49645  21005714.4224                   21005713.6724
 -23593947.56647 -18367664.05845  21936568.4844                   21936567.0514
 -33091119.05547 -25766852.79743  23086850.7424                   23086851.7894
 -71761817.00447 -55890151.15745  22735206.1884                   22735205.5274
 -13252844.06247 -10309747.84845  22803933.4694                   22803934.1644
 -62517649.41448 -48695916.52445  21064500.4144                   21064500.0234
 -47527662.57447 -37016059.48446  20647670.8754                   20647667.8834
 11  8 13  0 28 30.0000000  0  7G10G12G09G17G05G04G02
 -37990086.87147 -29585608.39245  20985709.5394                   20985708.7274
 -23745670.08247 -18485889.37445  21907696.6414                   21907695.4304
 -33098258.38346 -25772416.01444  23085491.9694                   23085493.6374
 -71791133.85947 -55912995.51845  22729627.6024                   22729627.2194
 -13430540.03147 -10448212.15045  22770118.4144                   22770119.5634
 -62526164.63348 -48702551.76845  21062880.4064                   21062879.3634
 -47618940.56247 -37087185.17846  20630301.2274                   20630298.3014
 11  8 13  0 29  0.0000000  0  7G10G12G09G17G05G04G02
 -38094483.90247 -29666956.70445  20965843.8054                   20965842.8054
 -23896923.94947 -18603749.51045  21878913.7814                   21878912.7034
 -33104957.04347 -25777635.84244  23084218.0234                   23084219.0204
 -71820180.77747 -55935629.50645  22724099.9224                   22724099.0314
 -13607925.51647 -10586434.49545  22736363.2344                   22736364.9494
 -62534306.96547 -48708896.43245  21061330.6094                   21061330.1724
 -47709746.91847 -37157943.36546  20613021.7664                   20613018.5744
 11  8 13  0 29 30.0000000  0  7G10G12G09G17G05G04G02
 -38198153.71147 -29747738.33545  20946116.0704                   20946115.1094
 -24047708.59047 -18721244.02545  21850220.0704                   21850219.5044
 -33111220.42647 -25782516.46844  23083025.6644                   23083026.9654
 -71848958.88347 -55958054.02444  22718623.6804                   22718623.1294
 -13784999.61747 -10724414.19745  22702666.5554                   22702668.0864
 -62542080.91048 -48714954.05145  21059851.3524                   21059850.6374
 -47800084.57048 -37228336.32446  20595831.2424                   20595827.9884
 11  8 13  0 30  0.0000000  0  7G10G12G09G17G05G04G02
 -38301095.41447 -29827952.63545  20926526.3054                   20926525.4654
 -24198022.26247 -18838371.55645  21821616.6724                   21821615.9614
 -33117052.75046 -25787061.23143  23081916.0634                   23081917.2384
 -71877468.75446 -55980269.55144  22713198.5634                   22713197.5824
 -13961760.33247 -10862149.73745  22669030.6254                   22669031.4804
 -62549489.31647 -48720726.82145  21058441.6724                   21058440.7814
 -47889955.03548 -37298365.23746  20578728.8284                   20578726.1954
 11  8 13  0 30 30.0000000  0  7G10G12G09G17G05G04G02
 -38403303.90247 -29907595.59645  20907077.1954                   20907075.9884
 -24347858.70747 -18955127.20745  21793103.8204                   21793103.1024
 -33122453.92646 -25791270.02743  23080888.6094                   23080889.8984
 -71905706.04747 -56002272.66045  22707825.3204                   22707824.4774
 -14138200.99647 -10999635.87445  22635455.1414                   22635455.6994
 -62556530.96547 -48726213.81645  21057101.6094                   21057101.1134
 -47979356.03547 -37368028.35946  20561716.5314                   20561713.6724
 11  8 13  0 31  0.0000000  0  7G10G12G09G17G05G04G02
 -38504784.11347 -29986671.04246  20887765.7814                   20887765.0204
 -24497222.32847 -19071514.44245  21764681.5704                   21764679.9654
 -33127433.88346 -25795150.59544  23079941.3444                   23079942.5124
 -71933676.87946 -56024068.14344  22702502.4694                   22702502.1644
 -14314325.66847 -11136875.78645  22601939.3754                   22601940.4694
 -62563214.98047 -48731422.16045  21055829.4064                   21055829.5664
 -48068294.78147 -37437331.26846  20544792.1954                   20544789.3914
 11  8 13  0 31 30.0000000  0  7G10G12G09G17G05G04G02
 -38605528.31647 -30065172.99445  20868594.7344                   20868593.9964
 -24646103.91047 -19187526.06445  21736349.8984                   21736348.3244
 -33131989.48847 -25798700.43344  23079074.2344                   23079075.3634
 -71961374.35547 -56045650.64744  22697231.8204                   22697231.3954
 -14490124.86347 -11273862.06745  22568485.9614                   22568486.4804
 -62569536.90248 -48736348.34845  21054626.6954                   21054626.1844
 -48156765.89848 -37506269.80246  20527956.6024                   20527953.6454
 11  8 13  0 32  0.0000000  0  7G10G12G09G17G05G04G02
 -38705541.94148 -30143105.67046  20849563.1414                   20849562.2154
 -24794507.55147 -19303165.26345  21708109.1254                   21708108.0234
 -33136130.57047 -25801927.30644  23078286.0314                   23078287.3984
 -71988804.22347 -56067024.59744  22692012.1024                   22692011.4964
 -14665601.78947 -11410597.24745  22535093.7034                   22535094.5234
 -62575505.87548 -48740999.49045  21053490.7734                   21053490.5234
 -48244776.37148 -37574849.38446  20511208.7504                   20511205.9104
 11  8 13  0 32 30.0000000  0  7G10G12G09G17G05G04G02
 -38804821.14847 -30220466.05246  20830670.6564                   20830670.2894
 -24942428.20347 -19418428.09745  21679961.1644                   21679959.8484
 -33139858.47347 -25804832.23644  23077577.1724                   23077578.6294
 -72015963.65646 -56088187.83344  22686843.6174                   22686843.4024
 -14840751.30147 -11547077.29745  22501763.9774                   22501764.4024
 -62581121.68048 -48745375.43445  21052422.0394                   21052421.4104
 -48332325.29348 -37643069.30246  20494548.7274                   20494545.9734
 11  8 13  0 33  0.0000000  0  7G10G12G09G17G05G04G02
 -37327948.59848 -29069656.25045  21111710.1334                   21111709.3444
 -23514445.80947 -18305714.52545  21951697.2194                   21951695.6484
 -31567763.92647 -24579823.50744  23376736.5554                   23376737.5234
 -70467438.61747 -54881544.96045  22981518.4304                   22981518.2584
 -13440151.80147 -10455700.98145  22768289.4224                   22768289.5944
 -61010973.55947 -47521883.40845  21351211.4844                   21351210.7624
 -46843997.66448 -36483333.47846  20777768.1174                   20777764.7704
 11  8 13  0 33 30.0000000  0  7G10G12G09G17G05G04G02
 -37425768.30547 -29145879.36445  21093095.5784                   21093094.9344
 -23661406.41847 -18420229.27445  21923731.4534                   21923730.2384
 -31570688.93747 -24582102.80844  23376180.2504                   23376181.0164
 -70494068.85947 -54902295.82844  22976450.6804                   22976450.2974
 -13614650.77347 -10591674.10845  22735083.3524                   22735083.3164
 -61015902.88348 -47525724.42845  21350273.2894                   21350273.0004
 -46930638.74248 -36550845.97646  20761281.0474                   20761277.7704
 11  8 13  0 34  0.0000000  0  7G10G12G09G17G05G04G02
 -37522854.07448 -29221530.59345  21074620.7894                   21074620.3594
 -23807881.25047 -18534365.50445  21895858.1884                   21895857.4494
 -31573215.40647 -24584071.60544  23375699.3134                   23375699.9344
 -70520431.50046 -54922838.20145  22971434.2274                   22971433.5434
 -13788818.10247 -10727388.83345  22701940.0234                   22701940.9774
 -61020490.37548 -47529299.11045  21349400.5164                   21349400.0274
 -47016825.20747 -36618004.24646  20744880.0864                   20744877.1214
 11  8 13  0 34 30.0000000  0  7G10G12G09G17G05G04G02
 -37619206.50447 -29296610.39846  21056285.4454                   21056285.2274
 -23953869.01247 -18648122.17945  21868077.6644                   21868076.4574
 -31575348.38346 -24585733.72144  23375293.5004                   23375295.0594
 -70546527.38346 -54943172.67144  22966468.0784                   22966468.1094
 -13962652.16047 -10862843.86345  22668860.3524                   22668860.6954
 -61024739.58647 -47532610.19945  21348591.8524                   21348591.3324
 -47102559.63347 -36684810.26746  20728565.1334                   20728562.2624
 11  8 13  0 35  0.0000000  0  8G10G25G12G09G17G05G04G02
 -37714831.45747 -29371123.33846  21038088.7584                   21038088.2464
   6036310.04356   4724166.07653  24734957.8984                   24734961.0514
 -24099374.61747 -18761503.15745  21840388.9224                   21840387.8874
 -31577098.26247 -24587097.32144  23374960.1954                   23374962.4774
 -70572363.28147 -54963304.57045  22961551.5314                   22961551.6054
 -14136156.81647 -10998042.23445  22635843.3364                   22635844.2344
 -61028660.02747 -47535665.09045  21347845.6804                   21347845.4264
 -47187850.07448 -36751270.33846  20712334.9924                   20712332.0124
 11  8 13  0 35 30.0000000  0  8G10G25G12G09G17G05G04G02
 -37809733.24247 -29445072.76646  21020029.4144                   21020028.6684
   5857977.02346   4585205.38543  24701022.7424                   24701025.2234
 -24244401.16447 -18874510.84045  21812790.9694                   21812789.8204
 -31578473.94946 -24588169.37344  23374698.5314                   23374700.3834
 -70597944.00847 -54983237.63745  22956684.3364                   22956683.9024
 -14309335.29747 -11132986.42945  22602888.5944                   22602889.3484
 -61032259.53947 -47538469.91545  21347160.7344                   21347160.8754
 -47272703.00447 -36817389.49346  20696188.1094                   20696185.1564
 11  8 13  0 36  0.0000000  0  8G10G25G12G09G17G05G04G02
 -37903919.33247 -29518464.51445  21002106.5634                   21002105.9844
   5679856.69946   4446410.38143  24667127.7814                   24667129.9454
 -24388954.43047 -18987149.74845  21785283.6484                   21785282.0004
 -31579487.42246 -24588959.20544  23374506.1724                   23374507.4454
 -70623277.48447 -55002977.98644  22951863.6254                   22951862.2274
 -14482192.78547 -11267680.49745  22569994.8754                   22569995.2074
 -61035548.84447 -47541033.03845  21346534.6954                   21346534.7774
 -47357127.82048 -36883175.04646  20680122.4694                   20680119.6024
 11  8 13  0 36 30.0000000  0  8G10G25G12G09G17G05G04G02
 -37997390.00447 -29591298.78646  20984319.7734                   20984319.3054
   5501949.57046   4307781.54543  24633272.6724                   24633275.0664
 -24533033.81647 -19099419.38645  21757866.1644                   21757865.0124
 -31580144.07046 -24589470.94444  23374381.0864                   23374382.8484
 -70648364.84846 -55022526.58444  22947089.4774                   22947089.0204
 -14654728.09847 -11402123.51945  22537162.5634                   22537162.9574
 -61038531.82847 -47543357.46545  21345967.3444                   21345966.9884
 -47441127.19548 -36948629.09546  20664138.1804                   20664134.6454
 11  8 13  0 37  0.0000000  0  8G10G25G12G09G17G05G04G02
 -38090143.66447 -29663574.35246  20966669.0474                   20966668.3874
   5324258.51246   4169321.06543  24599459.3674                   24599461.8594
 -24676636.18747 -19211317.33345  21730539.4224                   21730538.3794
 -31580446.59846 -24589706.79244  23374324.1954                   23374325.5084
 -70673205.26647 -55041882.77744  22942362.6024                   22942362.0664
 -14826937.79347 -11536312.80845  22504392.0394                   22504392.0354
 -61041210.29748 -47545444.58245  21345458.0314                   21345457.2934
 -47524701.62548 -37013752.01246  20648234.3284                   20648231.5004
 11  8 13  0 37 30.0000000  0  8G10G25G12G09G17G05G04G02
 -38182174.71947 -29735286.85146  20949156.1484                   20949155.4024
   5146791.11346   4031034.85243  24565688.4924                   24565690.6294
 -24819754.29747 -19322837.93845  21703305.1724                   21703303.8444
 -31580393.61746 -24589665.58044  23374333.7114                   23374335.7154
 -70697793.31247 -55061042.28444  22937683.9694                   22937683.1214
 -14998814.00047 -11670242.24145  22471684.7424                   22471685.4224
 -61043581.39547 -47547292.19545  21345006.0864                   21345005.9734
 -47607847.06248 -37078540.64746  20632412.4384                   20632408.8794
 11  8 13  0 38  0.0000000  0  8G10G25G12G09G17G05G04G02
 -38273483.98047 -29806436.91145  20931781.0554                   20931780.0944
   4969547.75047   3892923.17044  24531959.7344                   24531962.3954
 -24962387.84847 -19433980.96346  21676162.8594                   21676161.3954
 -31579990.57846 -24589351.61043  23374410.5084                   23374412.0124
 -70722129.84846 -55080005.83044  22933052.2814                   22933052.5944
 -15170355.82447 -11803911.12945  22439041.6024                   22439041.7504
 -61045649.49247 -47548903.74245  21344612.5394                   21344612.5514
 -47690566.57447 -37142997.40046  20616671.2584                   20616668.0204
 11  8 13  0 38 30.0000000  0  8G10G25G12G09G17G05G04G02
 -38364068.40647 -29877022.17146  20914542.9924                   20914542.2194
   4792533.09446   3754989.70643  24498275.5944                   24498277.1524
 -25104531.75047 -19544742.43045  21649113.7584                   21649112.5594
 -31579238.76646 -24588765.89043  23374553.7814                   23374555.4144
 -70746212.68747 -55098771.67144  22928470.1254                   22928469.0164
 -15341557.98047 -11937315.32745  22406462.3914                   22406463.7814
 -61047414.47747 -47550279.07645  21344276.9304                   21344277.1254
 -47772858.89148 -37207121.26646  20601011.9304                   20601008.4064
 11  8 13  0 39  0.0000000  0  8G10G25G12G09G17G05G04G02
 -38453923.08647 -29947038.78046  20897444.7894                   20897443.6524
   4615753.57846   3617239.48743  24464635.2194                   24464636.9494
 -25246179.67247 -19655117.42646  21622158.8754                   21622158.1684
 -31578137.37546 -24587907.71544  23374763.3054                   23374765.1254
 -70770037.25847 -55117336.28344  22923935.5084                   22923935.2934
 -15512413.58647 -12070449.47945  22373949.7424                   22373950.4264
 -61048874.67247 -47551416.91145  21343999.0784                   21343999.1954
 -47854721.03947 -37270909.94246  20585433.8204                   20585430.5984
 11  8 13  0 39 30.0000000  0  8G10G25G12G09G17G05G04G02
 -38543049.25048 -30016487.72546  20880483.8524                   20880483.3284
   4439209.43446   3479672.67743  24431040.2814                   24431042.2854
 -25387331.35947 -19765105.76146  21595298.6414                   21595297.7774
 -31576692.54346 -24586781.96643  23375038.5474                   23375040.1294
 -70793604.76647 -55135700.58645  22919451.4534                   22919450.9414
 -15682922.03947 -12203313.13845  22341503.2814                   22341503.6414
 -61050034.50447 -47552320.70945  21343778.8594                   21343778.0314
 -47936156.28147 -37334365.97846  20569937.1334                   20569934.0164
 11  8 13  0 40  0.0000000  0  8G10G25G12G09G17G05G04G02
 -38631448.15647 -30085369.95045  20863662.2664                   20863661.2934
   4262900.91446   3342289.40143  24397489.4774                   24397491.8364
 -25527986.74647 -19874707.32945  21568532.9224                   21568531.8284
 -31574909.78146 -24585392.89943  23375377.5634                   23375379.7304
 -70816917.29747 -55153866.20744  22915014.8134                   22915014.9454
 -15853082.64547 -12335905.75045  22309122.6564                   22309123.7034
 -61050898.27347 -47552993.81945  21343613.8914                   21343613.7734
 -48017167.81248 -37397491.83746  20554521.2814                   20554518.0744
 11  8 13  0 40 30.0000000  0  8G10G25G12G09G17G05G04G02
 -38719113.00048 -30153680.20246  20846980.3284                   20846979.3754
   4086836.36346   3205096.27643  24363985.9454                   24363987.5044
 -25668137.84047 -19983915.95646  21541862.8984                   21541862.5474
 -31572786.37146 -24583738.41544  23375782.1094                   23375783.6954
 -70839968.89147 -55171828.49044  22910628.1174                   22910628.5274
 -16022886.42647 -12468220.31745  22276810.2504                   22276810.7304
 -61051462.30547 -47553433.36145  21343507.0394                   21343506.9264
 -48097750.96147 -37460283.92046  20539186.9614                   20539183.5514
 11  8 13  0 41  0.0000000  0  8G10G25G12G09G17G05G04G02
 -38806045.82048 -30221420.04546  20830437.7194                   20830436.9734
   3911015.26246   3068092.86043  24330528.4384                   24330530.2114
 -25807784.91047 -20092731.82946  21515288.8834                   21515288.1174
 -31570329.13346 -24581823.78244  23376249.1644                   23376251.0354
 -70862761.33647 -55189588.82644  22906290.9304                   22906290.6414
 -16192333.45347 -12600256.88545  22244565.2584                   22244566.0044
 -61051731.97348 -47553643.52445  21343456.1024                   21343455.3324
 -48177909.71948 -37522745.27646  20523933.1644                   20523929.8714
 11  8 13  0 41 30.0000000  0  8G10G25G12G09G17G05G04G02
 -38892243.72348 -30288587.21846  20814034.7274                   20814034.1094
   3735442.16446   2931282.69343  24297117.4384                   24297120.4574
 -25946923.41047 -20201151.40846  21488811.9144                   21488810.5704
 -31567539.15246 -24579649.79843  23376780.2814                   23376781.8444
 -70885292.12547 -55207145.32744  22902003.7344                   22902003.3674
 -16361418.87947 -12732011.71045  22212388.8524                   22212390.2034
 -61051707.13347 -47553624.20645  21343460.6644                   21343459.5904
 -48257642.97348 -37584875.08146  20508760.3674                   20508757.1254
 11  8 13  0 42  0.0000000  0  8G10G25G12G09G17G05G04G02
 -38977704.28548 -30355179.84046  20797771.4454                   20797771.3524
   3560121.48046   2794669.27443  24263755.1024                   24263758.4064
 -26085549.17647 -20309171.44545  21462432.1414                   21462431.1954
 -31564418.09846 -24577217.90243  23377374.1884                   23377375.9144
 -70907558.93747 -55224496.14444  22897766.5084                   22897766.0474
 -16530137.71547 -12863480.85945  22180283.2504                   22180283.7384
 -61051388.31647 -47553375.79845  21343521.0084                   21343520.5944
 -48336949.98447 -37646672.75146  20493668.6414                   20493665.2814
 11  8 13  0 42 30.0000000  0  8G10G25G12G09G17G05G04G02
 -39062429.15247 -30421199.20946  20781649.4694                   20781648.8914
   3385053.44946   2658252.64743  24230440.7274                   24230443.1454
 -26223661.57447 -20416791.45546  21436150.3134                   21436148.8204
 -31560971.71546 -24574532.46244  23378029.8834                   23378032.6804
 -70929563.73047 -55241642.72944  22893579.5164                   22893578.3674
 -16698489.42647 -12994663.95145  22148246.3134                   22148247.2544
 -61050779.78147 -47552901.66345  21343637.0164                   21343636.6254
 -48415833.89547 -37708140.73646  20478657.2424                   20478654.3634
 11  8 13  0 43  0.0000000  0  8G10G25G12G09G17G05G04G02
 -39146416.11748 -30486643.57246  20765667.2114                   20765666.5234
   3210241.80946   2522035.79743  24197175.2194                   24197177.4534
 -26361257.96547 -20524009.39046  21409966.9534                   21409965.3794
 -31557202.27747 -24571595.32144  23378747.4304                   23378749.0984
 -70951304.28147 -55258583.45244  22889441.9304                   22889441.1524
 -16866470.06247 -13125557.87445  22116281.1174                   22116281.6214
 -61049882.37547 -47552202.41645  21343807.5474                   21343806.9024
 -48494294.59447 -37769278.92646  20463727.0004                   20463723.8284
 11  8 13  0 43 30.0000000  0  8G10G25G12G09G17G05G04G02
 -37654246.62547 -29323914.07245  21049617.4614                   21049617.0434
   4611110.26246   3613621.64543  24463751.0084                   24463753.6484
 -24922915.38747 -19403222.92645  21683674.0314                   21683672.7194
 -29977698.04346 -23340812.86743  23679317.2114                   23679318.8554
 -69397364.27747 -54047721.16044  23185147.8054                   23185147.1294
 -15458655.73847 -12028559.64845  22384179.3834                   22384180.3054
 -59473283.05947 -46323683.49045  21643825.2194                   21643824.1294
 -46996915.01247 -36602489.63446  20748668.7194                   20748665.5084
 11  8 13  0 44  0.0000000  0  8G10G25G12G09G17G05G04G02
 -37736764.56247 -29388213.75146  21033914.9064                   21033914.4454
   4436810.53946   3477803.73443  24430583.1724                   24430585.0204
 -25059479.81247 -19509636.73545  21657686.7664                   21657684.8094
 -29973301.21546 -23337386.80144  23680154.2344                   23680156.0904
 -69418583.74246 -54064255.84644  23181109.3594                   23181109.3404
 -15625893.54747 -12158874.74945  22352355.1564                   22352355.0864
 -59471823.09847 -46322545.89145  21644102.7424                   21644101.7344
 -47074540.50447 -36662977.02546  20733896.6414                   20733893.8244
 11  8 13  0 44 30.0000000  0  8G10G25G12G09G17G05G04G02
 -37818543.02047 -29451937.21145  21018352.9694                   21018352.0164
   4262774.11346   3342190.96043  24397465.3914                   24397467.0124
 -25195521.25447 -19615643.00046  21631798.6564                   21631797.5554
 -29968592.21947 -23333717.54644  23681050.2424                   23681052.7384
 -69439538.27047 -54080584.10144  23177121.7034                   23177121.3914
 -15792752.06247 -12288894.30045  22320603.0394                   22320603.2194
 -59470081.19947 -46321188.62145  21644433.9304                   21644433.4184
 -47151746.72747 -36723137.69946  20719205.3054                   20719201.9844
 11  8 13  0 45  0.0000000  0  8G10G25G12G09G17G05G04G02
 -37899583.48448 -29515085.59846  21002931.4384                   21002930.7114
   4089001.62546   3206783.84543  24364397.0944                   24364399.0474
 -25331039.33647 -19721241.47346  21606010.3914                   21606008.8554
 -29963576.41447 -23329809.18543  23682005.2974                   23682006.5354
 -69460229.42247 -54096707.11744  23173184.9924                   23173183.6724
 -15959230.10947 -12418617.38845  22288923.3754                   22288923.9304
 -59468061.85248 -46319615.10745  21644818.3364                   21644817.8484
 -47228536.66047 -36782974.00946  20704592.4144                   20704589.7234
 11  8 13  0 45 30.0000000  0  8G10G25G12G09G17G05G04G02
 -37979887.20347 -29577659.91245  20987649.9064                   20987649.4694
   3915493.84846   3071582.95443  24331379.5164                   24331381.4614
 -25466033.05947 -19826431.34046  21580321.7894                   21580320.5904
 -29958259.20346 -23325665.97143  23683016.5234                   23683018.6454
 -69480658.14846 -54112625.68944  23169296.4454                   23169296.5044
 -16125326.57447 -12548043.12045  22257315.8914                   22257316.1054
 -59465768.38747 -46317828.03845  21645254.6884                   21645254.5474
 -47304912.83247 -36842487.90746  20690058.7194                   20690055.7464
 11  8 13  0 46  0.0000000  0  8G10G25G12G09G17G05G04G02
 -38059451.64547 -29639658.15945  20972509.5084                   20972508.6914
   3742255.39846   2936591.99043  24298413.8834                   24298415.8134
 -25600498.57447 -19931209.63046  21554733.7504                   21554732.9304
 -29952641.89846 -23321288.88743  23684085.2504                   23684087.2624
 -69500822.17647 -54128337.95444  23165460.0314                   23165458.9534
 -16291036.73047 -12677167.85145  22225782.2344                   22225782.1914
 -59463201.35547 -46315827.78645  21645743.1724                   21645742.6484
 -47380874.54747 -36901678.85346  20675603.7424                   20675600.5044
 11  8 13  0 46 30.0000000  0  8G10G25G12G09G17G05G04G02
 -38138278.58647 -29701081.73845  20957509.1884                   20957508.3014
   3569286.24246   2801810.91243  24265498.3754                   24265500.3634
 -25734435.87947 -20035576.33345  21529246.0164                   21529245.0044
 -29946730.50046 -23316682.66543  23685211.0084                   23685212.7424
 -69520722.93047 -54143845.10444  23161672.8914                   23161671.9574
 -16456360.12147 -12805991.19045  22194322.1024                   22194322.4064
 -59460365.05547 -46313617.69645  21646282.9534                   21646282.3324
 -47456425.26247 -36960549.53146  20661226.4224                   20661223.7034
 11  8 13  0 47  0.0000000  0  8G10G25G12G09G17G05G04G02
 -38216367.17647 -29761929.98145  20942649.4454                   20942648.6054
   3396589.57447   2667242.05544  24232635.9064                   24232636.9574
 -25867841.70347 -20139528.90846  21503860.3754                   21503859.0744
 -29940527.91846 -23311849.55643  23686391.2194                   23686393.1954
 -69540359.75447 -54159146.57844  23157936.3674                   23157935.9844
 -16621293.28147 -12934510.46545  22162936.1334                   22162936.4574
 -59457261.07447 -46311199.04145  21646874.1254                   21646873.4494
 -47531565.50847 -37019100.35746  20646927.9064                   20646924.3404
 11  8 13  0 47 30.0000000  0  8G10G25G12G09G17G05G04G02
 -38293720.28947 -29822205.13045  20927929.4694                   20927928.7774
   3224164.50846   2532884.85543  24199824.4454                   24199826.5274
 -26000717.75847 -20243068.66646  21478574.8444                   21478573.8094
 -29934040.71146 -23306794.72343  23687625.9534                   23687628.0554
 -69559735.62547 -54174244.71344  23154249.1644                   23154248.7194
 -16785836.82047 -13062726.12945  22131624.6414                   22131624.8714
 -59453895.02348 -46308576.16145  21647514.1724                   21647513.6644
 -47606299.85248 -37077334.90046  20632706.7664                   20632703.5314
 11  8 13  0 48  0.0000000  0  8G10G25G12G09G17G05G04G02
 -38370335.88747 -29881905.58745  20913350.3674                   20913349.0944
   3052015.28146   2398742.69143  24167065.7974                   24167067.3014
 -26133059.62947 -20346192.19846  21453391.1884                   21453390.0634
 -29927270.92646 -23301519.69143  23688914.2974                   23688915.5394
 -69578848.45747 -54189137.86245  23150612.1564                   23150612.0824
 -16949985.89147 -13190634.43045  22100388.3204                   22100388.8364
 -59450267.30547 -46305749.40145  21648204.5634                   21648203.9104
 -47680627.60948 -37135252.62846  20618562.7274                   20618559.5474
 11  8 13  0 48 30.0000000  0  8G10G25G12G09G17G05G04G02
 -38446214.31247 -29941031.63945  20898911.0234                   20898910.2424
   2880143.71246   2264816.79443  24134357.8444                   24134361.5354
 -26264865.95347 -20448898.41946  21428309.1724                   21428308.1994
 -29920222.85746 -23296027.82943  23690255.4454                   23690257.0164
 -69597698.25047 -54203826.07244  23147025.8054                   23147024.8014
 -17113738.73447 -13318233.98045  22069226.7894                   22069227.4384
 -59446380.58247 -46302720.82445  21648944.3674                   21648943.9024
 -47754550.68747 -37192855.01346  20604495.4844                   20604492.3204
 11  8 13  0 49  0.0000000  0  8G10G25G12G09G17G05G04G02
 -38521355.18747 -29999582.94946  20884611.8984                   20884611.3204
   2708552.18046   2131109.19843  24101705.8524                   24101708.5904
 -26396134.57447 -20551185.64046  21403329.7194                   21403328.3284
 -29912899.60246 -23290321.51843  23691649.2194                   23691651.2814
 -69616284.57047 -54218308.96444  23143488.3204                   23143488.0824
 -17277092.32047 -13445522.42345  22038141.9454                   22038142.1844
 -59442237.09447 -46299492.15745  21649732.5784                   21649732.5314
 -47828070.43047 -37250143.12846  20590505.1174                   20590501.9064
 11  8 13  0 49 30.0000000  0  8G10G25G12G09G17G05G04G02
 -38595756.60547 -30057558.09245  20870454.0944                   20870453.1994
   2537245.10546   1997623.19943  24069107.6564                   24069109.9924
 -26526861.46147 -20653050.74246  21378453.2974                   21378451.4414
 -29905303.22346 -23284402.36743  23693093.8054                   23693097.0744
 -69634605.29747 -54232584.87744  23140001.7194                   23140001.8984
 -17440042.16047 -13572496.25245  22007133.2894                   22007133.0944
 -59437837.25847 -46296063.72845  21650570.4064                   21650569.2194
 -47901185.90247 -37307116.20146  20576591.6644                   20576588.7854
 11  8 13  0 50  0.0000000  0  8G10G25G12G09G17G05G04G02
 -38669419.37947 -30114957.65745  20856436.9304                   20856435.6844
   2366223.80546   1864359.89243  24036563.7114                   24036565.0904
 -26657045.48047 -20754492.83846  21353679.7584                   21353677.9064
 -29897438.49646 -23278274.17043  23694590.8284                   23694593.0124
 -69652661.25447 -54246654.51844  23136566.2664                   23136565.5274
 -17602586.68747 -13699154.24945  21976201.8914                   21976202.3834
 -59433184.08647 -46292437.92245  21651455.0944                   21651454.7624
 -47973899.76647 -37363776.35046  20562754.7734                   20562751.7384
 11  8 13  0 50 30.0000000  0  8G10G25G12G09G17G05G04G02
 -38742343.19547 -30171781.37245  20842559.8054                   20842558.6724
   2195490.64546   1731321.04343  24004074.1174                   24004075.3714
 -26786684.70347 -20855510.40846  21329010.2734                   21329008.8094
 -29889308.80946 -23271939.49843  23696138.0634                   23696140.3954
 -69670451.98447 -54260517.42944  23133180.4454                   23133180.1804
 -17764723.18447 -13825494.30245  21945348.4614                   21945348.7464
 -59428280.03147 -46288616.61345  21652388.9774                   21652388.2814
 -48046213.34847 -37420124.58646  20548994.0474                   20548991.0164
 11  8 13  0 51  0.0000000  0  8G10G25G12G09G17G05G04G02
 -38814525.52347 -30228027.35146  20828823.5704                   20828822.6334
   2025050.74246   1598510.78443  23971640.3754                   23971641.6094
 -26915774.18047 -20956099.61246  21304445.2974                   21304444.0704
 -29880915.12146 -23265399.02444  23697735.9304                   23697738.3794
 -69687974.58647 -54274171.42144  23129846.2974                   23129845.7504
 -17926446.39547 -13951512.31745  21914573.4694                   21914573.8524
 -59423124.45347 -46284599.32245  21653370.4144                   21653369.4494
 -48118125.07047 -37476159.68546  20535309.5164                   20535306.5274
 11  8 13  0 51 30.0000000  0  8G10G25G12G09G17G05G04G02
 -38885972.16047 -30283700.05645  20815227.8754                   20815226.9454
   1854900.92246   1465926.47343  23939262.1024                   23939263.0394
 -27044317.51247 -21056263.24546  21279984.1564                   21279983.3834
 -29872266.64546 -23258660.07044  23699381.5004                   23699383.6414
 -69705234.21147 -54287620.49544  23126561.8834                   23126561.5234
 -18087759.09047 -14077210.45145  21883876.6334                   21883876.2934
 -59417725.28147 -46280392.20645  21654397.3674                   21654396.9774
 -48189641.93047 -37531887.08846  20521700.1484                   20521697.0204
 11  8 13  0 52  0.0000000  0  8G10G25G12G09G17G05G04G02
 -38956680.18747 -30338797.22345  20801772.6564                   20801771.3914
   1685046.01647   1333572.01943  23906940.0234                   23906941.0824
 -27172310.28547 -21155997.85846  21255628.1884                   21255626.5664
 -29863364.44946 -23251723.46743  23701074.9614                   23701077.8014
 -69722228.26647 -54300862.60144  23123328.2894                   23123327.7034
 -18248655.84847 -14202584.46745  21853259.2194                   21853259.2814
 -59412082.00847 -46275994.87745  21655471.5164                   21655470.5124
 -48260762.46147 -37587305.67846  20508166.6884                   20508163.3164
 11  8 13  0 52 30.0000000  0  8G10G25G12G09G17G05G04G02
 -39026646.46947 -30393316.39046  20788458.5864                   20788457.4024
   1515491.69147   1201451.83843  23874675.0084                   23874676.2504
 -27299747.23447 -21255299.36846  21231377.9304                   21231376.3634
 -29854209.04346 -23244589.47843  23702818.1884                   23702820.6524
 -69738953.29347 -54313895.12844  23120145.7114                   23120145.0394
 -18409131.43747 -14327630.30245  21822721.5864                   21822721.7344
 -59406193.98847 -46271406.86145  21656591.9454                   21656591.2974
 -48331485.25847 -37642414.32446  20494708.4844                   20494705.1374
 11  8 13  0 53  0.0000000  0  8G10G25G12G09G17G05G04G02
 -39095875.35947 -30447260.96746  20775284.9774                   20775283.5314
   1346236.17647   1069564.42244  23842466.0784                   23842468.3834
 -27426630.52047 -21354169.46146  21207232.2734                   21207231.0664
 -29844808.20346 -23237264.24543  23704606.8834                   23704609.4654
 -69755412.77347 -54326720.70444  23117012.8834                   23117012.9924
 -18569187.33247 -14452349.09945  21792264.2814                   21792264.1604
 -59400067.30147 -46266632.85145  21657757.6094                   21657756.9144
 -48401815.65647 -37697217.21946  20481324.5704                   20481321.8324
 11  8 13  0 53 30.0000000  0  8G10G25G12G09G17G05G04G02
 -39164366.65647 -30500630.79846  20762250.9144                   20762250.1174
   1177282.03947    937911.86044  23810315.3204                   23810317.6804
 -27552957.60247 -21452606.13146  21183193.5084                   21183192.1564
 -29835165.32046 -23229750.41743  23706442.0004                   23706444.4064
 -69771606.76647 -54339339.42844  23113932.1334                   23113931.2114
 -18728820.43747 -14576738.45645  21761886.4694                   21761887.3714
 -59393704.10947 -46261674.56145  21658968.5164                   21658967.7034
 -48471754.91047 -37751715.33346  20468015.7974                   20468012.5044
 11  8 13  0 54  0.0000000  0  8G10G25G12G09G17G05G04G02
 -39232120.43747 -30553425.93146  20749357.7584                   20749357.2344
   1008631.91847    806496.22644  23778222.6024                   23778224.7934
 -27678726.76247 -21550608.06646  21159260.2344                   21159258.9774
 -29825283.68446 -23222050.48143  23708322.6954                   23708324.5124
 -69787534.59447 -54351750.75044  23110900.3984                   23110900.2544
 -18888028.10247 -14700796.30345  21731590.3284                   21731590.7774
 -59387106.28147 -46256533.40645  21660223.9384                   21660224.0704
 -48541304.14547 -37805909.52146  20454781.1254                   20454777.7664
 11  8 13  0 54 30.0000000  0  8G10G25G12G09G17G05G04G02
 -37723718.58647 -29378047.86545  21036397.3364                   21036395.9494
   2415709.88347   1902920.62944  24045980.2664                   24045982.9064
 -26228515.78947 -20420573.54746  21435226.1804                   21435225.2814
 -28239751.19546 -21986570.73943  24010039.5944                   24010042.4344
 -68227779.31247 -53136357.02244  23407712.3284                   23407712.2464
 -17471386.33647 -13596919.53445  22001167.9694                   22001168.1334
 -57804860.00447 -45023614.26345  21961315.6954                   21961315.6524
 -47035045.95347 -36632201.82946  20741412.3674                   20741409.0944
 11  8 13  0 55  0.0000000  0  8G10G25G12G09G17G05G04G02
 -37790000.13747 -29429695.81146  21023784.7034                   21023783.1094
   2247672.84447   1771982.79944  24014004.3054                   24014006.2074
 -26353165.47347 -20517703.17346  21411506.2424                   21411505.1954
 -28229405.45746 -21978509.13643  24012007.5944                   24012009.6524
 -68243176.05147 -53148354.50044  23404782.5004                   23404782.1604
 -17629737.48847 -13720309.97946  21971035.0164                   21971035.2194
 -57797801.37547 -45018114.05645  21962658.7114                   21962658.5044
 -47103820.86748 -36685792.65746  20728325.0944                   20728322.0314
 11  8 13  0 55 30.0000000  0  8G10G25G12G09G17G05G04G02
 -37855542.36347 -29480767.66345  21011311.6724                   21011311.0554
   2079949.35247   1641289.23044  23982086.6724                   23982089.1334
 -26477248.87548 -20614391.52846  21387894.3594                   21387892.7854
 -28218829.84846 -21970268.48943  24014020.7034                   24014022.9144
 -68258303.48447 -53160142.16644  23401904.1254                   23401904.0744
 -17787652.93447 -13843360.89845  21940984.6254                   21940984.3954
 -57790512.24647 -45012434.24845  21964045.7664                   21964045.4384
 -47172207.61748 -36739081.02146  20715311.8054                   20715308.4184
 11  8 13  0 56  0.0000000  0  8G10G25G12G09G17G05G04G02
 -37920347.60947 -29531265.25845  20998980.1174                   20998979.2974
   1912539.78947   1510840.31644  23950230.2344                   23950232.3014
 -26600765.63747 -20710638.35046  21364389.8284                   21364388.7424
 -28208029.60246 -21961852.84643  24016076.4064                   24016078.4224
 -68273163.30147 -53171721.28044  23399076.6334                   23399076.5634
 -17945132.33247 -13966072.04245  21911017.1174                   21911017.0394
 -57782996.99647 -45006578.23945  21965475.8444                   21965475.2704
 -47240209.43447 -36792069.44246  20702371.1174                   20702367.8444
 11  8 13  0 56 30.0000000  0  8G10G25G12G09G17G05G04G02
 -37984418.20347 -29581190.40046  20986787.9304                   20986787.0234
   1745444.53947   1380636.28844  23918432.8444                   23918435.3164
 -26723717.05947 -20806444.65546  21340992.7504                   21340991.0704
 -28197010.33646 -21953266.48043  24018172.8674                   24018174.9414
 -68287757.63347 -53183093.50644  23396298.8054                   23396299.0664
 -18102175.25847 -14088443.09145  21881132.5084                   21881132.8914
 -57775259.60947 -45000549.14045  21966948.0474                   21966947.7854
 -47307829.82847 -36844760.64346  20689503.3834                   20689500.1094
 11  8 13  0 57  0.0000000  0  8G10G25G12G09G17G05G04G02
 -38047754.17647 -29630543.09045  20974735.7424                   20974734.8244
   1578666.19947   1250679.22844  23886695.8674                   23886698.0984
 -26846100.43747 -20901808.30946  21317703.6804                   21317702.3524
 -28185775.57846 -21944512.09043  24020311.0634                   24020313.0234
 -68302085.93447 -53194258.50544  23393572.8364                   23393572.0554
 -18258778.77747 -14210471.75746  21851332.2814                   21851332.3204
 -57767301.95747 -44994348.40745  21968462.5784                   21968462.3324
 -47375069.67248 -36897155.32846  20676708.4454                   20676705.2544
 11  8 13  0 57 30.0000000  0  8G10G25G12G09G17G05G04G02
 -38110351.74647 -29679320.40345  20962823.5084                   20962822.4454
   1412211.36347   1120974.27344  23855020.7814                   23855022.4024
 -26967909.57447 -20996724.50246  21294524.3444                   21294522.9144
 -28174324.75846 -21935589.42143  24022488.9614                   24022491.6954
 -68316143.69947 -53205212.66644  23390897.4224                   23390897.2664
 -18414936.09047 -14332152.72046  21821616.2974                   21821616.3524
 -57759121.96147 -44987974.39945  21970019.4224                   21970018.7854
 -47441926.35548 -36949251.44246  20663985.9844                   20663982.1884
 11  8 13  0 58  0.0000000  0  8G10G25G12G09G17G05G04G02
 -38172211.82447 -29727523.05745  20951052.0864                   20951051.1644
   1246081.93846    991522.79844  23823407.1254                   23823408.6374
 -27089143.21147 -21091192.25646  21271454.3834                   21271453.1374
 -28162662.02346 -21926501.73043  24024709.1804                   24024711.4104
 -68329931.17647 -53215956.21144  23388273.6884                   23388274.0044
 -18570645.15647 -14453484.39946  21791986.1564                   21791985.8594
 -57750722.42247 -44981429.34145  21971618.0554                   21971617.2274
 -47508401.83647 -37001050.50746  20651335.9384                   20651332.5744
 11  8 13  0 58 30.0000000  0  8G10G25G12G09G17G05G04G02
 -38233338.44148 -29775154.15945  20939419.7344                   20939418.7464
   1080276.78547    862324.03544  23791855.2584                   23791856.9024
 -27209803.11347 -21185212.96046  21248493.8594                   21248492.0944
 -28150794.57046 -21917254.41743  24026967.3984                   24026969.4024
 -68343451.63746 -53226491.72644  23385700.8914                   23385701.3244
 -18725907.05147 -14574467.60645  21762440.0004                   21762440.3914
 -57742108.85947 -44974717.50045  21973257.0554                   21973256.6724
 -47574501.00847 -37052556.38146  20638757.2274                   20638754.2114
 11  8 13  0 59  0.0000000  0  8G10G25G12G09G17G05G04G02
 -38293733.25848 -29822215.06545  20927926.8834                   20927926.0044
    914797.02046    733378.82243  23760365.2344                   23760367.8244
 -27329888.59847 -21278786.04846  21225641.8984                   21225640.4144
 -28138727.11746 -21907851.34743  24029263.8674                   24029265.9924
 -68356706.30946 -53236820.08344  23383178.6804                   23383178.3674
 -18880720.76647 -14695101.61546  21732980.3674                   21732980.1254
 -57733284.58647 -44967841.46845  21974936.1254                   21974935.8014
 -47640226.57447 -37103771.10246  20626250.2584                   20626247.0314
 11  8 13  0 59 30.0000000  0  8G10G25G12G09G17G05G04G02
 -38353392.36748 -29868702.66745  20916574.1414                   20916573.1054
    749649.32846    604692.36743  23728938.7114                   23728941.7774
 -27449393.81648 -21371906.98146  21202900.9064                   21202899.9304
 -28126459.14146 -21898291.90443  24031598.2814                   24031600.9224
 -68369690.68747 -53246937.86144  23380707.9384                   23380708.0784
 -19035079.29747 -14815380.91945  21703607.0164                   21703606.6954
 -57724247.60547 -44960799.68645  21976655.8914                   21976656.0164
 -47705575.85248 -37154692.62346  20613815.2034                   20613811.8094
 11  8 13  1  0  0.0000000  0  8G10G25G12G09G17G05G04G02
 -38412318.71547 -29914619.29445  20905360.9694                   20905359.7814
    584833.82047    476264.73044  23697575.5864                   23697578.2234
 -27568318.84048 -21464575.80946  21180270.2194                   21180268.3444
 -28113996.46946 -21888580.82043  24033970.1954                   24033971.9654
 -68382406.73047 -53256846.49844  23378288.1804                   23378287.7934
 -19188982.60247 -14935305.52246  21674320.1954                   21674319.6564
 -57715002.21947 -44953595.50045  21978414.9304                   21978414.6994
 -47770551.95347 -37205323.34446  20601450.2114                   20601446.7854
 11  8 13  1  0 30.0000000  0  8G10G25G12G09G17G05G04G02
 -38470511.80547 -29959964.55246  20894287.1024                   20894286.6684
    420354.10247    348098.74944  23666276.2814                   23666278.4384
 -27686661.27348 -21556790.66946  21157750.2584                   21157748.8204
 -28101341.78546 -21878720.10043  24036378.2034                   24036380.8324
 -68394853.11747 -53266545.01544  23375919.7274                   23375919.4304
 -19342426.75047 -15054872.32646  21645120.4844                   21645120.7974
 -57705549.31647 -44946229.62745  21980213.8674                   21980213.5664
 -47835155.64847 -37255663.89646  20589156.6644                   20589153.5394
 11  8 13  1  1  0.0000000  0  8G10G25G12G09G17G05G04G02
 -38527970.04747 -30004737.20045  20883353.2734                   20883352.0864
    256214.11747    220197.47344  23635040.8284                   23635042.8674
 -27804417.44148 -21648548.71146  21135341.9844                   21135340.7734
 -28088496.64846 -21868710.97643  24038822.7034                   24038825.1724
 -68407028.26246 -53276032.17244  23373603.0634                   23373602.8324
 -19495407.99247 -15174078.43946  21616009.1644                   21616009.1294
 -57695889.41047 -44938702.43045  21982051.8134                   21982051.5164
 -47899386.43047 -37305713.85246  20576934.1804                   20576930.5434
 11  8 13  1  1 30.0000000  0  8G10G25G12G09G17G05G04G02
 -38584698.39547 -30048941.11545  20872558.3984                   20872557.1564
     92412.39547     92559.76344  23603870.9454                   23603872.3134
 -27921589.75047 -21739851.78446  21113044.9614                   21113043.8054
 -28075468.78946 -21858559.44343  24041302.3984                   24041304.5274
 -68418935.88746 -53285310.93544  23371336.7814                   23371336.3874
 -19647927.81647 -15292924.98746  21586985.3204                   21586985.1804
 -57686028.35247 -44931018.52445  21983928.6414                   21983929.0314
 -47963249.93447 -37355477.63946  20564781.3674                   20564777.5944
 11  8 13  1  2  0.0000000  0  8G10G25G12G09G17G05G04G02
 -38640698.98847 -30092577.93745  20861901.8364                   20861900.7034
    -71050.36347    -34813.83544  23572764.8834                   23572766.2384
 -28038177.87147 -21830699.65246  21090858.7584                   21090857.7814
 -28062263.43747 -21848269.64544  24043815.2664                   24043817.4104
 -68430577.34446 -53294382.20744  23369121.5474                   23369121.6094
 -19799985.49247 -15411411.43646  21558050.0474                   21558049.8244
 -57675970.25047 -44923181.05645  21985842.5084                   21985842.8014
 -48026749.05548 -37404957.47946  20552697.5864                   20552694.2734
 11  8 13  1  2 30.0000000  0  8G10G25G12G09G17G05G04G02
 -38695972.61747 -30135648.30945  20851383.2504                   20851382.8484
   -234171.64847   -161921.34644  23541724.0314                   23541725.6804
 -28154180.11747 -21921090.98246  21068784.5084                   21068783.1254
 -28048884.22346 -21837844.37843  24046361.0864                   24046363.3874
 -68441952.38746 -53303245.91944  23366957.3054                   23366956.7384
 -19951578.32847 -15529535.67046  21529202.7194                   21529202.3754
 -57665716.77347 -44915191.34945  21987793.8984                   21987793.3244
 -48089885.41847 -37454154.64346  20540683.2344                   20540679.9024
 11  8 13  1  3  0.0000000  0  8G10G25G12G09G17G05G04G02
 -38750521.71547 -30178154.09345  20841003.0474                   20841001.6484
   -396950.94147   -288762.33644  23510747.9694                   23510749.9494
 -28269596.36347 -22011025.69346  21046821.3984                   21046819.9024
 -28035336.33646 -21827287.64743  24048939.4694                   24048941.0634
 -68453062.86346 -53311903.44544  23364842.3914                   23364842.6134
 -20102705.53147 -15647297.06446  21500444.1254                   21500444.0084
 -57655271.74247 -44907052.38945  21989781.7194                   21989781.3094
 -48152662.17248 -37503071.60446  20528737.1254                   20528733.7934
 11  8 13  1  3 30.0000000  0  8G10G25G12G09G17G05G04G02
 -38804344.81247 -30220094.15545  20830760.7814                   20830760.0984
   -559383.24247   -415332.96244  23479838.0004                   23479839.7544
 -28384423.24647 -22100501.16946  21024970.6094                   21024968.8404
 -28021620.71146 -21816600.22543  24051548.8284                   24051551.6254
 -68463905.88746 -53320352.53944  23362779.4924                   23362779.5594
 -20253362.69147 -15764692.18946  21471775.1884                   21471775.1484
 -57644635.07847 -44898764.09845  21991805.1414                   21991805.4734
 -48215078.48447 -37551707.69346  20516859.7814                   20516856.5904
 11  8 13  1  4  0.0000000  0  8G10G25G12G09G17G05G04G02
 -38857443.10247 -30261469.44145  20820656.8134                   20820655.8754
   -721467.23046   -541632.09844  23448994.6094                   23448996.4414
 -28498659.52047 -22189516.42046  21003232.0944                   21003230.6604
 -28007742.03546 -21805785.77143  24054189.3914                   24054193.7154
 -68474482.62546 -53328594.17843  23360766.3134                   23360766.1374
 -20403548.16447 -15881719.76946  21443195.5164                   21443195.6844
 -57633809.47747 -44890328.57245  21993865.6884                   21993865.4384
 -48277136.32447 -37600064.45146  20505050.6884                   20505047.2504
 11  8 13  1  4 30.0000000  0  8G10G25G12G09G17G05G04G02
 -38909814.75047 -30302278.51946  20810690.6414                   20810689.5234
   -883197.36747   -667655.59844  23418218.2424                   23418220.0044
 -28612299.93047 -22278067.37046  20981607.2424                   20981605.7154
 -27993701.00446 -21794844.85543  24056862.5314                   24056865.2234
 -68484789.55546 -53336625.56544  23358805.2344                   23358805.1804
 -20553256.36347 -15998375.45646  21414707.1484                   21414706.6174
 -57622793.94547 -44881745.06445  21995961.9534                   21995962.0204
 -48338834.12148 -37648140.66646  20493309.8914                   20493306.4344
 11  8 13  1  5  0.0000000  0  8G10G25G12G09G17G05G04G02
 -38961467.10247 -30342527.10046  20800861.1254                   20800860.2584
  -1044577.91046   -793406.59444  23387508.0084                   23387510.5944
 -28725350.48847 -22366158.68646  20960094.2114                   20960092.7624
 -27979507.59846 -21783785.10343  24059562.9304                   24059566.2624
 -68494833.66046 -53344452.13244  23356894.3204                   23356893.8594
 -20702491.77747 -16114662.72746  21386308.2664                   21386308.1024
 -57611597.32447 -44873020.43445  21998092.6724                   21998092.8754
 -48400180.31648 -37695942.88946  20481636.2274                   20481632.9924
 11  8 13  1  5 30.0000000  0  8G10G25G12G09G17G05G04G02
 -39012396.20747 -30382212.10145  20791169.8054                   20791168.4454
  -1205601.74646   -918879.63144  23356866.3134                   23356869.3554
 -28837804.75047 -22453785.37446  20938694.7344                   20938693.5554
 -27965160.71946 -21772605.84543  24062294.2814                   24062296.2344
 -68504609.67646 -53352069.82244  23355033.9384                   23355034.1954
 -20851247.21147 -16230576.00946  21358001.4454                   21358001.1214
 -57600216.56647 -44864152.34744  22000258.2584                   22000258.0784
 -48461171.41848 -37743468.42646  20470030.0314                   20470026.2734
 11  8 13  1  6  0.0000000  0  8G10G25G12G09G17G05G04G02
 -37487186.01247 -29193736.61745  21081407.6884                   21081406.9064
    209154.03947    183527.54744  23626085.7814                   23626088.5944
 -27374241.94948 -21313346.81646  21217201.7664                   21217200.0394
 -26375249.12546 -20533713.78143  24364844.0084                   24364846.4654
 -66938702.19546 -52131882.16744  23653016.5314                   23653015.7424
 -19424100.27348 -15118513.39746  21629578.4924                   21629578.1214
 -56013238.96547 -43627546.43245  22302249.9924                   22302249.6334
 -46946391.75048 -36563120.63746  20758283.0474                   20758279.5784
 11  8 13  1  6 30.0000000  0  8G10G25G12G09G17G05G04G02
 -37536679.51247 -29232302.99246  21071989.5164                   21071988.7464
     48842.69546     58609.68144  23595579.1174                   23595582.2704
 -27485506.16048 -21400046.19946  21196028.9844                   21196027.0234
 -26360613.98446 -20522309.81243  24367629.1094                   24367631.5124
 -66947950.15646 -52139088.34344  23651256.6884                   23651256.0824
 -19571896.91848 -15233679.56046  21601453.0234                   21601453.4064
 -56001504.33247 -43618402.58344  22304483.0634                   22304483.0474
 -47006685.16848 -36610102.51946  20746808.5944                   20746806.0514
 11  8 13  1  7  0.0000000  0  8G10G25G12G09G17G05G04G02
 -37585455.86747 -29270310.53345  21062707.3364                   21062707.0084
   -111108.22747    -66027.32644  23565141.5704                   23565144.7304
 -27596172.53147 -21486279.72946  21174969.8674                   21174968.1174
 -26345839.54746 -20510797.35743  24370440.1254                   24370443.2464
 -66956932.92246 -52146087.90644  23649547.3594                   23649546.8284
 -19719209.91448 -15348468.84046  21573420.5234                   21573420.3874
 -55989595.26647 -43609122.82145  22306749.0554                   22306749.5394
 -47066631.35248 -36656813.82746  20735402.3594                   20735398.6214
 11  8 13  1  7 30.0000000  0  8G10G25G12G09G17G05G04G02
 -37633513.59847 -29307758.11145  21053562.6884                   21053561.6604
   -270694.00047   -190379.81844  23534773.6024                   23534775.3094
 -27706237.36747 -21572044.55046  21154025.2114                   21154023.4654
 -26330926.98046 -20499177.31743  24373277.6954                   24373280.7544
 -66965648.55946 -52152879.29944  23647888.7894                   23647887.9964
 -19866034.77748 -15462877.77346  21545480.7424                   21545480.4804
 -55977511.20347 -43599706.70344  22309049.1724                   22309048.4844
 -47126229.39848 -36703253.86046  20724060.4144                   20724057.8094
 11  8 13  1  8  0.0000000  0  8G10G25G12G09G17G05G04G02
 -37680856.99247 -29344649.05845  21044553.5164                   21044552.6604
   -429915.19947   -314448.25744  23504474.8444                   23504476.5164
 -27815701.84447 -21657341.54546  21133194.8134                   21133193.0554
 -26315882.62946 -20487454.56343  24376140.4844                   24376142.9964
 -66974100.04346 -52159464.87344  23646280.3834                   23646280.4884
 -20012372.25447 -15576906.92246  21517633.5944                   21517633.0704
 -55965257.29747 -43590158.19944  22311381.0704                   22311380.2894
 -47185483.70348 -36749426.04346  20712785.2274                   20712781.7384
 11  8 13  1  8 30.0000000  0  8G10G25G12G09G17G05G04G02
 -37727487.23447 -29380984.30845  21035680.0784                   21035679.1844
   -588769.42647   -438230.71644  23474246.4144                   23474248.0204
 -27924564.78948 -21742169.80946  21112478.6094                   21112477.1094
 -26300710.06646 -20475631.86043  24379027.6414                   24379030.9964
 -66982287.09046 -52165844.41044  23644722.4144                   23644721.9804
 -20158219.96948 -15690554.44246  21489879.7344                   21489879.3954
 -55952835.36347 -43580478.78144  22313744.6644                   22313744.3204
 -47244395.89548 -36795331.64446  20701574.8054                   20701571.4494
 11  8 13  1  9  0.0000000  0  8G10G25G12G09G17G05G04G02
 -37773406.02347 -29416765.18945  21026941.9924                   21026940.8444
   -747255.18047   -561726.07844  23444086.8364                   23444088.7894
 -28032825.35948 -21826528.69346  21091877.4384                   21091875.7584
 -26285413.62146 -20463712.64643  24381938.7664                   24381942.8164
 -66990210.19146 -52172018.22944  23643214.9384                   23643214.8484
 -20303576.43048 -15803819.15246  21462218.9694                   21462219.2344
 -55940248.20747 -43570670.65244  22316140.0164                   22316139.6724
 -47302968.40648 -36840972.54746  20690428.5554                   20690425.5984
 11  8 13  1  9 30.0000000  0  8G10G25G12G09G17G05G04G02
 -37818614.34447 -29451992.44545  21018339.1644                   21018338.1484
   -905370.08647   -684932.44444  23413998.3444                   23414000.5784
 -28140482.17248 -21910417.16546  21071390.9454                   21071389.3754
 -26269997.02346 -20451699.76943  24384872.9304                   24384876.0164
 -66997869.49646 -52177986.50844  23641756.7974                   23641756.9534
 -20448439.48848 -15916699.40046  21434652.5944                   21434652.2934
 -55927497.69947 -43560735.20045  22318565.9224                   22318565.7774
 -47361202.28548 -36886349.58646  20679346.8674                   20679344.1604
 11  8 13  1 10  0.0000000  0  8G10G25G12G09G17G05G04G02
 -37863114.37147 -29486667.78145  21009871.1174                   21009870.4224
  -1063112.50447   -807848.56144  23383981.0234                   23383983.0314
 -28247534.28948 -21993834.38146  21051019.3134                   21051018.1414
 -26254464.33246 -20439596.44243  24387828.9844                   24387831.1294
 -67005265.74646 -52183749.80544  23640349.5634                   23640349.9734
 -20592807.66847 -16029194.04346  21407179.8914                   21407179.8014
 -55914586.80147 -43550674.77644  22321023.5004                   22321022.3954
 -47419100.04748 -36931464.71946  20668329.3834                   20668325.9654
 11  8 13  1 10 30.0000000  0  8G10G25G12G09G17G05G04G02
 -37906902.94147 -29520788.74345  21001538.0394                   21001537.4224
  -1220476.08247   -930469.50044  23354035.7584                   23354037.6524
 -28353976.39848 -22076776.29946  21030764.4454                   21030762.8364
 -26238815.04346 -20427402.25243  24390806.8754                   24390809.1564
 -67012394.87146 -52189304.94943  23638993.0864                   23638993.1914
 -20736674.64848 -16141298.12946  21379803.0314                   21379802.6214
 -55901513.21947 -43540487.59545  22323510.5634                   22323510.7774
 -47476658.92248 -36976315.78146  20657376.3594                   20657373.2464
 11  8 13  1 11  0.0000000  0  8G10G25G12G09G17G05G04G02
 -37949987.44147 -29554361.06845  20993339.6334                   20993339.0904
  -1377464.30147  -1052798.00744  23324162.3284                   23324163.4534
 -28459813.03147 -22159246.36846  21010623.7894                   21010622.3134
 -26223058.53546 -20415124.52443  24393805.1884                   24393808.7544
 -67019262.80546 -52194656.61544  23637685.7974                   23637685.3244
 -20880044.15648 -16253014.56046  21352520.7034                   21352520.6414
 -55888284.59447 -43530179.58544  22326028.0314                   22326028.1644
 -47533886.57048 -37020908.74146  20646486.3054                   20646482.6024
 11  8 13  1 11 30.0000000  0  8G10G25G12G09G17G05G04G02
 -37992367.20347 -29587384.25245  20985274.8594                   20985274.0744
  -1534073.16846  -1174830.86044  23294360.3754                   23294361.4104
 -28565041.43448 -22241242.52746  20990599.8444                   20990598.3054
 -26207196.84846 -20402764.87043  24396823.3914                   24396827.0164
 -67025867.96946 -52199803.48044  23636428.7504                   23636429.1684
 -21022912.43748 -16364340.44446  21325333.8134                   21325333.4224
 -55874901.60547 -43519751.33444  22328574.8524                   22328575.1804
 -47590782.75048 -37065243.41646  20635659.2344                   20635655.9654
 11  8 13  1 12  0.0000000  0  8G10G25G12G09G17G05G04G02
 -38034040.37547 -29619856.85945  20977344.9614                   20977344.1524
  -1690297.30147  -1296563.90944  23264631.8444                   23264633.1454
 -28669657.02348 -22322761.17446  20970692.4694                   20970691.1094
 -26191230.27046 -20390323.37643  24399862.5474                   24399864.8324
 -67032207.18746 -52204743.04644  23635223.2894                   23635222.5704
 -21165274.23448 -16475271.65746  21298243.1254                   21298242.7934
 -55861362.69547 -43509201.53244  22331151.7274                   22331150.9024
 -47647345.91048 -37109318.60446  20624895.6414                   20624892.5984
 11  8 13  1 12 30.0000000  0  8G10G25G12G09G17G05G04G02
 -38075009.73447 -29651781.03545  20969548.9144                   20969547.4654
  -1846135.46947  -1417996.28644  23234976.5234                   23234978.8954
 -28773659.81248 -22403802.31246  20950901.3284                   20950900.1374
 -26175163.58246 -20377803.93843  24402919.4924                   24402922.3754
 -67038281.38746 -52209476.21343  23634066.7974                   23634066.9494
 -21307128.63748 -16585807.49746  21271249.0004                   21271248.4384
 -55847671.10947 -43498532.78644  22333757.0394                   22333756.6454
 -47703578.80948 -37153136.45246  20614194.8914                   20614191.8164
 11  8 13  1 13  0.0000000  0  8G10G25G12G09G17G05G04G02
 -38115278.98847 -29683159.67245  20961885.5234                   20961884.8634
  -2001588.05147  -1539128.13744  23205394.6094                   23205397.1454
 -28877050.88348 -22484366.78246  20931226.3524                   20931225.7424
 -26159002.97346 -20365211.29443  24405995.2424                   24405998.3134
 -67044093.43446 -52214005.06044  23632960.7974                   23632960.6374
 -21448475.98448 -16695948.24046  21244351.8444                   21244351.1484
 -55833831.59847 -43487748.76244  22336390.3444                   22336390.4844
 -47759485.52048 -37196700.10746  20603556.1094                   20603553.1914
 11  8 13  1 13 30.0000000  0  8G10G25G12G09G17G05G04G02
 -38154847.39847 -29713992.19245  20954355.9844                   20954355.2384
  -2156650.55547  -1659956.00344  23175887.3914                   23175890.0314
 -28979826.89848 -22564451.99746  20911668.8204                   20911667.6994
 -26142749.70746 -20352546.46143  24409086.9614                   24409091.2194
 -67049641.34846 -52218328.09243  23631904.6644                   23631904.7544
 -21589312.36348 -16805690.82046  21217551.4144                   21217550.8284
 -55819843.78947 -43476849.18744  22339051.7734                   22339052.3324
 -47815065.35948 -37240009.07046  20592979.6884                   20592976.4344
 11  8 13  1 14  0.0000000  0  8G10G25G12G09G17G05G04G02
 -38193719.28947 -29744281.98645  20946959.0394                   20946958.1054
  -2311323.71547  -1780480.53444  23146454.0084                   23146456.2734
 -29081989.75848 -22644059.41846  20892227.9454                   20892226.6994
 -26126410.25046 -20339814.48743  24412196.3204                   24412200.7584
 -67054927.94946 -52222447.49244  23630898.3054                   23630898.7624
 -21729638.31648 -16915035.66746  21190847.8134                   21190847.5084
 -55805712.69947 -43465837.98744  22341740.6254                   22341741.2424
 -47870323.12548 -37283067.05146  20582464.6334                   20582461.3444
 11  8 13  1 14 30.0000000  0  8G10G25G12G09G17G05G04G02
 -38231892.08647 -29774027.02445  20939694.9064                   20939693.8634
  -2465600.90647  -1900696.53644  23117096.7034                   23117098.6914
 -29183534.07848 -22723184.86046  20872904.5234                   20872903.1294
 -26109983.84046 -20327014.72243  24415322.8524                   24415325.7774
 -67059949.02046 -52226360.03943  23629943.0944                   23629942.6334
 -21869447.62548 -17023977.94146  21164243.1254                   21164243.0314
 -55791435.77347 -43454713.12744  22344458.0944                   22344458.2854
 -47925256.00048 -37325871.89346  20572011.2114                   20572008.3524
 11  8 13  1 15  0.0000000  0  8G10G25G12G09G17G05G04G02
 -38269369.13747 -29803229.91745  20932563.2974                   20932562.2154
  -2619482.02347  -2020603.85944  23087813.6724                   23087815.7504
 -29284460.28548 -22801828.65746  20853698.8674                   20853697.4884
 -26093476.16046 -20314151.62343  24418464.5864                   24418467.4454
 -67064707.00446 -52230067.53144  23629038.2814                   23629037.6844
 -22008740.21548 -17132517.56846  21137736.6334                   21137736.3914
 -55777017.00847 -43443477.75844  22347201.8284                   22347201.5124
 -47979867.35248 -37368426.17846  20561618.9614                   20561615.8674
 11  8 13  1 15 30.0000000  0  8G10G25G12G09G17G05G04G02
 -38306151.61747 -29831891.58845  20925563.5864                   20925562.8484
  -2772964.43447  -2140200.53944  23058607.1884                   23058608.9454
 -29384767.44948 -22879990.06346  20834611.4614                   20834610.1564
 -26076890.60946 -20301227.88543  24421620.7424                   24421623.6884
 -67069201.54746 -52233569.79543  23628182.2504                   23628182.6294
 -22147513.87148 -17240652.84146  21111329.0634                   21111328.2544
 -55762458.25447 -43432133.28644  22349972.9224                   22349972.2074
 -48034158.80548 -37410731.20646  20551288.0004                   20551284.1804
 11  8 13  1 16  0.0000000  0  8G10G25G12G09G17G05G04G02
 -38342240.27347 -29860012.60645  20918696.2034                   20918695.4224
  -2926044.96947  -2259484.03644  23029476.4534                   23029478.5744
 -29484453.47348 -22957667.48246  20815641.4384                   20815640.4264
 -26060229.44946 -20288245.20143  24424790.6024                   24424793.9384
 -67073431.71146 -52236865.99143  23627377.6804                   23627377.9964
 -22285765.80948 -17348381.56546  21085020.3444                   21085019.8484
 -55747760.28147 -43420680.33844  22352769.4454                   22352769.3164
 -48088130.66048 -37452787.18346  20541016.8444                   20541013.9184
 11  8 13  1 16 30.0000000  0  8G10G25G12G09G17G05G04G02
 -38377637.19547 -29887594.61645  20911960.7274                   20911959.8364
  -3078721.94147  -2378453.09544  23000423.1024                   23000425.7814
 -29583517.60948 -23034860.29646  20796790.3284                   20796789.0044
 -26043496.85246 -20275206.87843  24427974.5084                   24427978.0204
 -67077398.38746 -52239956.88544  23626623.0394                   23626622.7894
 -22423494.97348 -17455702.94146  21058811.6414                   21058810.8324
 -55732925.61347 -43409120.84144  22355592.5164                   22355591.7114
 -48141785.31248 -37494595.98646  20530806.4224                   20530803.8094
 11  8 13  1 17  0.0000000  0  8G10G25G12G09G17G05G04G02
 -38412345.27747 -29914639.87645  20905355.2974                   20905354.8444
  -3230994.39147  -2497106.92944  22971446.5864                   22971449.0744
 -29681960.16448 -23111568.76346  20778057.8444                   20778056.1214
 -26026697.62546 -20262116.61043  24431171.1174                   24431176.0164
 -67081102.72346 -52242843.41344  23625918.6174                   23625918.1214
 -22560700.10948 -17562615.98746  21032702.1024                   21032701.6094
 -55717957.54747 -43397457.43544  22358440.7974                   22358440.5664
 -48195125.56248 -37536159.80746  20520656.3364                   20520653.4574
 11  8 13  1 17 30.0000000  0  8G10G25G12G09G17G05G04G02
 -36870946.49647 -28713549.91045  21198674.2114                   21198673.3794
  -1807436.36347  -1387840.91344  23242340.5634                   23242342.7034
 -28204358.32848 -21960190.68646  21059235.4844                   21059233.8324
 -24434417.20746 -19021378.71143  24734172.7814                   24734176.0234
 -65509126.48846 -51017926.87044  23925055.3834                   23925055.4734
 -21121956.20347 -16441516.79246  21306485.8134                   21306485.0124
 -54127439.72747 -42158092.91244  22661106.4534                   22661106.1024
 -46672732.54348 -36349879.52046  20810358.0864                   20810355.4844
 11  8 13  1 18  0.0000000  0  8G10G25G12G09G17G05G04G02
 -36904281.94547 -28739525.57345  21192330.6334                   21192329.9844
  -1958893.10547  -1505859.13544  23213519.9304                   23213521.3204
 -28301554.68047 -22035928.07046  21040739.9844                   21040737.9494
 -24417495.28546 -19008192.91443  24737393.5634                   24737395.8674
 -65512306.98046 -51020405.15344  23924449.9534                   23924449.6954
 -21258107.94948 -16547609.00146  21280577.0944                   21280576.1644
 -54112210.20747 -42146225.79344  22664003.3984                   22664003.8054
 -46725448.67248 -36390957.01746  20800326.7814                   20800323.7424
 11  8 13  1 18 30.0000000  0  8G10G25G12G09G17G05G04G02
 -36936933.85547 -28764968.61145  21186117.4774                   21186116.5164
  -2109938.73447  -1623557.02144  23184776.5634                   23184778.3674
 -28398126.49248 -22111178.81246  21022362.7734                   21022361.0744
 -24400517.37146 -18994963.45343  24740623.6254                   24740627.7034
 -65515225.99646 -51022679.75844  23923895.1954                   23923894.0864
 -21393730.41848 -16653288.81746  21254768.6484                   21254768.4024
 -54096853.02047 -42134259.16444  22666926.4774                   22666926.4734
 -46777855.21148 -36431793.27846  20790354.1564                   20790350.9454
 11  8 13  1 19  0.0000000  0  8G10G25G12G09G17G05G04G02
 -36968901.26247 -28789878.25545  21180034.2424                   21180033.1804
  -2260568.59846  -1740930.90644  23156112.7344                   23156114.6054
 -28494070.21547 -22185940.13146  21004105.4694                   21004104.0474
 -24383484.60246 -18981691.20343  24743865.2584                   24743868.7154
 -65517881.30146 -51024748.80444  23923389.5704                   23923389.2344
 -21528818.93448 -16758552.53046  21229062.3984                   21229061.8674
 -54081367.47347 -42122192.51544  22669873.5004                   22669873.7464
 -46829951.44148 -36472387.73546  20780440.3054                   20780437.5004
 11  8 13  1 19 30.0000000  0  8G10G25G12G09G17G05G04G02
 -37000188.87947 -28814258.21445  21174080.2034                   21174078.8404
  -2410783.46147  -1857981.45044  23127527.8134                   23127529.3554
 -28589388.37548 -22260213.99246  20985966.8444                   20985965.3554
 -24366403.23046 -18968381.17243  24747115.1884                   24747119.5944
 -65520275.61346 -51026614.56344  23922934.1174                   23922933.7464
 -21663374.73048 -16863401.16146  21203457.2734                   21203456.7734
 -54065758.37947 -42110029.61444  22672843.8594                   22672843.5864
 -46881741.77348 -36512743.81846  20770585.1804                   20770582.4414
 11  8 13  1 20  0.0000000  0  8G10G25G12G09G17G05G04G02
 -37030798.62947 -28838109.96045  21168255.1254                   21168254.7664
  -2560581.09847  -1974706.85644  23099022.3984                   23099023.8524
 -28684079.68447 -22333999.39746  20967947.3364                   20967946.5514
 -24349276.93446 -18955036.04643  24750374.5474                   24750378.5354
 -65522409.40646 -51028277.31143  23922527.9064                   23922527.5124
 -21797396.17248 -16967833.40146  21177954.0704                   21177953.3834
 -54050027.69147 -42097771.98444  22675837.0084                   22675836.8984
 -46933227.77048 -36552862.76946  20760787.7664                   20760784.6174
 11  8 13  1 20 30.0000000  0  8G10G25G12G09G17G05G04G02
 -37060726.57847 -28861430.41045  21162559.8984                   21162559.3444
  -2709953.98447  -2091101.27644  23070597.6174                   23070599.1414
 -28778137.80148 -22407291.41646  20950049.0634                   20950047.1994
 -24332103.54345 -18941654.34943  24753642.9844                   24753646.6604
 -65524277.27346 -51029732.78444  23922172.5704                   23922172.2894
 -21930876.08248 -17071843.66546  21152553.3984                   21152552.9924
 -54034171.82447 -42085416.74744  22678854.4224                   22678853.6374
 -46984405.65648 -36592741.63946  20751048.8054                   20751046.0864
 11  8 13  1 21  0.0000000  0  8G10G25G12G09G17G05G04G02
 -37089975.70747 -28884221.92145  21156994.1254                   21156993.1024
  -2858900.82847  -2207163.72144  23042253.8204                   23042255.2344
 -28871562.94948 -22480090.23446  20932270.7114                   20932269.0554
 -24314887.78146 -18928239.57143  24756918.4694                   24756922.3134
 -65525880.64846 -51030982.20243  23921867.2974                   23921866.7154
 -22063813.21948 -17175430.99446  21127256.1334                   21127255.9344
 -54018193.44947 -42072966.06244  22681895.0634                   22681894.2154
 -47035278.03548 -36632382.44846  20741368.1174                   20741365.5004
 11  8 13  1 21 30.0000000  0  8G10G25G12G09G17G05G04G02
 -37118550.03147 -28906487.61345  21151556.8444                   21151555.7934
  -3007421.31647  -2322893.95044  23013991.6414                   23013992.9024
 -28964356.31648 -22552396.73146  20914612.6724                   20914611.2894
 -24297634.89545 -18914795.87443  24760201.3834                   24760206.1054
 -65527221.50846 -51032027.14143  23921611.8754                   23921611.9264
 -22196207.85948 -17278595.61446  21102062.2664                   21102061.9184
 -54002096.48447 -42060423.00744  22684958.0314                   22684958.5594
 -47085848.55148 -36671788.04846  20731744.6724                   20731741.9024
 11  8 13  1 22  0.0000000  0  8G10G25G12G09G17G05G04G02
 -37146449.95347 -28928227.77845  21146247.4844                   21146246.5864
  -3155512.08247  -2438289.34944  22985810.7734                   22985812.3364
 -29056515.17248 -22624208.82046  20897075.2974                   20897074.1374
 -24280346.90645 -18901324.79742  24763492.4614                   24763494.8164
 -65528298.84046 -51032866.64743  23921406.9924                   23921407.1174
 -22328057.11748 -17381335.24846  21076972.0164                   21076971.5634
 -53985881.34447 -42047787.87044  22688044.2114                   22688044.3164
 -47136117.41848 -36710958.57946  20722179.2504                   20722176.0984
 11  8 13  1 22 30.0000000  0  8G10G25G12G09G17G05G04G02
 -37173680.08647 -28949446.05545  21141065.8284                   21141064.7894
  -3303173.67247  -2553350.27844  22957711.2504                   22957713.2154
 -29148042.49248 -22695528.79846  20879658.3524                   20879657.0554
 -24263030.07445 -18887831.23842  24766787.5554                   24766791.0514
 -65529115.64146 -51033503.12944  23921251.5314                   23921251.2584
 -22459361.87948 -17483650.60146  21051985.2814                   21051984.9414
 -53969552.56647 -42035064.14844  22691151.1804                   22691151.3054
 -47186089.26248 -36749897.67446  20712669.5394                   20712666.7544
 11  8 13  1 23  0.0000000  0  8G10G25G12G09G17G05G04G02
 -37200242.95747 -28970144.38045  21136011.0234                   21136010.2384
  -3450404.27347  -2668075.43244  22929694.3524                   22929695.8324
 -29238937.28947 -22766355.89546  20862362.1884                   20862360.3984
 -24245688.19945 -18874318.18843  24770087.6414                   24770090.5164
 -65529672.48046 -51033937.03444  23921146.7814                   23921145.7704
 -22590120.91448 -17585540.71046  21027103.1884                   21027102.4964
 -53953112.43047 -42022253.67844  22694279.8364                   22694279.5514
 -47235765.53548 -36788606.44646  20703216.7034                   20703213.6524
 11  8 13  1 23 30.0000000  0  8G10G25G12G09G17G05G04G02
 -37226136.28147 -28990320.99745  21131083.6884                   21131082.9774
  -3597197.83647  -2782459.99444  22901760.4144                   22901762.7854
 -29329194.73048 -22836686.35646  20845186.1334                   20845184.5514
 -24228320.82046 -18860785.21942  24773391.8204                   24773395.3634
 -65529965.70346 -51034165.54744  23921090.0234                   23921090.1374
 -22720328.27748 -17687000.95146  21002325.2424                   21002324.6764
 -53936558.67647 -42009354.69244  22697429.6644                   22697429.3834
 -47285144.02048 -36827083.18746  20693820.2194                   20693817.3094
 11  8 13  1 24  0.0000000  0  8G10G25G12G09G17G05G04G02
 -37251365.53147 -29009980.14045  21126282.6174                   21126282.2384
  -3743555.43447  -2896504.85444  22873909.9694                   22873911.4574
 -29418817.32848 -22906522.13646  20828131.8284                   20828129.6094
 -24210934.71546 -18847237.66842  24776700.3984                   24776704.0864
 -65529998.73446 -51034191.32843  23921083.3754                   23921083.5164
 -22849985.71148 -17788032.65346  20977652.3444                   20977651.7114
 -53919896.49647 -41996371.19244  22700600.4614                   22700599.7584
 -47334229.60948 -36865331.67046  20684479.4534                   20684476.4264
 11  8 13  1 24 30.0000000  0  8G10G25G12G09G17G05G04G02
 -37275932.06647 -29029122.91145  21121607.7814                   21121606.8874
  -3889474.39547  -3010207.90444  22846141.6724                   22846144.2734
 -29507803.90648 -22975862.31646  20811197.6174                   20811196.6334
 -24193532.57845 -18833677.52742  24780012.7034                   24780015.0904
 -65529771.34846 -51034014.14644  23921126.4924                   23921127.2274
 -22979091.03548 -17888634.17746  20953084.2344                   20953083.4734
 -53903127.03547 -41983304.11444  22703792.0314                   22703791.3794
 -47383023.23448 -36903352.66746  20675194.2974                   20675191.3134
 11  8 13  1 25  0.0000000  0  8G10G25G12G09G17G05G04G02
 -37299839.06247 -29047751.72945  21117058.3754                   21117057.8404
  -4034953.61347  -3123568.28944  22818458.1254                   22818459.6884
 -29596154.89148 -23044707.22946  20794385.3984                   20794383.6844
 -24176118.91046 -18820108.49642  24783326.1884                   24783330.0234
 -65529284.77346 -51033635.04044  23921219.5394                   23921219.9104
 -23107643.77348 -17988805.08746  20928621.3914                   20928620.6134
 -53886253.16047 -41970155.67144  22707003.0784                   22707002.7584
 -47431527.86348 -36941148.46546  20665964.3204                   20665961.2344
 11  8 13  1 25 30.0000000  0  8G10G25G12G09G17G05G04G02
 -37323089.41447 -29065868.89045  21112634.1254                   21112633.2774
  -4179991.81647  -3236585.03944  22790858.4614                   22790859.6054
 -29683870.21548 -23113056.83546  20777693.4534                   20777691.7544
 -24158698.03145 -18806533.80142  24786641.2974                   24786644.5434
 -65528539.94146 -51033054.62844  23921361.0004                   23921361.4614
 -23235642.89848 -18088544.61846  20904264.3204                   20904263.3984
 -53869277.34047 -41956927.78944  22710233.0704                   22710232.9454
 -47479745.66048 -36978720.75446  20656788.8754                   20656785.9024
 11  8 13  1 26  0.0000000  0  8G10G25G12G09G17G05G04G02
 -37345684.66047 -29083475.56545  21108333.8594                   21108333.5944
  -4324586.10247  -3349255.89945  22763342.1484                   22763344.8594
 -29770948.94148 -23180910.36746  20761123.3754                   20761121.6884
 -24141272.33646 -18792955.36742  24789957.1094                   24789960.5124
 -65527536.91846 -51032273.08843  23921552.3134                   23921552.5204
 -23363086.04348 -18187850.91446  20880012.2584                   20880011.5664
 -53852200.52747 -41943621.18744  22713483.2034                   22713482.9694
 -47527677.64848 -37016070.34446  20647667.4224                   20647664.6134
 11  8 13  1 26 30.0000000  0  7G10G25G12G17G05G04G02
 -37367625.18447 -29100572.07245  21104159.3674                   21104158.1214
  -4468732.98047  -3461578.13345  22735912.5474                   22735914.7974
 -29857388.93748 -23248266.19746  20744674.1724                   20744672.7344
 -65526274.18746 -51031289.17443  23921792.6484                   23921792.8794
 -23489970.50848 -18286721.86746  20855866.9224                   20855866.1484
 -53835023.18447 -41930236.27444  22716751.2734                   22716751.5164
 -47575323.64548 -37053197.07546  20638600.7734                   20638597.9844
 11  8 13  1 27  0.0000000  0  7G10G25G12G17G05G04G02
 -37388914.57847 -29117161.20445  21100108.2114                   21100107.0434
  -4612431.77047  -3573551.18245  22708567.2274                   22708570.0354
 -29943191.02748 -23315124.96646  20728346.9924                   20728344.9534
 -65524753.59446 -51030104.38843  23922081.6804                   23922081.9264
 -23616295.87147 -18385157.18346  20831828.0084                   20831827.4304
 -53817748.42647 -41916775.47244  22720038.1804                   22720038.4844
 -47622686.87148 -37090103.47746  20629587.8984                   20629584.7384
 11  8 13  1 27 30.0000000  0  7G10G25G12G17G05G04G02
 -37409539.33647 -29133232.44645  21096183.4224                   21096182.3404
  -4755664.69947  -3685161.21045  22681311.4924                   22681313.6604
 -30028338.77747 -23381473.84046  20712143.1884                   20712141.7704
 -65522960.02046 -51028706.81043  23922423.2894                   23922422.8524
 -23742044.78547 -18483143.28746  20807898.8524                   20807898.0434
 -53800362.30147 -41903227.85244  22723347.3364                   22723347.1844
 -47669753.39848 -37126778.68746  20620631.1564                   20620628.3874
 11  8 13  1 28  0.0000000  0  7G10G25G12G17G05G04G02
 -37429495.99647 -29148783.07445  21092385.9694                   21092384.7814
  -4898423.99247  -3796402.19745  22654145.0944                   22654147.1914
 -30112825.68747 -23447307.79846  20696066.0864                   20696064.4414
 -65520887.72347 -51027092.03443  23922818.2194                   23922817.9964
 -23867210.26248 -18580674.78946  20784080.6564                   20784079.8284
 -53782860.83247 -41889590.36544  22726678.1254                   22726677.7304
 -47716518.84448 -37163219.28946  20611732.2344                   20611729.3284
 11  8 13  1 28 30.0000000  0  7G10G25G12G17G05G04G02
 -37448788.61347 -29163816.28945  21088714.3204                   21088713.1374
  -5040709.33647  -3907273.85444  22627069.0394                   22627070.8444
 -30196653.53548 -23512628.19446  20680114.1564                   20680112.4734
 -65518538.94546 -51025261.82643  23923264.1414                   23923265.2154
 -23991792.44948 -18677751.75346  20760373.1884                   20760372.5084
 -53765247.56647 -41875865.79244  22730029.4774                   22730028.8094
 -47762986.87548 -37199428.14146  20602889.5784                   20602886.7194
 11  8 13  1 29  0.0000000  0  7G10G25G12G17G05G04G02
 -37467419.69947 -29178334.00445  21085169.1254                   21085168.2624
  -5182519.36347  -4017775.13944  22600082.9384                   22600084.9224
 -30279822.43047 -23577435.12846  20664287.9304                   20664286.0824
 -65515914.71546 -51023217.04543  23923763.7274                   23923763.5084
 -24115790.58247 -18774373.61746  20736777.4224                   20736776.4024
 -53747524.82847 -41862055.85744  22733401.6804                   22733401.4414
 -47809159.62948 -37235406.89946  20594103.0784                   20594100.6254
 11  8 13  1 29 30.0000000  0  7G10G25G12G17G05G04G02
 -35909975.50847 -27964741.11945  21381540.9454                   21381539.9534
  -3748431.65647  -2900304.17445  22872981.5164                   22872982.6844
 -28786913.58248 -22414129.52246  20948378.6254                   20948377.3524
 -63937599.78146 -49793361.24143  24224106.9924                   24224107.3244
 -22663783.31647 -17642939.33746  21013085.0634                   21013084.2034
 -52154279.27047 -40620565.83944  23036586.0554                   23036586.3914
 -46279621.75047 -36043559.21846  20885164.4924                   20885161.5514
 11  8 13  1 30  0.0000000  0  7G10G25G12G17G05G04G02
 -35927298.71547 -27978239.71445  21378244.1174                   21378243.5354
  -3889292.77047  -3010066.05345  22846175.7734                   22846178.2934
 -28868771.12148 -22477914.62046  20932801.5864                   20932800.5474
 -63934433.61746 -49790894.14743  24224709.9844                   24224710.0594
 -22786616.60548 -17738653.53346  20989710.7584                   20989709.6564
 -52136350.63747 -40606595.48344  23039998.3914                   23039998.0394
 -46325216.66048 -36079087.71446  20876488.1884                   20876484.9264
 11  8 13  1 30 30.0000000  0  7G10G25G12G17G05G04G02
 -35943976.18447 -27991235.13445  21375070.2814                   21375069.4104
  -4029681.00447  -3119459.46745  22819461.1724                   22819463.3324
 -28949976.78947 -22541191.76046  20917348.9384                   20917347.4884
 -63931001.83246 -49788220.08243  24225362.9844                   24225362.3054
 -22908869.86348 -17833915.75746  20966446.6254                   20966445.6954
 -52118325.87547 -40592550.18144  23043428.3754                   23043428.0944
 -46370529.59047 -36114396.49746  20867865.4224                   20867862.3954
 11  8 13  1 31  0.0000000  0  7G10G25G12G17G05G04G02
 -35960011.00447 -28003729.78745  21372019.5394                   21372018.3674
  -4169595.11347  -3228483.40844  22792836.3984                   22792839.0904
 -29030531.07848 -22603961.33046  20902019.7734                   20902018.7424
 -63927305.40646 -49785339.78343  24226066.4694                   24226066.7894
 -23030542.70748 -17928725.71546  20943292.8834                   20943292.2774
 -52100207.46947 -40578431.91344  23046875.7114                   23046875.8204
 -46415562.83647 -36149487.35146  20859295.7114                   20859292.6954
 11  8 13  1 31 30.0000000  0  7G10G25G12G17G05G04G02
 -35975408.84047 -28015728.09545  21369088.7664                   21369088.1884
  -4309036.37547  -3337138.90045  22766301.8754                   22766303.2194
 -29110437.20748 -22666225.84946  20886814.2034                   20886812.9804
 -63923347.89146 -49782256.04143  24226819.6094                   24226819.3134
 -23151637.08648 -18023084.92446  20920249.1724                   20920248.6454
 -52082000.79347 -40564244.91144  23050340.6884                   23050340.4344
 -46460321.43447 -36184364.19046  20850778.7034                   20850775.9304
 11  8 13  1 32  0.0000000  0  7G10G25G12G17G05G04G02
 -35990168.75847 -28027229.34445  21366280.5164                   21366279.5664
  -4447999.49647  -3445421.80744  22739857.7274                   22739859.7814
 -29189691.09848 -22727982.12346  20871732.8834                   20871731.4614
 -63919126.60946 -49778966.73143  24227622.6024                   24227622.3364
 -23272148.23848 -18116989.67146  20897317.0394                   20897316.4924
 -52063703.98047 -40549987.66144  23053822.2584                   23053822.1564
 -46504803.73048 -36219025.73846  20842313.8054                   20842311.1724
 11  8 13  1 32 30.0000000  0  7G10G25G12G17G05G04G02
 -36004294.00447 -28038236.02545  21363592.3984                   21363591.5554
  -4586483.28947  -3553331.19245  22713504.9304                   22713507.4384
 -29268293.27748 -22789230.57046  20856775.8674                   20856774.0274
 -63914642.74646 -49775472.84143  24228475.3914                   24228475.4344
 -23392075.44548 -18210439.39046  20874494.9534                   20874494.3984
 -52045319.67646 -40535662.23244  23057321.1484                   23057320.5394
 -46549011.77748 -36253473.57546  20833901.5634                   20833898.6564
 11  8 13  1 33  0.0000000  0  7G10G25G12G17G05G04G02
 -36017784.62147 -28048748.19545  21361025.5554                   21361024.7584
  -4724483.72347  -3660863.93645  22687245.0164                   22687246.6094
 -29346241.66048 -22849969.56246  20841942.1644                   20841940.9964
 -63909894.49246 -49771772.94143  24229379.3524                   24229379.7344
 -23511415.54748 -18303431.63846  20851785.8834                   20851784.9654
 -52026847.14847 -40521268.06744  23060836.3134                   23060836.0634
 -46592945.57048 -36287707.69846  20825541.2894                   20825537.6604
 11  8 13  1 33 30.0000000  0  7G10G25G12G17G05G04G02
 -36030646.43447 -28058770.39045  21358577.6094                   21358576.9064
  -4862002.00847  -3768020.97045  22661075.3284                   22661077.4144
 -29423539.38748 -22910201.55346  20827233.0084                   20827231.6914
 -63904885.59846 -49767869.95943  24230332.7894                   24230333.0234
 -23630170.43748 -18395967.86446  20829187.5704                   20829186.4534
 -52008291.41446 -40506809.05043  23064367.3754                   23064367.0664
 -46636609.59847 -36321731.62046  20817232.2584                   20817228.8524
 11  8 13  1 34  0.0000000  0  7G10G25G12G17G05G04G02
 -36042881.14147 -28068303.93645  21356249.9224                   21356248.7154
  -4999035.15647  -3874800.00645  22634998.9534                   22635000.2504
 -29500184.98448 -22969925.39646  20812647.5164                   20812646.3954
 -63899615.60246 -49763763.49143  24231335.8364                   24231336.0554
 -23748337.62547 -18488046.15146  20806701.0234                   20806700.1214
 -51989652.92247 -40492285.49644  23067914.1884                   23067914.0944
 -46680004.40247 -36355545.76046  20808974.6174                   20808971.5164
 11  8 13  1 34 30.0000000  0  7G10G25G12G17G05G04G02
 -36054492.18047 -28077351.49945  21354040.1484                   21354039.2894
  -5135582.41447  -3981200.42445  22609015.1334                   22609016.2304
 -29576179.24648 -23029141.70046  20798186.5164                   20798184.9804
 -63894085.77346 -49759454.64743  24232387.6094                   24232387.8244
 -23865917.28148 -18579666.62146  20784326.4534                   20784325.3244
 -51970934.49646 -40477699.70044  23071475.5704                   23071476.1994
 -46723132.70348 -36389152.24346  20800767.1884                   20800764.6484
 11  8 13  1 35  0.0000000  0  7G10G25G12G17G05G04G02
 -36065481.99247 -28085914.97945  21351948.8674                   21351948.4534
  -5271641.85947  -4087220.72345  22583123.6724                   22583125.3364
 -29651522.11748 -23087850.41246  20783849.1484                   20783847.7814
 -63888296.96146 -49754943.94043  24233489.3834                   24233489.3244
 -23982907.94547 -18670828.13446  20762063.5944                   20762063.0904
 -51952137.76246 -40463052.89943  23075052.2114                   23075053.1054
 -46765996.19548 -36422552.35846  20792610.4924                   20792608.0904
 11  8 13  1 35 30.0000000  0  7G10G25G12G17G05G04G02
 -36075855.01247 -28093997.84845  21349974.5554                   21349974.2664
  -5407213.40647  -4192860.82645  22557325.3364                   22557326.9344
 -29726215.46548 -23146053.00946  20769635.3134                   20769634.0984
 -63882251.41446 -49750233.11143  24234640.2504                   24234640.2774
 -24099310.34447 -18761531.26546  20739913.0164                   20739912.5004
 -51933266.20746 -40448347.75743  23078643.7664                   23078643.2624
 -46808598.23847 -36455748.76646  20784504.0634                   20784500.7344
 11  8 13  1 36  0.0000000  0  7G10G25G12G17G05G04G02
 -36085614.67647 -28101602.77845  21348118.1884                   21348116.5474
  -5542295.81647  -4298119.79945  22531620.0234                   22531621.4924
 -29800259.72747 -23203749.82646  20755545.5704                   20755543.7424
 -63875950.10546 -49745323.05143  24235839.6334                   24235840.2304
 -24215124.03548 -18851775.63946  20717874.2194                   20717873.6954
 -51914322.03146 -40433586.13043  23082248.3914                   23082248.4534
 -46850941.12947 -36488743.21546  20776446.1804                   20776443.5044
 11  8 13  1 36 30.0000000  0  8G10G25G12G29G17G05G04G02
 -36094764.17647 -28108732.26245  21346376.2974                   21346375.6254
  -5676888.01647  -4402996.82645  22506007.8984                   22506008.6954
 -29873655.45747 -23260941.29946  20741578.7664                   20741577.0984
  13965639.24256  10898804.91753  24618663.3834                   24618663.1804
 -63869394.35946 -49740214.70243  24237087.4304                   24237087.4534
 -24330348.55148 -18941560.93546  20695947.6254                   20695947.0704
 -51895307.75046 -40418769.78943  23085867.2344                   23085866.6914
 -46893027.32047 -36521537.65046  20768437.6804                   20768434.6884
 11  8 13  1 37  0.0000000  0  8G10G25G12G29G17G05G04G02
 -36103315.95347 -28115395.96745  21344749.3134                   21344748.3284
  -5810997.78947  -4507497.88245  22480487.3834                   22480488.7384
 -29946412.60947 -23317635.17546  20727733.5634                   20727731.9614
  13822177.43846  10787016.47343  24591363.4224                   24591363.5354
 -63862594.51246 -49734916.13643  24238380.8834                   24238380.0394
 -24444992.43048 -19030893.77546  20674131.5864                   20674130.9614
 -51876234.37146 -40403907.42744  23089497.1024                   23089496.3954
 -46934867.99647 -36554140.76446  20760475.3754                   20760472.4924
 11  8 13  1 37 30.0000000  0  8G10G25G12G29G17G05G04G02
 -36111281.35547 -28121602.77745  21343233.4454                   21343232.8244
  -5944632.18747  -4611628.54845  22455057.6884                   22455059.0904
 -30018539.89547 -23373838.25646  20714007.9304                   20714006.6564
  13678691.85546  10675209.54742  24564059.2814                   24564058.3524
 -63855560.03946 -49729434.79343  24239719.8984                   24239719.2034
 -24559063.73847 -19119780.46646  20652424.7814                   20652423.6564
 -51857112.51246 -40389007.25143  23093135.2344                   23093135.3284
 -46976473.59047 -36586560.69446  20752558.2194                   20752555.1454
 11  8 13  1 38  0.0000000  0  8G10G25G12G29G17G05G04G02
 -36118661.41047 -28127353.45945  21341829.1954                   21341828.1484
  -6077787.84447  -4715386.17545  22429718.8364                   22429720.7504
 -30090036.04348 -23429549.53046  20700402.8524                   20700401.2664
  13535184.13746  10563385.44743  24536750.0234                   24536749.5274
 -63848289.76646 -49723769.62743  24241102.5634                   24241102.8874
 -24672559.66447 -19208218.78846  20630827.0554                   20630826.1134
 -51837942.16046 -40374069.35044  23096783.3754                   23096783.6884
 -47017844.38747 -36618797.67046  20744685.6094                   20744682.4104
 11  8 13  1 38 30.0000000  0  8G10G25G12G29G17G05G04G02
 -36125454.23447 -28132646.55445  21340536.5234                   21340535.3134
  -6210458.16047  -4818765.60745  22404472.5634                   22404474.7544
 -30160895.82847 -23484764.95046  20686918.6954                   20686917.0124
  13391659.22746  10451547.87343  24509438.2344                   24509438.4654
 -63840779.66446 -49717917.67343  24242532.2734                   24242532.3554
 -24785474.20748 -19296204.10146  20609340.2114                   20609339.2704
 -51818720.35246 -40359091.28544  23100441.7814                   23100441.7114
 -47058976.98847 -36650849.04346  20736858.3594                   20736855.1374
 11  8 13  1 39  0.0000000  0  8G10G25G12G29G17G05G04G02
 -36131663.10247 -28137484.61445  21339355.1024                   21339353.5784
  -6342642.08647  -4921766.05945  22379318.7274                   22379320.5984
 -30231120.32047 -23539485.32046  20673555.2814                   20673553.6994
  13248116.00846  10339696.06743  24482122.9304                   24482122.6524
 -63833030.82846 -49711879.63443  24244007.0864                   24244007.0944
 -24897807.30948 -19383736.34546  20587963.7664                   20587962.8874
 -51799449.18746 -40344074.82644  23104108.7274                   23104108.2304
 -47099873.71947 -36682716.60346  20729076.2814                   20729072.7274
 11  8 13  1 39 30.0000000  0  8G10G25G12G29G17G05G04G02
 -36137284.99647 -28141865.30745  21338285.2194                   21338284.1644
  -6474332.13347  -5024381.63845  22354259.0314                   22354260.8954
 -30300703.77347 -23593706.17746  20660314.0634                   20660312.6844
  13104560.52746  10227834.67643  24454804.5864                   24454804.3134
 -63825038.15246 -49705651.63043  24245527.8134                   24245527.7114
 -25009552.19548 -19470810.23946  20566699.1564                   20566698.3914
 -51780124.48046 -40329016.60043  23107785.7344                   23107785.1914
 -47140530.41047 -36714397.14146  20721339.3984                   20721336.0594
 11  8 13  1 40  0.0000000  0  8G10G25G12G29G17G05G04G02
 -36142324.79347 -28145792.42245  21337326.1254                   21337324.9184
  -6605528.60547  -5126612.64445  22329293.1484                   22329294.9494
 -30369649.03148 -23647429.75246  20647194.1254                   20647192.7774
  12960990.49646  10115961.88643  24427484.9454                   24427485.1524
 -63816804.52346 -49699235.86943  24247095.0234                   24247094.5234
 -25120710.09047 -19557426.73146  20545546.7504                   20545545.9534
 -51760749.89546 -40313919.57043  23111472.4534                   23111471.9964
 -47180951.09847 -36745893.76046  20713647.3674                   20713644.1254
 11  8 13  1 40 30.0000000  0  8G10G25G12G29G17G05G04G02
 -36146783.88747 -28149267.02045  21336477.5474                   21336476.4924
  -6736228.06647  -5228456.34345  22304421.8204                   22304423.4064
 -30437954.26247 -23700654.59846  20634196.3364                   20634194.5784
  12817407.90646  10004079.39243  24400161.3204                   24400163.0354
 -63808328.62146 -49692631.25343  24248707.5474                   24248707.6604
 -25231278.31648 -19643583.75046  20524506.5394                   20524505.5274
 -51741325.48046 -40298783.64543  23115169.2034                   23115168.8674
 -47221135.65248 -36777206.38546  20706000.4844                   20705997.6914
 11  8 13  1 41  0.0000000  0  8G10G25G12G29G17G05G04G02
 -36150662.27047 -28152289.14645  21335739.5554                   21335738.6764
  -6866426.10947  -5329909.30645  22279646.1254                   22279648.2814
 -30505616.77348 -23753378.61946  20621320.5784                   20621318.8364
  12673815.47746   9892189.17843  24372836.3834                   24372837.7344
 -63799608.32046 -49685836.16743  24250366.9454                   24250367.5984
 -25341253.27748 -19729278.48346  20503578.7504                   20503577.7234
 -51721850.02746 -40283607.94843  23118875.0164                   23118875.0704
 -47261082.55148 -36808333.81646  20698398.6804                   20698395.7774
 11  8 13  1 41 30.0000000  0  8G10G25G12G29G17G05G04G02
 -36153967.22747 -28154864.40745  21335110.3834                   21335110.0784
  -6996125.47747  -5430973.70645  22254965.0394                   22254966.7704
 -30572641.41048 -23805605.59246  20608566.2814                   20608564.5394
  12530208.75446   9780287.80543  24345509.5084                   24345510.9064
 -63790649.12146 -49678854.97043  24252071.5394                   24252071.8554
 -25450638.60248 -19814513.75446  20482762.8284                   20482761.8914
 -51702329.51646 -40268397.18643  23122589.8594                   23122590.0634
 -47300798.10548 -36839280.97446  20690841.1644                   20690838.2344
 11  8 13  1 42  0.0000000  0  8G10G25G12G29G17G05G04G02
 -34581276.66047 -26929391.22045  21634383.8284                   21634382.8094
  -5549895.27747  -4304041.02345  22530173.1484                   22530174.8204
 -29063601.34047 -22629730.18546  20895726.5944                   20895725.6764
  13962017.16846  10895982.65443  24617973.3204                   24617974.4384
 -62206027.07446 -48444084.47243  24553615.3834                   24553615.0354
 -23984004.85548 -18671682.21946  20761854.0634                   20761853.0354
 -50107341.19146 -39025549.15343  23426105.6564                   23426106.1024
 -45764857.84048 -35642444.37546  20983121.2034                   20983117.8594
 11  8 13  1 42 30.0000000  0  8G10G25G12G29G17G05G04G02
 -34583433.16447 -26931071.61345  21633973.4454                   21633972.1334
  -5678582.10247  -4404316.42845  22505684.8834                   22505687.0664
 -29129340.83648 -22680955.75846  20883216.9774                   20883215.4694
  13818391.66846  10784066.71543  24590642.3054                   24590643.3834
 -62196581.62946 -48436724.38243  24555412.9224                   24555412.8954
 -24092198.19948 -18755988.67446  20741265.7814                   20741264.7814
 -50087724.96146 -39010263.82643  23429838.3674                   23429838.3134
 -45804105.45747 -35673026.90546  20975652.6644                   20975649.1604
 11  8 13  1 43  0.0000000  0  8G10G25G12G29G17G05G04G02
 -34585019.83247 -26932307.97745  21633671.0704                   21633670.1484
  -5806760.28147  -4504195.46545  22481293.7814                   22481295.2234
 -29194438.10948 -22731680.89546  20870829.6884                   20870827.7704
  13674756.93446  10672143.58643  24563309.8284                   24563310.8244
 -62186894.14546 -48429175.64443  24557256.0084                   24557255.6804
 -24199794.25048 -18839829.71746  20720791.1024                   20720790.0664
 -50068063.13746 -38994942.91943  23433579.8054                   23433580.0784
 -45843121.71548 -35703429.17346  20968227.8364                   20968224.4304
 11  8 13  1 43 30.0000000  0  8G10G25G12G29G17G05G04G02
 -34586043.22347 -26933105.40345  21633476.4454                   21633475.6764
  -5934431.83647  -4603679.75245  22456998.5314                   22456999.7894
 -29258897.67248 -22781909.12146  20858562.6564                   20858561.4774
  13531109.05546  10560210.25643  24535974.7584                   24535975.3594
 -62176968.97746 -48421441.57243  24559144.7504                   24559144.1564
 -24306796.42248 -18923207.99246  20700429.0784                   20700428.1724
 -50048361.29346 -38979590.84643  23437329.7344                   23437329.2734
 -45881911.98447 -35733655.33146  20960846.0704                   20960843.1644
 11  8 13  1 44  0.0000000  0  8G10G25G12G29G17G05G04G02
 -34586502.04747 -26933462.93645  21633389.0944                   21633388.4144
  -6061590.87547  -4702764.68845  22432800.6564                   22432802.1024
 -29322715.51248 -22831637.29246  20846418.8674                   20846417.1724
  13387452.68846  10448270.27043  24508637.2034                   24508638.2274
 -62166802.66846 -48413519.66743  24561079.9144                   24561079.0434
 -24413199.30948 -19006119.29146  20680180.9224                   20680180.4884
 -50028616.48046 -38964205.29343  23441086.8984                   23441086.2234
 -45920473.25447 -35763703.05246  20953508.6254                   20953504.7074
 11  8 13  1 44 30.0000000  0  8G10G25G12G29G17G05G04G02
 -34586396.02747 -26933380.32845  21633409.8134                   21633408.0084
  -6188232.53147  -4801446.44145  22408701.1334                   22408702.7734
 -29385888.94548 -22880863.33246  20834397.2974                   20834395.5594
  13243790.81646  10336326.05643  24481299.6724                   24481300.5314
 -62156392.61746 -48405407.99943  24563059.5634                   24563059.8204
 -24518999.19948 -19088560.71746  20660047.9694                   20660047.1524
 -50008827.03546 -38948784.95843  23444852.3834                   23444852.7074
 -45958804.17648 -35793571.26046  20946214.2274                   20946210.6134
 11  8 13  1 45  0.0000000  0  8G10G25G12G29G17G05G04G02
 -34585729.19547 -26932860.70945  21633536.7504                   21633535.3554
  -6314356.22747  -4899724.59345  22384700.9844                   22384702.4654
 -29448419.27348 -22929588.26046  20822498.1564                   20822496.5394
  13100122.78546  10224377.01743  24453960.4694                   24453960.9884
 -62145740.46146 -48397107.56843  24565086.5784                   24565086.9494
 -24624196.18747 -19170532.37246  20640029.7344                   20640028.8134
 -49988995.45746 -38933331.83843  23448627.0554                   23448626.4064
 -45996906.97348 -35823261.73546  20938963.2504                   20938960.0044
 11  8 13  1 45 30.0000000  0  7G10G25G12G29G05G04G02
 -34584503.63747 -26931905.74845  21633769.1094                   21633768.6054
  -6439959.50047  -4997597.22845  22360799.6414                   22360800.8874
 -29510305.43448 -22977811.21746  20810721.7114                   20810720.1454
  12956449.41046  10112423.86143  24426620.1724                   24426621.3954
 -24728788.68048 -19252032.97746  20620126.2584                   20620125.3954
 -49969122.10546 -38917846.08843  23452408.6884                   23452407.5314
 -46034782.64848 -35852775.22146  20931756.0164                   20931752.4964
 11  8 13  1 46  0.0000000  0  7G10G25G12G29G05G04G02
 -34582720.00047 -26930515.87645  21634108.8594                   21634107.8984
  -6565038.57047  -5095061.40545  22336997.8914                   22336998.9264
 -29571546.66048 -23025531.64146  20799067.9304                   20799066.1604
  12812773.19146  10000468.37943  24399279.5474                   24399280.9414
 -24832774.02348 -19333060.46946  20600338.7584                   20600337.8794
 -49949206.64146 -38902327.53143  23456197.9774                   23456197.5944
 -46072430.62148 -35882111.28146  20924591.7584                   20924587.8984
 11  8 13  1 46 30.0000000  0  7G10G25G12G29G05G04G02
 -34580374.52347 -26928688.22645  21634554.8754                   21634553.8984
  -6689585.27747  -5192110.73345  22313297.1724                   22313298.6054
 -29632136.78548 -23072744.70746  20787537.7664                   20787536.4574
  12669100.41446   9888515.69343  24371939.5944                   24371940.7504
 -24936144.83248 -19413609.11746  20580668.0084                   20580667.2034
 -49929243.71946 -38886772.02043  23459996.9844                   23459996.5354
 -46109845.95348 -35911266.06546  20917471.5314                   20917468.4734
 11  8 13  1 47  0.0000000  0  7G10G25G12G29G05G04G02
 -34577463.82047 -26926420.13845  21635109.4924                   21635107.7114
  -6813591.43047  -5288738.87345  22289699.2584                   22289701.0554
 -29692069.23448 -23119445.29346  20776132.8984                   20776131.3284
  12525437.92646   9776570.89843  24344601.2504                   24344601.8874
 -25038894.02048 -19493673.38246  20561115.2194                   20561114.0944
 -49909228.22346 -38871175.55843  23463805.1724                   23463805.0004
 -46147023.38348 -35940235.46946  20910397.3914                   20910393.6024
 11  8 13  1 47 30.0000000  0  7G10G25G12G29G05G04G02
 -34573995.63747 -26923717.65245  21635769.1884                   21635768.3284
  -6937060.08647  -5384948.17345  22266204.5394                   22266205.5784
 -29751349.33247 -23165637.56046  20764852.7344                   20764851.0784
  12381781.35246   9664630.74243  24317264.0704                   24317264.7424
 -25141025.36348 -19573256.19446  20541680.1484                   20541679.3134
 -49889166.28246 -38855542.87844  23467623.7664                   23467623.5824
 -46183969.31248 -35969024.48146  20903366.6254                   20903363.2384
 11  8 13  1 48  0.0000000  0  7G10G25G12G29G05G04G02
 -34569969.42647 -26920580.34345  21636535.5394                   21636534.0634
  -7059986.46947  -5480734.92245  22242812.0394                   22242813.5204
 -29809974.62948 -23211319.58146  20753696.6484                   20753695.0554
  12238134.12946   9552697.95443  24289929.6024                   24289929.0744
 -25242535.28148 -19652354.77546  20522363.7424                   20522362.4264
 -49869055.91046 -38839872.48543  23471450.0474                   23471450.3404
 -46220681.89148 -35997631.69146  20896380.6334                   20896377.1454
 11  8 13  1 48 30.0000000  0  7G10G25G12G29G05G04G02
 -34565393.24247 -26917014.49145  21637406.0944                   21637405.1914
  -7182373.94947  -5576101.75245  22219522.7894                   22219524.3634
 -29867950.33648 -23256495.43246  20742664.0864                   20742662.2894
  12094491.61746   9440768.66443  24262594.5704                   24262595.4144
 -25343428.20348 -19730972.57046  20503164.2814                   20503163.1994
 -49848903.38346 -38824169.24943  23475285.3674                   23475285.1024
 -46257167.52748 -36026062.02546  20889437.0084                   20889433.8984
 11  8 13  1 49  0.0000000  0  7G10G25G12G29G05G04G02
 -34560272.31247 -26913024.13545  21638380.1644                   21638379.6724
  -7304223.29347  -5671049.25145  22196335.0234                   22196336.4734
 -29925279.77347 -23301167.69146  20731754.7034                   20731753.2194
  11950851.50046   9328841.34143  24235260.3134                   24235261.5004
 -25443705.59448 -19809110.74546  20484082.0314                   20484081.1214
 -49828712.39146 -38808435.98443  23479126.7734                   23479127.6174
 -46293430.04347 -36054318.52546  20882536.9064                   20882533.4384
 11  8 13  1 49 30.0000000  0  7G10G25G12G29G05G04G02
 -34554611.60947 -26908613.19445  21639457.7584                   21639456.5044
  -7425534.57447  -5765577.49845  22173250.5474                   22173252.0864
 -29981965.02348 -23345337.99246  20720968.1644                   20720966.1684
  11807212.60546   9216914.91643  24207926.9064                   24207927.6724
 -25543368.59447 -19886770.17846  20465116.9144                   20465115.8594
 -49808486.17646 -38792675.27444  23482975.9384                   23482976.7344
 -46329472.62947 -36082403.66046  20875678.2344                   20875674.6484
 11  8 13  1 50  0.0000000  0  7G10G25G12G29G05G04G02
 -34548417.54747 -26903786.63745  21640636.1024                   21640635.0864
  -7546309.84847  -5859688.06145  22150267.7584                   22150269.4184
 -30038010.09848 -23389009.44646  20710302.7974                   20710300.9964
  11663571.42246   9104986.82743  24180593.1484                   24180594.4384
 -25642420.41048 -19963953.38746  20446267.9534                   20446266.5984
 -49788229.35546 -38776890.74944  23486831.1884                   23486831.1724
 -46365300.06248 -36110321.13846  20868860.5554                   20868857.1954
 11  8 13  1 50 30.0000000  0  7G10G25G12G29G05G04G02
 -34541689.78547 -26898544.22045  21641916.6174                   21641915.4304
  -7666544.35947  -5953377.28045  22127387.7814                   22127389.5744
 -30093412.41848 -23432180.06546  20699760.0864                   20699758.3524
  11519931.60546   8993059.75843  24153259.6254                   24153260.5704
 -25740857.22748 -20040657.35846  20427535.8134                   20427534.6334
 -49767940.15246 -38761081.01544  23490692.0704                   23490691.8244
 -46400910.84847 -36138069.79246  20862083.9694                   20862080.5514
 11  8 13  1 51  0.0000000  0  7G10G25G12G29G05G04G02
 -34534433.49247 -26892889.97545  21643297.3444                   21643296.7384
  -7786238.63347  -6046645.54845  22104610.6724                   22104612.3524
 -30148174.42647 -23474851.74346  20689338.8134                   20689337.7974
  11376291.27346   8881132.31744  24125925.9774                   24125926.6024
 -25838680.59448 -20116883.32346  20408920.8204                   20408919.7344
 -49747621.76446 -38745248.56144  23494558.6954                   23494557.9844
 -46436308.31647 -36165652.24546  20855347.6564                   20855344.2624
 11  8 13  1 51 30.0000000  0  7G10G25G12G29G05G04G02
 -34526650.89847 -26886825.61445  21644778.5084                   21644777.6884
  -7905390.38747  -6139491.03945  22081937.1094                   22081939.0664
 -30202296.90247 -23517025.08346  20679039.8754                   20679038.2624
  11232651.44946   8769205.30444  24098592.1884                   24098592.6024
 -25935889.14847 -20192630.22446  20390422.6804                   20390421.2074
 -49727274.82046 -38729393.75344  23498430.0784                   23498430.8984
 -46471493.41447 -36193069.19446  20848652.1884                   20848648.6054
 11  8 13  1 52  0.0000000  0  7G10G25G12G29G05G04G02
 -34518343.29747 -26880352.15645  21646359.6024                   21646357.9924
  -8023996.26647  -6231911.18845  22059366.4224                   22059368.4304
 -30255778.26647 -23558698.86546  20668862.9304                   20668861.1954
  11089014.21946   8657280.23044  24071258.4844                   24071259.3054
 -26032480.36347 -20267896.07346  20372041.6724                   20372040.8164
 -49706898.67246 -38713516.23543  23502307.2734                   23502307.9024
 -46506465.34847 -36220320.04846  20841997.6484                   20841994.0474
 11  8 13  1 52 30.0000000  0  7G10G25G12G29G05G04G02
 -34509516.27347 -26873473.93844  21648039.3914                   21648037.8714
  -8142057.29747  -6323906.78545  22036900.3204                   22036902.2074
 -30308621.53948 -23599875.45446  20658807.2194                   20658805.2074
  10945377.41846   8545355.54144  24043925.1254                   24043925.8984
 -26128456.66847 -20342682.77446  20353777.8134                   20353777.0784
 -49686497.00046 -38697618.79443  23506190.3674                   23506189.8134
 -46541228.37147 -36247408.12846  20835382.2734                   20835378.8954
 11  8 13  1 53  0.0000000  0  7G10G25G12G29G05G04G02
 -34500177.34447 -26866196.85845  21649816.5394                   21649815.0164
  -8259576.44547  -6415480.13345  22014537.4304                   22014539.5664
 -30360832.16848 -23640559.04846  20648871.3754                   20648869.6294
  10801737.13346   8433428.09944  24016591.2344                   24016592.7934
 -26223822.13347 -20416993.52846  20335630.3834                   20335629.4304
 -49666075.50846 -38681705.96743  23510075.8444                   23510076.3444
 -46575788.06247 -36274337.75646  20828805.6724                   20828801.9924
 11  8 13  1 53 30.0000000  0  7G10G25G12G29G05G04G02
 -34490325.79747 -26858520.32045  21651690.8834                   21651689.5824
  -8376548.54347  -6506627.20045  21992278.4534                   21992280.1334
 -30412407.03948 -23680747.25146  20639057.1804                   20639055.5664
  10658097.32446   8321501.08344  23989257.2734                   23989258.2234
 -26318572.32848 -20490824.82646  20317600.1644                   20317599.0004
 -49645631.74246 -38665775.72343  23513966.5554                   23513966.5864
 -46610142.15247 -36301107.18546  20822268.3984                   20822264.9574
 11  8 13  1 54  0.0000000  0  7G10G25G12G29G05G04G02
 -34479965.60247 -26850447.45045  21653662.3284                   21653660.9774
  -8492973.08647  -6597347.62545  21970123.2504                   21970124.8794
 -30463347.95348 -23720441.48346  20629363.8984                   20629362.1374
  10514457.63746   8209574.14744  23961923.5944                   23961924.0944
 -26412707.90648 -20564177.20846  20299687.1414                   20299685.4224
 -49625167.96146 -38649829.93243  23517860.3134                   23517860.5634
 -46644293.02747 -36327718.26546  20815769.9844                   20815766.7304
 11  8 13  1 54 30.0000000  0  7G10G25G12G29G05G04G02
 -32893678.48447 -25614379.58445  21955522.5944                   21955521.9304
  -7033423.00447  -5460035.88245  22247867.1644                   22247868.3134
 -28938232.28147 -22532039.66846  20919583.5704                   20919581.7734
  11946244.70746   9325252.41843  24234383.2344                   24234383.3754
 -24930803.45747 -19409446.44146  20581684.0004                   20581682.8794
 -48029264.13346 -37406268.52343  23821550.3914                   23821550.6844
 -45102819.10947 -35126569.75846  21109102.5864                   21109099.4574
 11  8 13  1 55  0.0000000  0  7G10G25G12G29G05G04G02
 -32882306.71947 -25605518.46545  21957687.0784                   21957685.6954
  -7148744.61747  -5549896.88945  22225921.6724                   22225923.6604
 -28987904.21948 -22570745.06346  20910131.3134                   20910129.3554
  11802609.39846   9213328.85643  24207050.2194                   24207050.9344
 -25023705.20747 -19481837.38646  20564005.3984                   20564004.0744
 -48008759.95346 -37390291.28243  23825452.4614                   23825452.6644
 -45136564.00847 -35152864.48246  21102681.2504                   21102677.7704
 11  8 13  1 55 30.0000000  0  7G10G25G12G29G05G04G02
 -32870436.21147 -25596268.72745  21959945.7194                   21959944.3404
  -7263514.95347  -5639328.32745  22204081.6024                   22204083.4844
 -29036945.01648 -22608958.68146  20900798.8754                   20900797.4024
  11658974.49246   9101405.58143  24179717.3834                   24179718.0514
 -25115991.92247 -19553749.08546  20546443.7114                   20546442.2544
 -47988239.77046 -37374301.49543  23829357.8984                   23829357.7424
 -45170110.22747 -35179004.39846  21096297.3674                   21096294.3364
 11  8 13  1 56  0.0000000  0  7G10G25G12G29G05G04G02
 -32858068.67647 -25586631.70745  21962298.8594                   21962298.8054
  -7377731.18448  -5728327.97445  22182347.3054                   22182348.9574
 -29085354.62548 -22646680.46446  20891586.9614                   20891585.3094
  11515341.89546   8989484.09643  24152385.7734                   24152386.0704
 -25207661.97347 -19625180.26246  20528999.4534                   20528998.1254
 -47967703.49646 -37358299.20843  23833265.5784                   23833265.2974
 -45203457.96947 -35204989.64946  21089951.7194                   21089948.2544
 11  8 13  1 56 30.0000000  0  7G10G25G12G29G05G04G02
 -32845211.98047 -25576613.52345  21964745.9924                   21964744.7304
  -7491396.82847  -5816898.59645  22160717.2504                   22160719.0784
 -29133138.73848 -22683914.84146  20882493.5784                   20882492.4144
  11371707.14546   8877560.87943  24125053.2584                   24125052.7464
 -25298719.75447 -19696134.36046  20511671.8134                   20511670.5004
 -47947156.79346 -37342288.78143  23837175.1804                   23837175.8134
 -45236613.06247 -35230824.78846  21083642.4774                   21083638.9344
 11  8 13  1 57  0.0000000  0  7G10G25G12G29G05G04G02
 -32831857.38747 -25566207.34045  21967287.1484                   21967286.1454
  -7604498.69147  -5905029.88845  22139194.9064                   22139195.9884
 -29180286.46148 -22720653.32546  20873522.2894                   20873520.6024
  11228082.66446   8765645.76743  24097720.6804                   24097721.7854
 -25389153.14148 -19766601.89146  20494462.5394                   20494461.7624
 -47926589.05146 -37326261.94343  23841089.0474                   23841088.8164
 -45269565.31647 -35256501.84946  21077371.7974                   21077368.3794
 11  8 13  1 57 30.0000000  0  7G10G25G12G29G05G04G02
 -32818015.93747 -25555421.80645  21969920.9614                   21969920.1914
  -7717043.24248  -5992726.94145  22117778.0634                   22117779.3404
 -29226806.15648 -22756902.43646  20864669.7274                   20864667.9694
  11084460.83646   8653732.63943  24070390.7194                   24070391.3874
 -25478969.96547 -19836588.99646  20477371.1484                   20477370.2194
 -47906009.30146 -37310225.76643  23845004.9384                   23845005.5204
 -45302323.84447 -35282027.95946  21071138.0004                   21071134.7344
 11  8 13  1 58  0.0000000  0  7G10G25G12G29G05G04G02
 -32803690.54747 -25544259.14545  21972646.8834                   21972645.7234
  -7829029.13348  -6079988.65245  22096467.6564                   22096469.0744
 -29272699.37948 -22792663.39046  20855936.4844                   20855935.2114
  10940842.04746   8541821.87743  24043062.1954                   24043061.7034
 -25568169.81648 -19906095.34646  20460397.0554                   20460395.7344
 -47885418.62946 -37294181.06343  23848923.6414                   23848924.2074
 -45334889.92647 -35307404.11046  21064940.8444                   21064937.3634
 11  8 13  1 58 30.0000000  0  7G10G25G12G29G05G04G02
 -32788881.57047 -25532719.70145  21975464.7114                   21975463.8244
  -7940451.96948  -6166811.60845  22075264.7814                   22075266.6214
 -29317963.88748 -22827934.44146  20847322.8834                   20847321.4534
  10797230.57846   8429916.83743  24015733.6724                   24015733.2504
 -25656749.59048 -19975118.52446  20443540.7974                   20443539.6884
 -47864815.21146 -37278126.44943  23852845.0004                   23852843.7234
 -45367261.61347 -35332628.78946  21058780.7504                   21058777.5514
 11  8 13  1 59  0.0000000  0  7G10G25G12G29G05G04G02
 -32773597.44147 -25520809.97445  21978373.6484                   21978372.1294
  -8051315.72748  -6253198.93745  22054168.1334                   22054169.8164
 -29362605.86348 -22862720.39746  20838827.8364                   20838826.4184
  10653620.75846   8318013.09143  23988405.9534                   23988404.8554
 -25744714.15248 -20043662.30346  20426801.6094                   20426800.4614
 -47844205.00046 -37262066.55343  23856766.7114                   23856766.8914
 -45399445.59847 -35357707.18946  21052656.4384                   21052652.9844
 11  8 13  1 59 30.0000000  0  7G10G25G12G29G05G04G02
 -32757836.62947 -25508528.82744  21981372.9614                   21981371.1054
  -8161614.71948  -6339146.16445  22033179.0704                   22033180.5704
 -29406621.64148 -22897018.40846  20830451.4844                   20830450.2584
  10510018.56646   8206115.30643  23961079.0864                   23961078.7974
 -25832059.20748 -20111723.33946  20410180.5314                   20410179.2194
 -47823584.89846 -37245998.94743  23860690.5394                   23860690.4414
 -45431438.60547 -35382636.79246  21046567.9534                   21046565.0664
 11  8 13  2  0  0.0000000  0  7G10G25G12G29G05G04G02
 -32741602.49247 -25495878.85445  21984461.7424                   21984460.6604
  -8271347.97348  -6424652.55145  22012297.5554                   22012299.2894
 -29450012.97748 -22930829.84446  20822194.6564                   20822193.2424
  10366423.16046   8094222.79244  23933753.6724                   23933754.4064
 -25918784.77748 -20179301.66646  20393676.9144                   20393676.1994
 -47802956.31247 -37229924.73043  23864616.0164                   23864616.1134
 -45463242.35947 -35407418.92246  21040516.3524                   21040512.8984
 11  8 13  2  0 30.0000000  0  7G10G25G12G29G05G04G02
 -32724900.01647 -25482863.94045  21987640.2584                   21987639.3244
  -8380515.64148  -6509718.22345  21991523.1954                   21991525.1094
 -29492782.17647 -22964156.48746  20814056.3524                   20814054.3054
  10222834.07046   7982335.23843  23906429.8524                   23906430.3834
 -26004892.14548 -20246398.27146  20377291.2974                   20377290.0354
 -47782321.58646 -37213845.69143  23868542.3524                   23868542.5084
 -45494859.58247 -35432055.70246  21034499.6564                   21034496.4414
 11  8 13  2  1  0.0000000  0  7G10G25G12G29G05G04G02
 -32707729.83247 -25469484.57345  21990907.7974                   21990906.6414
  -8489114.12148  -6594340.35945  21970857.9064                   21970859.0744
 -29534928.35248 -22996997.64946  20806035.9534                   20806034.6024
  10079254.07346   7870454.81244  23879106.9694                   23879107.6334
 -26090378.96948 -20313011.31946  20361023.5234                   20361022.3484
 -47761679.53146 -37197761.00243  23872470.8204                   23872470.8954
 -45526289.32847 -35456546.38646  21028518.8524                   21028515.7194
 11  8 13  2  1 30.0000000  0  7G10G25G12G29G05G04G02
 -32690094.34447 -25455742.63845  21994263.7114                   21994263.5124
  -8597141.16448  -6678517.21845  21950300.9454                   21950302.5514
 -29576451.44548 -23029353.31946  20798134.1724                   20798132.6564
   9935685.05946   7758582.85143  23851786.8754                   23851786.8134
 -26175244.35948 -20379140.13646  20344874.1254                   20344872.8634
 -47741029.98846 -37181670.49743  23876400.1564                   23876400.3134
 -45557531.55948 -35480890.97146  21022573.2584                   21022570.3634
 11  8 13  2  2  0.0000000  0  7G10G25G12G29G05G04G02
 -32671993.79747 -25441638.33245  21997708.1024                   21997707.2934
  -8704593.30148  -6762246.07645  21929853.7194                   21929854.9964
 -29617349.69548 -23061222.06446  20790351.4924                   20790350.2504
   9792129.91846   7646721.74244  23824469.1644                   23824469.3834
 -26259485.71548 -20444782.70046  20328843.8284                   20328842.1954
 -47720371.75846 -37165573.19243  23880331.3284                   23880331.4184
 -45588585.35947 -35505088.71046  21016664.6174                   21016661.0354
 11  8 13  2  2 30.0000000  0  7G10G25G12G29G05G04G02
 -32653433.52047 -25427175.76945  22001240.1174                   22001239.1954
  -8811471.24648  -6845527.51645  21909515.2664                   21909516.8324
 -29657627.05148 -23092607.00046  20782686.9774                   20782685.8094
   9648587.08246   7534870.23044  23797153.2194                   23797154.6844
 -26343105.03148 -20509940.56246  20312931.1804                   20312930.0554
 -47699707.72746 -37149471.30043  23884263.2584                   23884262.9344
 -45619453.81248 -35529142.03046  21010790.0394                   21010786.9024
 11  8 13  2  3  0.0000000  0  7G10G25G12G29G05G04G02
 -32634417.04347 -25412357.74645  22004858.3914                   22004858.1804
  -8917774.04748  -6928360.78945  21889286.4304                   21889287.9494
 -29697284.90647 -23123509.21446  20775140.1024                   20775139.0944
   9505056.87146   7423028.54844  23769840.8834                   23769841.3984
 -26426102.26248 -20574613.68946  20297137.4534                   20297136.4924
 -47679039.06546 -37133365.83243  23888196.5944                   23888195.9534
 -45650138.29348 -35553052.00246  21004950.8914                   21004948.0474
 11  8 13  2  3 30.0000000  0  7G10G25G12G29G05G04G02
 -32614949.30147 -25397188.09344  22008563.6174                   22008562.8794
  -9023502.15648  -7010746.24545  21869166.5864                   21869168.7424
 -29736326.05547 -23153930.86046  20767710.7814                   20767709.8404
   9361538.28946   7311195.91944  23742529.8054                   23742531.0744
 -26508479.25048 -20638803.51546  20281461.7664                   20281460.6214
 -47658368.35546 -37117258.84843  23892130.3914                   23892130.1134
 -45680641.65648 -35576820.84446  20999146.1094                   20999143.2234
 11  8 13  2  4  0.0000000  0  7G10G25G12G29G05G04G02
 -32595030.10947 -25381666.65545  22012354.3914                   22012353.0204
  -9128651.11348  -7092680.42245  21849157.5164                   21849158.8794
 -29774748.06247 -23183870.07346  20760399.6564                   20760398.1724
   9218035.29746   7199375.44944  23715222.1094                   23715223.1094
 -26590233.00848 -20702507.71847  20265904.4064                   20265903.3594
 -47637693.29346 -37101148.49143  23896064.5234                   23896064.4654
 -45710961.85948 -35600446.95746  20993376.4534                   20993373.1884
 11  8 13  2  4 30.0000000  0  7G10G25G12G29G05G04G02
 -32574665.66847 -25365798.29345  22016228.8984                   22016227.8014
  -9233222.86748  -7174164.82445  21829258.1254                   21829259.8794
 -29812555.56247 -23213330.43746  20753204.9924                   20753203.6804
   9074545.78546   7087565.50244  23687917.3284                   23687917.8014
 -26671366.30948 -20765728.43846  20250465.2814                   20250463.9264
 -47617018.02746 -37085037.85843  23899999.0554                   23899998.4614
 -45741103.09048 -35623933.62546  20987641.2344                   20987637.3054
 11  8 13  2  5  0.0000000  0  7G10G25G12G29G05G04G02
 -32553858.81647 -25349585.16744  22020188.2734                   22020187.2814
  -9337216.08248  -7255198.44145  21809468.9304                   21809470.1094
 -29849749.48048 -23242312.68446  20746127.0164                   20746125.6484
   8931069.88346   6975766.18344  23660613.9924                   23660615.1414
 -26751879.13748 -20828465.66547  20235144.1954                   20235142.6484
 -47596343.03146 -37068927.54043  23903933.0314                   23903933.1524
 -45771066.37147 -35647281.62846  20981938.7894                   20981935.9024
 11  8 13  2  5 30.0000000  0  7G10G25G12G29G05G04G02
 -32532609.78547 -25333027.46744  22024231.7734                   22024230.2424
  -9440626.63348  -7335778.03146  21789790.7114                   21789791.8634
 -29886328.19148 -23270815.55646  20739166.8524                   20739165.3594
   8787612.09446   6863980.98643  23633314.4454                   23633316.7504
 -26831768.49248 -20890717.08646  20219941.8284                   20219940.3524
 -47575666.27046 -37052815.75143  23907867.9844                   23907867.6524
 -45800849.76247 -35670489.46646  20976270.9144                   20976267.9384
 11  8 13  2  6  0.0000000  0  7G10G25G12G29G05G04G02
 -32510923.66847 -25316129.18944  22028358.7894                   22028357.2194
  -9543455.31248  -7415904.22545  21770222.6564                   21770224.1724
 -29922294.62147 -23298841.33746  20732322.7344                   20732320.9574
   8644171.10546   6752208.86043  23606019.1414                   23606019.7114
 -26911036.34448 -20952484.20046  20204857.4224                   20204855.9924
 -47554990.32446 -37036704.53543  23911802.0634                   23911802.3134
 -45830456.27047 -35693559.46546  20970637.7344                   20970634.2814
 11  8 13  2  6 30.0000000  0  7G10G25G12G29G05G04G02
 -32488805.40647 -25298894.17044  22032567.3984                   22032566.3484
  -9645702.79348  -7495577.52645  21750765.9694                   21750766.7854
 -29957652.13347 -23326392.63246  20725593.9924                   20725592.2074
   8500745.89846   6640449.08443  23578726.2424                   23578726.2304
 -26989684.63348 -21013768.56446  20189891.1174                   20189889.6254
 -47534318.11746 -37020596.39643  23915735.6884                   23915736.0784
 -45859888.69147 -35716493.82146  20965036.9144                   20965033.5314
 11  8 13  2  7  0.0000000  0  7G10G25G12G29G05G04G02
 -32466252.83247 -25281320.74644  22036859.6024                   22036858.1804
  -9747362.59448  -7574792.91945  21731420.8834                   21731421.9494
 -29992396.77348 -23353466.37646  20718982.4144                   20718980.5984
   8357342.21547   6528706.06944  23551437.6414                   23551437.3914
 -27067708.53148 -21074566.37446  20175043.5084                   20175042.2854
 -47513644.71546 -37004487.18243  23919670.7034                   23919670.3754
 -45889142.88347 -35739289.30246  20959470.0864                   20959466.6884
 11  8 13  2  7 30.0000000  0  7G10G25G12G29G05G04G02
 -30867849.03947 -24035811.27644  22341025.6254                   22341024.4734
  -8273009.52048  -6425946.33245  22011980.7274                   22011981.6724
 -28451107.76248 -22152461.92746  21012280.4454                   21012278.6024
   9789386.78947   7644585.10444  23823946.3054                   23823946.7584
 -25569684.63348 -19907274.98746  20460108.2814                   20460106.8284
 -45917551.38746 -35760778.19343  24223396.6414                   24223396.8524
 -44342797.98447 -34534345.21446  21253729.2974                   21253725.9454
 11  8 13  2  8  0.0000000  0  7G10G25G12G29G05G04G02
 -30844439.91047 -24017570.38044  22345480.2814                   22345478.3244
  -8373493.50448  -6504245.51246  21992859.1484                   21992860.3364
 -28484633.08248 -22178585.54746  21005900.1724                   21005898.7074
   9646026.37547   7532875.81544  23796665.4924                   23796666.2274
 -25646462.08248 -19967101.55046  20445497.6334                   20445496.4224
 -45896881.33646 -35744671.64043  24227330.3754                   24227330.0634
 -44371701.25047 -34556867.25246  21248229.5864                   21248226.2194
 11  8 13  2  8 30.0000000  0  7G10G25G12G29G05G04G02
 -30820608.12547 -23999000.15544  22350015.0704                   22350013.7854
  -8473389.18448  -6582086.28746  21973849.3444                   21973850.8324
 -28517552.05948 -22204236.67346  20999635.9774                   20999634.5044
   9502687.60947   7421183.36944  23769389.3284                   23769389.8714
 -25722617.81248 -20026443.64446  20431005.9534                   20431004.4104
 -45876215.47346 -35728568.42943  24231263.4064                   24231262.3794
 -44400432.11747 -34579254.92146  21242762.1414                   21242759.2384
 11  8 13  2  9  0.0000000  0  7G10G25G12G29G05G04G02
 -30796358.03947 -23980104.00244  22354630.1414                   22354628.8204
  -8572696.43448  -6659468.55045  21954951.8134                   21954952.8014
 -28549866.83647 -22229417.01946  20993486.6564                   20993485.1094
   9359370.31647   7309507.61444  23742116.5704                   23742117.2814
 -25798153.14548 -20085302.31646  20416631.8054                   20416630.1844
 -45855555.29346 -35712469.56743  24235193.8364                   24235194.0904
 -44428992.42647 -34601509.69546  21237327.0864                   21237323.8524
 11  8 13  2  9 30.0000000  0  7G10G25G12G29G05G04G02
 -30771690.93047 -23960882.89944  22359323.9064                   22359323.2344
  -8671412.50848  -6736390.16545  21936166.7424                   21936167.5904
 -28581577.24247 -22254126.41446  20987452.3754                   20987451.0044
   9216077.16447   7197850.74444  23714849.1954                   23714848.6804
 -25873066.30148 -20143676.18846  20402376.4454                   20402374.7854
 -45834899.69946 -35696374.27543  24239125.5704                   24239125.1844
 -44457381.42247 -34623630.98746  21231924.9224                   21231921.6134
 11  8 13  2 10  0.0000000  0  7G10G25G12G29G05G04G02
 -30746609.69947 -23941339.06544  22364096.7274                   22364095.8054
  -8769536.20348  -6812850.15846  21917494.8134                   21917495.6564
 -28612684.45748 -22278365.77846  20981532.7194                   20981531.3714
   9072809.00046   7086213.33944  23687585.5704                   23687585.1604
 -25947357.28948 -20201565.25446  20388239.3204                   20388237.5984
 -45814249.35545 -35680283.12643  24243054.2344                   24243054.6914
 -44485599.76248 -34645619.27546  21226555.2734                   21226551.9804
 11  8 13  2 10 30.0000000  0  7G10G25G12G29G05G04G02
 -30721115.41847 -23921473.41844  22368947.9844                   22368947.2584
  -8867064.09048  -6888845.89446  21898935.3284                   21898936.4304
 -28643187.74647 -22302134.56546  20975728.7814                   20975726.9654
   8929569.41846   6974598.17844  23660327.4224                   23660328.2074
 -26021024.18448 -20258968.01046  20374220.9144                   20374219.5784
 -45793602.67646 -35664194.84743  24246983.5704                   24246983.0704
 -44513646.13747 -34667473.58846  21221218.1414                   21221214.8674
 11  8 13  2 11  0.0000000  0  7G10G25G12G29G05G04G02
 -30695212.48847 -23901289.30444  22373876.7974                   22373875.9264
  -8963996.57448  -6964377.69245  21880489.8594                   21880491.4264
 -28673089.97347 -22325434.98746  20970038.3134                   20970036.8674
   8786357.75446   6863004.82844  23633076.0234                   23633076.0944
 -26094068.41848 -20315885.56146  20360321.0554                   20360319.5784
 -45772961.61746 -35648110.83143  24250911.5704                   24250911.2544
 -44541523.12947 -34689195.89346  21215913.0164                   21215910.0354
 11  8 13  2 11 30.0000000  0  7G10G25G12G29G05G04G02
 -30668902.49647 -23880788.01944  22378883.5944                   22378882.8244
  -9060331.23048  -7039443.62545  21862158.5944                   21862159.5084
 -28702390.70347 -22348266.72346  20964462.3914                   20964460.9454
   8643176.24646   6751434.96044  23605828.7664                   23605829.4924
 -26166488.82448 -20372317.02447  20346539.7194                   20346538.3284
 -45752325.38746 -35632030.74343  24254838.9384                   24254838.2464
 -44569229.97348 -34710785.62446  21210641.2504                   21210637.7424
 11  8 13  2 12  0.0000000  0  7G10G25G12G29G05G04G02
 -30642189.66047 -23859972.82944  22383967.0474                   22383966.3204
  -9156068.34448  -7114043.95446  21843940.0164                   21843941.7194
 -28731093.10947 -22370632.21246  20959000.4144                   20958999.1804
   8500024.90646   6639888.53844  23578588.0864                   23578589.0354
 -26238287.00448 -20428263.63046  20332877.3674                   20332875.5274
 -45731695.93746 -35615955.80043  24258764.4144                   24258763.6454
 -44596768.82448 -34732244.45246  21205400.4304                   21205396.8404
 11  8 13  2 12 30.0000000  0  7G10G25G12G29G05G04G02
 -30615076.58247 -23838845.80244  22389126.6954                   22389125.5274
  -9251206.51648  -7188177.57646  21825835.4144                   21825837.1094
 -28759197.80548 -22392531.95546  20953652.3524                   20953650.9694
   8356904.86346   6528366.49844  23551352.7114                   23551353.9734
 -26309462.83248 -20483725.27247  20319333.1414                   20319331.4024
 -45711073.46946 -35599886.34943  24262688.9064                   24262688.3754
 -44624140.14547 -34753572.73446  21200191.8984                   21200188.5984
 11  8 13  2 13  0.0000000  0  7G10G25G12G29G05G04G02
 -30587569.51247 -23817411.72944  22394360.5944                   22394360.3554
  -9345747.66847  -7261845.96246  21807845.1884                   21807846.1644
 -28786709.39148 -22413969.54746  20948416.9304                   20948415.5664
   8213814.44546   6416867.56844  23524123.5784                   23524124.1484
 -26380019.72748 -20538704.64546  20305906.2974                   20305904.9844
 -45690461.27746 -35583824.85943  24266610.1094                   24266610.5634
 -44651347.91047 -34774773.57346  21195014.4064                   21195010.6844
 11  8 13  2 13 30.0000000  0  7G10G25G12G29G05G04G02
 -30559669.61347 -23795671.56844  22399669.6884                   22399669.6724
  -9439689.15248  -7335047.09646  21789968.7424                   21789969.8094
 -28813627.67248 -22434944.80546  20943294.7424                   20943293.2504
   8070756.44547   6305393.86444  23496901.1174                   23496900.8554
 -26449955.96948 -20593200.38146  20292597.8364                   20292596.4654
 -45669858.27046 -35567770.55343  24270531.5474                   24270530.8054
 -44678390.93048 -34795846.03046  21189868.2814                   21189864.2034
 11  8 13  2 14  0.0000000  0  7G10G25G12G29G05G04G02
 -30531379.02747 -23773626.97544  22405053.8984                   22405052.7544
  -9533029.20747  -7407779.58345  21772206.5314                   21772207.5704
 -28839953.46148 -22455458.39146  20938284.6804                   20938283.3754
   7927732.62546   6193946.79744  23469684.4304                   23469684.4734
 -26519271.19148 -20647212.21046  20279407.0474                   20279405.8634
 -45649264.44546 -35551723.38643  24274449.4304                   24274448.9924
 -44705269.28948 -34816790.18246  21184753.5474                   21184749.7814
 11  8 13  2 14 30.0000000  0  7G10G25G12G29G05G04G02
 -30502704.13346 -23751282.91144  22410510.6174                   22410509.1564
  -9625770.29347  -7480045.32546  21754558.2894                   21754559.6334
 -28865691.62948 -22475514.09746  20933387.0864                   20933385.7114
   7784740.75846   6082524.60644  23442473.5164                   23442474.2894
 -26587969.16048 -20700743.06247  20266334.6724                   20266333.1644
 -45628683.54346 -35535686.31242  24278366.1644                   24278365.7894
 -44731987.40248 -34837609.45746  21179669.1174                   21179665.6134
 11  8 13  2 15  0.0000000  0  7G10G25G12G29G05G04G02
 -30473644.93046 -23728639.37244  22416040.5084                   22416039.2274
  -9717908.17248  -7551841.04746  21737025.2664                   21737026.3794
 -28890840.02348 -22495110.23346  20928601.6564                   20928599.9064
   7641785.24647   5971130.69644  23415270.7194                   23415270.1334
 -26656046.87548 -20753790.60446  20253379.8834                   20253378.6174
 -45608112.75846 -35519657.10242  24282280.4774                   24282280.3204
 -44758542.59448 -34858301.79346  21174615.6254                   21174612.4494
 11  8 13  2 15 30.0000000  0  8G10G25G12G29G26G05G04G02
 -30444208.25047 -23705701.72544  22421641.9844                   22421640.7584
  -9809445.95747  -7623169.16645  21719606.1414                   21719606.7854
 -28915404.52347 -22514251.37846  20923926.8524                   20923925.4184
   7498863.13746   5859762.84644  23388072.7274                   23388073.3054
  18677544.12956  14571475.10353  24760679.2274                   24760678.6334
 -26723508.54748 -20806358.10547  20240542.3914                   20240540.9734
 -45587556.73846 -35503639.42642  24286192.7734                   24286191.1914
 -44784939.57047 -34878870.83845  21169592.4694                   21169589.3054
 11  8 13  2 16  0.0000000  0  8G10G25G12G29G26G05G04G02
 -30414403.82046 -23682477.53944  22427313.6884                   22427312.5164
  -9900389.31247  -7694034.08746  21702300.2734                   21702301.3634
 -28939393.51648 -22532944.07146  20919362.2734                   20919360.5354
   7355969.24646   5748416.93444  23360881.4454                   23360881.6454
  18524356.68446  14452108.36742  24731527.9224                   24731527.5164
 -26790361.21148 -20858451.05447  20227820.9924                   20227819.0904
 -45567022.36746 -35487638.59442  24290099.9614                   24290099.4304
 -44811185.58647 -34899322.24546  21164598.1724                   21164594.5664
 11  8 13  2 16 30.0000000  0  8G10G25G12G29G26G05G04G02
 -30384240.98046 -23658974.02544  22433053.0314                   22433051.7304
  -9990743.74647  -7764440.12446  21685106.1174                   21685107.6884
 -28962814.36747 -22551194.04246  20914905.4064                   20914903.9224
   7213098.23846   5637088.84444  23333693.6334                   23333694.3244
  18371071.51646  14332665.41442  24702358.8914                   24702358.1884
 -26856611.71548 -20910074.79646  20215213.5784                   20215212.0204
 -45546516.49646 -35471660.03542  24294001.7274                   24294001.8244
 -44837287.98848 -34919661.73846  21159630.6024                   21159626.8524
 11  8 13  2 17  0.0000000  0  8G10G25G12G29G26G05G04G02
 -30353724.62146 -23635195.05144  22438860.3594                   22438859.2424
 -10080510.33648  -7834388.09446  21668024.1724                   21668025.5744
 -28985670.75848 -22569004.18646  20910555.7274                   20910554.3794
   7070249.23847   5525777.93044  23306511.2424                   23306511.3834
  18217689.59446  14213147.10542  24673171.4144                   24673170.2194
 -26922262.49248 -20961231.22446  20202720.4144                   20202719.4064
 -45526041.46546 -35455705.41042  24297898.1484                   24297898.2464
 -44863249.53548 -34939891.48546  21154690.7664                   21154687.2154
 11  8 13  2 17 30.0000000  0  8G10G25G12G29G26G05G04G02
 -30322848.71546 -23611135.95144  22444735.3594                   22444735.0204
 -10169679.25047  -7903870.35046  21651055.7584                   21651057.0554
 -29007955.64548 -22586368.98546  20906315.2274                   20906313.5314
   6927432.49646   5414492.13044  23279333.5394                   23279334.3984
  18064222.41046  14093562.35242  24643967.0314                   24643966.4694
 -26987304.92648 -21011913.62447  20190343.4064                   20190342.1604
 -45505588.72346 -35439768.23442  24301790.3834                   24301790.8984
 -44889061.91848 -34960005.00946  21149778.5234                   21149775.1564
 11  8 13  2 18  0.0000000  0  8G10G25G12G29G26G05G04G02
 -30291619.65646 -23586801.62644  22450678.7974                   22450677.3594
 -10258253.12947  -7972888.93846  21634200.8674                   21634202.4614
 -29029674.19948 -22603292.48646  20902182.0084                   20902180.3484
   6784645.78947   5303229.75244  23252162.2504                   23252162.4414
  17910669.32446  13973910.65642  24614747.0944                   24614746.1994
 -27051742.73048 -21062124.87146  20178081.5704                   20178079.8054
 -45485162.40646 -35423851.59842  24305677.1334                   24305677.0274
 -44914729.15647 -34980005.41446  21144894.3754                   21144890.7424
 11  8 13  2 18 30.0000000  0  8G10G25G12G29G26G05G04G02
 -30260037.46546 -23562192.17244  22456688.6724                   22456687.1254
 -10346228.20347  -8041440.92446  21617460.0704                   21617461.1844
 -29050824.67248 -22619773.32846  20898157.2194                   20898155.6134
   6641893.29746   5191994.08244  23224997.0704                   23224997.3714
  17757036.15646  13854196.59842  24585512.6254                   24585511.0514
 -27115573.66048 -21111863.23747  20165934.9384                   20165933.3014
 -45464759.60246 -35407953.28542  24309559.2194                   24309559.6374
 -44940249.11747 -34999891.09045  21140037.9384                   21140034.7234
 11  8 13  2 19  0.0000000  0  8G10G25G12G29G26G05G04G02
 -30228104.96546 -23537309.65644  22462765.1724                   22462763.5204
 -10433603.47347  -8109525.52946  21600832.8524                   21600834.2704
 -29071408.58248 -22635812.69846  20894240.2734                   20894238.9774
   6499176.63347   5080786.31444  23197839.3984                   23197839.1374
  17603326.30146  13734422.78542  24556261.9774                   24556261.0554
 -27178798.07048 -21161128.99047  20153903.1804                   20153901.8094
 -45444380.69946 -35392073.57043  24313437.7344                   24313438.3054
 -44965622.16847 -35019662.28746  21135209.6564                   21135206.1644
 11  8 13  2 19 30.0000000  0  8G10G25G12G29G26G05G04G02
 -30195824.63346 -23512156.17444  22468907.2274                   22468906.9654
 -10520377.64847  -8177141.75046  21584320.5944                   21584321.6764
 -29091427.00448 -22651411.43846  20890431.1884                   20890428.9144
   6356497.76246   4969608.04044  23170688.2344                   23170688.1954
  17449542.71946  13614591.51143  24526997.9064                   24526996.4844
 -27241415.89548 -21209922.06846  20141987.7894                   20141986.3284
 -45424025.45746 -35376212.39542  24317311.2584                   24317311.5044
 -44990848.35947 -35039319.04946  21130409.2114                   21130405.5864
 11  8 13  2 20  0.0000000  0  8G10G25G12G29G26G05G04G02
 -30163196.92646 -23486731.99744  22475116.7114                   22475115.5234
 -10606547.21947  -8244286.84346  21567922.7974                   21567923.9964
 -29110879.18048 -22666568.94846  20886729.2424                   20886727.5514
   6213860.10546   4858461.90944  23143544.8054                   23143544.8164
  17295691.20346  13494707.28543  24497720.1884                   24497720.5864
 -27303424.41048 -21258240.36147  20130188.0474                   20130186.4304
 -45403691.57046 -35360367.74343  24321180.9064                   24321180.3444
 -45015925.94947 -35058860.01346  21125637.1094                   21125633.4774
 11  8 13  2 20 30.0000000  0  8G10G25G12G29G26G05G04G02
 -28554804.46946 -22233439.16344  22781183.5554                   22781182.3054
  -9116687.33247  -7083357.05346  21851433.7194                   21851435.1524
 -27554344.40248 -21453684.66746  21182928.2584                   21182926.2624
   7646691.50446   5974954.00644  23416203.7504                   23416203.2384
  18717201.08246  14602377.43043  24768225.1954                   24768224.6684
 -25789401.23047 -20078482.01647  20418296.7894                   20418295.4144
 -43807958.64546 -34116939.53142  24624839.0474                   24624837.8834
 -43465432.89547 -33850683.60145  21420685.9064                   21420682.7894
 11  8 13  2 21  0.0000000  0  8G10G25G12G29G26G05G04G02
 -28521489.65246 -22207479.61044  22787523.1954                   22787521.9104
  -9201644.66848  -7149557.54946  21835266.7114                   21835267.6294
 -27572668.14848 -21467962.87446  21179441.3284                   21179439.1484
   7504141.98046   5863876.60944  23389077.6334                   23389077.2424
  18563223.01246  14482394.54143  24738924.3284                   24738923.3134
 -25850192.81248 -20125852.04847  20406728.4614                   20406726.9264
 -43787667.39146 -34101128.16543  24628700.8284                   24628700.1094
 -43490213.44947 -33869993.13746  21415970.3984                   21415966.8094
 11  8 13  2 21 30.0000000  0  8G10G25G12G29G26G05G04G02
 -28487830.84847 -22181251.97244  22793928.6724                   22793927.4924
  -9285990.01247  -7215281.14645  21819215.9924                   21819217.2304
 -27590425.50047 -21481799.74146  21176061.7504                   21176060.4964
   7361643.09846   5752838.64944  23361960.7584                   23361960.2234
  18409190.93846  14362369.64643  24709612.4304                   24709611.5004
 -25910371.81248 -20172744.73747  20395276.9844                   20395275.2504
 -43767393.43046 -34085330.29843  24632558.4614                   24632557.7504
 -43514841.48447 -33889183.79445  21411283.8364                   21411280.1134
 11  8 13  2 22  0.0000000  0  8G10G25G12G29G26G05G04G02
 -28453832.52746 -22154759.76544  22800397.8364                   22800396.7774
  -9369724.06647  -7280528.43646  21803282.2504                   21803283.1214
 -27607619.13348 -21495197.37846  21172790.3524                   21172788.4344
   7219194.84446   5641840.15544  23334853.6254                   23334853.8404
  18255106.41846  14242303.84543  24680290.9774                   24680289.8794
 -25969940.50448 -20219161.88046  20383940.9614                   20383940.1994
 -43747138.09846 -34069546.86342  24636411.7894                   24636412.2154
 -43539319.36747 -33908257.46245  21406625.7424                   21406622.5594
 11  8 13  2 22 30.0000000  0  8G10G25G12G29G26G05G04G02
 -28419497.64546 -22128005.31544  22806932.0314                   22806930.9534
  -9452846.45747  -7345299.07546  21787464.2734                   21787465.8794
 -27624251.73448 -21508157.83646  21169624.7344                   21169623.4024
   7076798.31346   5530881.95444  23307756.3054                   23307756.2734
  18100972.10246  14122199.25643  24650960.5234                   24650959.4304
 -26028899.64848 -20265104.03946  20372721.8284                   20372720.3444
 -43726901.96946 -34053778.43742  24640263.8444                   24640262.8984
 -43563648.20747 -33927214.98745  21401996.1804                   21401992.7384
 11  8 13  2 23  0.0000000  0  8G10G25G12G29G26G05G04G02
 -28384832.01246 -22100993.13444  22813528.3134                   22813527.4454
  -9535359.23847  -7409594.72946  21771762.7114                   21771763.6414
 -27640327.47348 -21520684.38646  21166565.8914                   21166564.0204
   6934452.26646   5419963.12044  23280667.7114                   23280669.0824
  17946788.36346  14002056.08243  24621619.4774                   24621619.5084
 -26087252.20348 -20310573.55247  20361617.7894                   20361615.9574
 -43706688.16446 -34038027.37142  24644109.2814                   24644108.9804
 -43587830.80947 -33946058.56445  21397394.7584                   21397391.0514
 11  8 13  2 23 30.0000000  0  8G10G25G12G29G26G05G04G02
 -28349835.38346 -22073723.01644  22820188.3834                   22820186.7584
  -9617258.44948  -7473412.25246  21756177.8914                   21756178.9964
 -27655844.85948 -21532775.83446  21163612.4614                   21163611.2234
   6792161.47746   5309087.36144  23253591.6724                   23253591.3164
  17792561.25846  13881879.11043  24592271.9694                   24592271.1884
 -26144995.95348 -20355568.65046  20350629.3134                   20350628.1374
 -43686493.43746 -34022291.21142  24647952.5234                   24647952.1884
 -43611864.33247 -33964785.97945  21392821.7034                   21392817.6954
 11  8 13  2 24  0.0000000  0  8G10G25G12G29G26G05G04G02
 -28314514.01647 -22046199.89244  22826909.3444                   22826908.3954
  -9698546.93748  -7536753.87746  21740709.4844                   21740710.2464
 -27670809.27048 -21544436.42246  21160765.1644                   21160763.4884
   6649923.80146   5198252.94044  23226524.5634                   23226524.2344
  17638290.64846  13761668.36243  24562914.0704                   24562915.3094
 -26202135.13748 -20400092.67447  20339756.3054                   20339754.7894
 -43666321.81245 -34006572.91842  24651790.6414                   24651790.0554
 -43635752.93047 -33983400.46645  21388275.3134                   21388271.4414
 11  8 13  2 24 30.0000000  0  8G10G25G12G29G26G05G04G02
 -28278865.40246 -22018421.75644  22833692.6954                   22833692.0514
  -9779218.60947  -7599614.87546  21725357.9844                   21725359.2624
 -27685216.77348 -21555663.04146  21158023.8284                   21158021.9694
   6507746.27746   5087465.41144  23199469.0234                   23199469.4614
  17483985.10546  13641430.31443  24533551.4774                   24533552.0664
 -26258664.48447 -20444141.49347  20328998.9774                   20328997.5044
 -43646167.74245 -33990868.46542  24655626.6174                   24655625.0824
 -43659491.55947 -34001898.08745  21383757.7664                   21383754.3914
 11  8 13  2 25  0.0000000  0  8G10G25G12G29G26G05G04G02
 -28242895.26246 -21990393.12444  22840537.7664                   22840536.7704
  -9859275.95747  -7661997.16746  21710123.2424                   21710124.2504
 -27699072.41448 -21566459.60746  21155386.7894                   21155385.2854
   6365627.19147   4976723.41444  23172424.7814                   23172424.3834
  17329644.29346  13521164.78043  24504180.3984                   24504181.2194
 -26314588.05148 -20487718.27347  20318356.8834                   20318355.6604
 -43626034.58645 -33975180.23042  24659457.8364                   24659456.7504
 -43683083.70347 -34020281.57345  21379268.6724                   21379265.0164
 11  8 13  2 25 30.0000000  0  8G10G25G12G29G26G05G04G02
 -28206603.26246 -21962113.63544  22847443.8054                   22847443.2504
  -9938715.16047  -7723897.78246  21695006.6334                   21695007.9064
 -27712374.77348 -21576825.05746  21152855.3754                   21152853.7234
   6223571.07046   4866030.43744  23145392.4224                   23145392.0394
  17175274.92246  13400877.11043  24474805.8364                   24474805.2424
 -26369903.13748 -20530820.92146  20307831.0474                   20307829.5514
 -43605919.14145 -33959505.78942  24663286.3594                   24663283.8014
 -43706526.82847 -34038548.93846  21374807.7974                   21374803.9344
 11  8 13  2 26  0.0000000  0  8G10G25G12G29G26G05G04G02
 -28169996.80546 -21933589.11144  22854409.8134                   22854408.6024
 -10017540.20747  -7785319.84346  21680006.6254                   21680008.2114
 -27725129.63748 -21586763.88846  21150428.6804                   21150426.6804
   6081575.08646   4755384.30744  23118370.9614                   23118370.6094
  17020875.26646  13280565.72243  24445423.9064                   24445423.7304
 -26424615.00448 -20573453.51147  20297419.3984                   20297418.0554
 -43585826.309 5                  24667108.109
 -43729825.97747 -34056704.10345  21370374.0004                   21370370.1524
 11  8 13  2 26 30.0000000  0  7G10G25G12G29G26G05G02
 -28133077.78546 -21904821.07444  22861435.5084                   22861434.7734
 -10095749.59047  -7846262.17746  21665123.7974                   21665125.2464
 -27737338.95348 -21596277.66046  21148105.1884                   21148103.6054
   5939641.81346   4644787.03644  23091362.0864                   23091361.7194
  16866449.62146  13160234.08343  24416037.3914                   24416037.6024
 -26478723.42247 -20615615.89246  20287123.1484                   20287121.5354
 -43752980.46147 -34074746.57446  21365967.6094                   21365964.2424
 11  8 13  2 27  0.0000000  0  8G10G25G12G29G26G05G04G02
 -28095849.22646 -21875811.77143  22868519.3054                   22868518.6994
 -10173343.01648  -7906724.52346  21650358.3444                   21650359.5084
 -27749004.15648 -21605367.42446  21145885.1024                   21145883.6884
   5797772.50846   4534239.61444  23064364.8524                   23064363.8674
  16712000.75846  13039884.40443  24386647.5944                   24386647.3094
 -26532229.36747 -20657308.80646  20276941.2504                   20276939.5864
                                  24674741.820
 -43775990.78147 -34092676.68445  21361588.6724                   21361585.3554
 11  8 13  2 27 30.0000000  0  7G10G25G12G29G26G05G02
 -28058316.79346 -21846565.73044  22875661.8444                   22875660.5434
 -10250322.68448  -7966708.63346  21635709.7034                   21635710.5474
 -27760130.19148 -21614037.08346  21143768.3054                   21143766.5634
   5655966.12146   4423741.24144  23037380.0164                   23037380.1294
  16557529.23046  12919516.96143  24357252.1254                   24357252.4384
 -26585136.23448 -20698534.90447  20266873.2424                   20266871.9494
 -43798860.09447 -34110496.93345  21357237.0704                   21357233.2344
 11  8 13  2 28  0.0000000  0  7G10G25G12G29G26G05G02
 -28020476.61746 -21817079.91144  22882862.4454                   22882861.5274
 -10326681.32847  -8026208.82846  21621178.9454                   21621179.9414
 -27770712.09448 -21622282.73046  21141754.2734                   21141752.3914
   5514230.77746   4313298.23244  23010408.5314                   23010408.5204
  16403044.92646  12799139.62743  24327855.5164                   24327854.1684
 -26637438.09847 -20739289.59247  20256920.6174                   20256919.0354
 -43821582.25447 -34128202.51645  21352913.3364                   21352909.7384
 11  8 13  2 28 30.0000000  0  7G10G25G12G29G26G05G02
 -27982324.97346 -21787351.36443  22890122.9224                   22890121.7504
 -10402411.98048  -8085219.67146  21606767.8134                   21606768.6684
 -27780744.65248 -21630100.30346  21139845.0944                   21139843.2774
   5372575.05546   4202917.21944  22983452.9924                   22983452.1804
  16248557.71946  12678760.03643  24298456.9454                   24298455.5984
 -26689129.66047 -20779568.69147  20247083.8914                   20247082.5514
 -43844150.96547 -34145788.51845  21348617.8444                   21348614.6914
 11  8 13  2 29  0.0000000  0  7G10G25G12G29G26G05G02
 -27943855.69546 -21757375.33444  22897443.3834                   22897442.5784
 -10477505.33648  -8143733.92346  21592477.8594                   21592478.8634
 -27790221.43048 -21637484.78946  21138041.8754                   21138040.3094
   5231009.19546   4092606.24944  22956512.7814                   22956513.2934
  16094079.51246  12558387.43843  24269061.2194                   24269059.8554
 -26740202.10948 -20819365.38646  20237365.0784                   20237363.9144
 -43866557.80947 -34163248.39146  21344354.8284                   21344351.0084
 11  8 13  2 29 30.0000000  0  7G10G25G12G29G26G05G02
 -27905074.52046 -21727156.27544  22904822.8984                   22904822.5204
 -10551963.88748  -8201753.53646  21578309.1484                   21578309.7854
 -27799147.66448 -21644440.25446  21136343.1174                   21136341.4614
   5089531.68047   3982364.10044  22929591.2664                   22929589.6884
  15939610.52346  12438022.01943  24239666.9224                   24239664.9614
 -26790659.34448 -20858682.68446  20227763.0474                   20227762.0004
 -43888806.11347 -34180584.72745  21340120.6884                   21340117.4774
 11  8 13  2 30  0.0000000  0  7G10G25G12G29G26G05G02
 -27865985.35546 -21696697.16144  22912261.7734                   22912260.8364
 -10625788.56648  -8259279.20546  21564260.4224                   21564261.1644
 -27807526.11748 -21650968.87946  21134748.7274                   21134747.1484
   4948142.92647   3872191.15444  22902684.8834                   22902684.3754
  15785152.92246  12317665.45143  24210274.4844                   24210272.7974
 -26840503.92248 -20897522.58346  20218278.3284                   20218276.7304
 -43910897.43047 -34197798.72146  21335917.2034                   21335913.5664
 11  8 13  2 30 30.0000000  0  7G10G25G12G29G26G05G02
 -27826594.08646 -21666002.63743  22919757.4534                   22919755.8164
 -10698981.80947  -8316312.86446  21550332.3284                   21550333.0904
 -27815361.52748 -21657074.37246  21133258.2424                   21133256.2624
   4806841.75447   3762086.42144  22875796.2974                   22875795.7774
  15630707.07446  12197318.06943  24180884.0394                   24180883.1174
 -26889739.30948 -20935887.79146  20208908.9384                   20208907.8444
 -43932834.98447 -34214892.89345  21331742.4304                   21331738.8484
 11  8 13  2 31  0.0000000  0  7G10G25G12G29G26G05G02
 -27786906.03546 -21635076.89243  22927309.9384                   22927308.8634
 -10771545.94948  -8372856.29546  21536523.9064                   21536524.8674
 -27822658.50448 -21662760.32846  21131869.8444                   21131867.7734
   4665627.02747   3652049.05644  22848924.8524                   22848923.3754
  15476273.58246  12076980.33043  24151496.1644                   24151495.3014
 -26938369.10548 -20973781.12146  20199655.0634                   20199653.4144
 -43954621.56247 -34231869.41146  21327596.2664                   21327593.1994
 11  8 13  2 31 30.0000000  0  7G10G25G12G29G26G05G02
 -27746923.82046 -21603921.93543  22934918.1484                   22934917.4264
 -10843480.46548  -8428909.13246  21522835.2034                   21522836.1024
 -27829419.19548 -21668028.41246  21130582.8054                   21130581.0594
   4524500.96947   3542080.79744  22822068.6174                   22822067.5164
  15321855.79346  11956654.84543  24122111.5784                   24122110.7704
 -26986393.87148 -21011202.98946  20190516.3914                   20190514.8834
 -43976257.53147 -34248728.59246  21323479.5554                   21323476.0744
 11  8 13  2 32  0.0000000  0  7G10G25G12G29G26G05G02
 -27706653.35546 -21572542.42443  22942581.0864                   22942580.7154
 -10914788.02048  -8484473.41546  21509265.6644                   21509266.5044
 -27835648.73048 -21672882.59446  21129397.3834                   21129395.6214
   4383462.17647   3432180.53044  22795230.0704                   22795229.7974
  15167453.96146  11836341.75943  24092729.7344                   24092729.2814
 -27033817.69148 -21048156.60846  20181491.7974                   20181490.4304
 -43997746.10547 -34265472.92245  21319390.4844                   21319386.5004
 11  8 13  2 32 30.0000000  0  7G10G25G12G29G26G05G02
 -27666096.28546 -21540939.48943  22950298.9774                   22950298.2584
 -10985467.26647  -8539548.11246  21495816.0634                   21495816.7854
 -27841347.59447 -21677323.26746  21128312.8524                   21128311.2274
   4242513.19947   3322350.25545  22768408.3754                   22768407.6454
  15013072.66846  11716044.67243  24063352.4064                   24063351.1254
 -27080640.46148 -21084641.86647  20172581.5004                   20172579.6994
 -44019086.62147 -34282101.85245  21315329.3054                   21315325.5864
 11  8 13  2 33  0.0000000  0  7G10G25G12G29G26G05G02
 -27625260.41046 -21509119.34443  22958069.7814                   22958068.7304
 -11055523.05547  -8594137.00546  21482484.5474                   21482485.5274
 -27846522.94148 -21681356.00246  21127328.2114                   21127326.1214
   4101650.77747   3212587.39945  22741602.9534                   22741602.5044
  14858710.11746  11595762.24043  24033977.5314                   24033977.0554
 -27126868.01248 -21120663.31746  20163784.9064                   20163783.4924
 -44040284.28547 -34298619.47945  21311295.6024                   21311291.8954
 11  8 13  2 33 30.0000000  0  7G10G25G12G29G26G05G02
 -27584147.70746 -21477083.47543  22965893.3204                   22965891.9414
 -11124954.41448  -8648239.33346  21469272.1644                   21469272.9414
 -27851176.29748 -21684981.97446  21126442.3834                   21126440.9964
   3960877.41047   3102893.93645  22714814.5784                   22714813.7934
  14704370.27746  11475497.47343  24004607.4224                   24004607.0784
 -27172500.86348 -21156221.35246  20155101.3054                   20155099.9804
 -44061338.89547 -34315025.63545  21307288.7344                   21307285.1954
 11  8 13  2 34  0.0000000  0  7G10G25G12G29G26G05G02
 -25967342.18746 -20217235.04743  23273561.8364                   23273559.7774
  -9618338.55147  -7474252.92146  21755971.5864                   21755973.0004
 -26279889.34847 -20460602.51846  21425448.4694                   21425446.7384
   5395619.77047   4220875.07144  22987837.1174                   22987836.1134
  16125481.97346  12582857.28843  24275036.3134                   24275035.9264
 -25642118.11748 -19963715.30746  20446323.3054                   20446321.8834
 -42506829.60247 -33103719.67345  21603102.1414                   21603098.4224
 11  8 13  2 34 30.0000000  0  7G10G25G12G29G26G05G02
 -25925682.73847 -20184773.18344  23281489.2734                   23281487.8714
  -9686518.85548  -7527380.39946  21742997.0004                   21742998.4734
 -26283503.32448 -20463418.55646  21424760.7344                   21424758.9454
   5255031.15247   4111325.53445  22961083.8834                   22961083.0864
  15971199.35246  12462637.10143  24245677.2734                   24245676.8094
 -25686562.64848 -19998347.38546  20437866.1094                   20437864.1334
 -42527596.91047 -33119901.95745  21599150.5554                   21599146.6094
 11  8 13  2 35  0.0000000  0  7G10G25G12G29G26G05G02
 -25883752.02046 -20152099.88143  23289468.0554                   23289467.2034
  -9754071.33648  -7580018.66446  21730142.8984                   21730143.3984
 -26286598.40647 -20465830.23846  21424171.5634                   21424169.6994
   5114539.78147   4001851.81245  22934348.8754                   22934348.4104
  15816952.33646  12342444.71743  24216324.6094                   24216324.8834
 -25730412.62548 -20032516.16146  20429521.1644                   20429520.4184
 -42548218.89547 -33135971.01045  21595225.8284                   21595222.2544
 11  8 13  2 35 30.0000000  0  7G10G25G12G29G26G05G02
 -25841556.52046 -20119220.31443  23297497.7664                   23297496.5474
  -9820999.71147  -7632170.61246  21717406.5944                   21717407.1484
 -26289181.44547 -20467842.94746  21423680.2114                   21423677.9344
   4974143.23447   3892451.96944  22907632.1804                   22907631.5864
  15662740.39146  12222279.60743  24186979.3524                   24186979.2234
 -25773672.96948 -20066225.47246  20421289.2814                   20421287.5784
 -42568699.96147 -33151930.25445  21591328.6024                   21591325.2114
 11  8 13  2 36  0.0000000  0  7G10G25G12G29G26G05G02
 -25799100.77746 -20086137.91643  23305577.0234                   23305575.6844
  -9887305.73848  -7683837.62946  21704789.1884                   21704789.7034
 -26291255.86347 -20469459.34846  21423285.4384                   21423283.6254
   4833841.79747   3783126.27144  22880933.9844                   22880933.0394
  15508565.18446  12102143.13743  24157640.2814                   24157640.8444
 -25816346.68748 -20099477.68746  20413168.3914                   20413167.1804
 -42589041.83247 -33167781.05845  21587457.1804                   21587453.8714
 11  8 13  2 36 30.0000000  0  7G10G25G12G29G26G05G02
 -25756385.90247 -20052853.60043  23313704.8984                   23313702.8634
  -9952987.75448  -7735018.38646  21692289.9924                   21692290.8634
 -26292822.16047 -20470679.80546  21422987.5554                   21422985.2074
   4693638.80547   3673877.26944  22854254.1724                   22854253.4384
  15354431.84446  11982039.29343  24128310.2894                   24128309.6484
 -25858433.17648 -20132272.32446  20405159.7504                   20405158.3634
 -42609243.46548 -33183522.58345  21583613.5004                   21583610.1524
 11  8 13  2 37  0.0000000  0  7G10G25G12G29G26G05G02
 -25713418.22746 -20019372.33443  23321881.2584                   23321880.1294
 -10018049.28947  -7785715.66346  21679908.9614                   21679909.4694
 -26293886.11347 -20471508.85146  21422784.5634                   21422783.0664
   4553532.16047   3564703.35844  22827592.8984                   22827591.9304
  15200339.78146  11861967.57343  24098987.4774                   24098987.3204
 -25899937.14148 -20164613.03746  20397262.2194                   20397260.3164
 -42629308.50447 -33199157.65145  21579794.8984                   21579791.4654
 11  8 13  2 37 30.0000000  0  7G10G25G12G29G26G05G02
 -25670199.29746 -19985695.21643  23330105.4224                   23330105.1214
 -10082489.05148  -7835928.42746  21667646.7034                   21667647.7424
 -26294448.84447 -20471947.31846  21422677.8134                   21422675.9694
   4413525.21947   3455607.13844  22800949.7584                   22800949.6054
  15046294.03546  11741932.01043  24069673.2274                   24069673.3324
 -25940858.57048 -20196499.83946  20389474.9384                   20389473.2584
 -42649235.82847 -33214685.43045  21576003.3284                   21575999.6954
 11  8 13  2 38  0.0000000  0  7G10G25G12G29G26G05G02
 -25626733.47746 -19951825.72643  23338377.3674                   23338376.2194
 -10146308.67648  -7885657.99446  21655501.9534                   21655503.2234
 -26294514.13747 -20471998.17146  21422664.6414                   21422663.4654
   4273617.92247   3346588.55844  22774326.3134                   22774326.0634
  14892296.29646  11621933.88143  24040368.7274                   24040368.1994
 -25981200.19948 -20227934.85346  20381797.9384                   20381796.3794
 -42669027.36347 -33230107.39245  21572236.9144                   21572233.4264
 11  8 13  2 38 30.0000000  0  7G10G25G12G29G26G05G02
 -25583018.04347 -19917761.78643  23346696.4144                   23346695.1054
 -10209502.75847  -7934900.10246  21643476.7424                   21643477.3754
 -26294078.79747 -20471658.92246  21422748.0554                   21422746.3984
   4133817.54347   3237653.31744  22747723.6174                   22747722.3204
  14738355.39846  11501980.08343  24011074.2194                   24011073.7584
 -26020957.75448 -20258914.72446  20374232.3594                   20374230.7464
 -42688678.00448 -33245419.55945  21568497.1334                   21568494.1024
 11  8 13  2 39  0.0000000  0  7G10G25G12G29G26G05G02
 -25539057.54747 -19883506.82843  23355061.6414                   23355060.5084
 -10272073.18748  -7983656.24546  21631570.0394                   21631570.9964
 -26293146.69147 -20470932.57046  21422925.4844                   21422923.6684
   3994124.16447   3128801.43744  22721140.3204                   22721139.7234
  14584472.78546  11382071.54443  23981791.1954                   23981791.0554
 -26060134.43748 -20289441.98646  20366777.3524                   20366775.2774
 -42708189.58247 -33260623.37545  21564784.3364                   21564780.8674
 11  8 13  2 39 30.0000000  0  7G10G25G12G29G26G05G02
 -25494859.97347 -19849067.18943  23363471.7034                   23363470.5204
 -10334025.30948  -8031930.59346  21619780.4454                   21619781.4264
 -26291725.71147 -20469825.28046  21423195.6334                   21423193.9844
   3854534.48447   3020030.33044  22694577.5234                   22694576.2854
  14430646.85546  11262207.30543  23952519.8054                   23952518.1214
 -26098736.70348 -20319521.65346  20359431.5164                   20359429.5784
 -42727567.54347 -33275723.07745  21561096.9924                   21561093.6214
 11  8 13  2 40  0.0000000  0  7G10G25G12G29G26G05G02
 -25450426.20346 -19814443.45343  23371927.0234                   23371926.5044
 -10395357.56247  -8079721.92946  21608109.6564                   21608110.5474
 -26289816.17648 -20468337.31246  21423559.1254                   21423557.0984
   3715051.90247   2911342.70245  22668034.7194                   22668033.6024
  14276882.52046  11142390.99543  23923258.6484                   23923257.3164
 -26136764.28948 -20349153.50346  20352194.8364                   20352193.3954
 -42746810.72748 -33290717.74645  21557435.0554                   21557431.8204
 11  8 13  2 40 30.0000000  0  7G10G25G12G29G26G05G02
 -25405755.33247 -19779634.97143  23380427.6724                   23380426.8364
 -10456066.34448  -8127027.42646  21596557.1724                   21596558.3954
 -26287416.86347 -20466467.68546  21424015.7894                   21424013.9924
   3575682.14147   2802742.97645  22641513.1334                   22641512.1914
  14123187.18446  11022628.44443  23894011.5784                   23894009.2624
 -26174214.38348 -20378335.37046  20345068.2734                   20345066.8364
 -42765915.35547 -33305604.47345  21553799.2274                   21553796.2584
 11  8 13  2 41  0.0000000  0  7G10G25G12G29G26G05G02
 -25360856.32447 -19744648.74243  23388972.1484                   23388971.1764
 -10516158.04747  -8173852.09146  21585122.1254                   21585123.2854
 -26284536.05547 -20464222.86746  21424563.6564                   21424562.1564
   3436420.63747   2694227.59545  22615013.1884                   22615012.1024
  13969557.91046  10902917.40643  23864776.7974                   23864774.5634
 -26211094.59448 -20407073.17346  20338050.4454                   20338048.6884
 -42784887.43747 -33320387.90545  21550189.0474                   21550185.9184
 11  8 13  2 41 30.0000000  0  7G10G25G12G29G26G05G02
 -25315731.93446 -19709486.88343  23397558.4224                   23397558.0004
 -10575633.02348  -8220196.20546  21573804.1884                   21573804.9384
 -26281176.42247 -20461604.95746  21425203.1254                   21425201.0314
   3297269.21147   2585797.97245  22588533.2344                   22588532.2854
  13815998.17646  10783260.45443  23835555.2194                   23835553.5084
 -26247406.37148 -20435368.04346  20331140.7664                   20331138.7034
 -42803727.76647 -33335068.69345  21546604.0944                   21546600.7854
 11  8 13  2 42  0.0000000  0  7G10G25G12G29G26G05G02
 -25270380.22346 -19674147.89643  23406188.8914                   23406187.9534
 -10634486.86747  -8266056.30346  21562604.6484                   21562605.3324
 -26277335.67247 -20458612.17746  21425934.5634                   21425931.8984
   3158234.23047   2477459.12245  22562075.9384                   22562074.8324
  13662515.89146  10663663.98343  23806348.7814                   23806347.5634
 -26283146.56248 -20463217.53146  20324339.4304                   20324337.5744
 -42822431.82848 -33349643.29545  21543044.7584                   21543041.0944
 11  8 13  2 42 30.0000000  0  7G10G25G12G29G26G05G02
 -25224804.12146 -19638634.09443  23414861.3524                   23414860.8674
 -10692720.18447  -8311432.87146  21551523.3204                   21551523.7274
 -26273016.55147 -20455246.65746  21426755.7894                   21426754.2384
   3019317.46547   2369212.34945  22535641.0634                   22535639.2544
  13509114.22346  10544130.23543  23777157.3204                   23777156.6254
 -26318316.87148 -20490622.95246  20317646.4304                   20317645.0904
 -42841000.21947 -33364112.16645  21539511.1564                   21539507.6994
 11  8 13  2 43  0.0000000  0  7G10G25G12G29G26G05G02
 -25179009.80946 -19602950.25443  23423576.7274                   23423575.6604
 -10750336.80547  -8356328.90346  21540559.1644                   21540560.1724
 -26268224.86747 -20451512.90146  21427667.8364                   21427666.1684
   2880517.02047   2261056.22345  22509227.3524                   22509226.5394
  13355793.55546  10424659.69243  23747980.9774                   23747981.0044
 -26352922.10948 -20517588.05146  20311061.6174                   20311059.7504
 -42859436.36347 -33378477.98045  21536003.1804                   21535999.5274
 11  8 13  2 43 30.0000000  0  7G10G25G12G29G26G05G02
 -25133000.80946 -19567099.01843  23432331.5164                   23432330.4104
 -10807337.75847  -8400745.18846  21529712.2034                   21529713.0044
 -26262964.03947 -20447413.55946  21428668.9224                   21428666.9844
   2741834.16847   2152991.73445  22482836.5394                   22482835.9924
  13202556.10246  10305253.88243  23718821.3754                   23718820.5864
 -26386964.55548 -20544114.60546  20304583.5394                   20304581.5044
 -42877741.32447 -33392741.58445  21532519.6884                   21532516.2154
 11  8 13  2 44  0.0000000  0  7G10G25G12G29G26G05G02
 -25086779.03146 -19531082.07043  23441127.2584                   23441126.8714
 -10863722.53547  -8444681.34446  21518982.2194                   21518983.1954
 -26257235.16447 -20442949.52046  21429759.1484                   21429757.5434
   2603271.88347   2045021.18945  22456469.3364                   22456468.2664
  13049406.53146  10185916.66243  23689677.1724                   23689676.8914
 -26420444.64848 -20570202.97546  20298211.8914                   20298210.6884
 -42895914.23447 -33406902.30045  21529061.3444                   21529057.6024
 11  8 13  2 44 30.0000000  0  7G10G25G12G29G26G05G02
 -25040346.35946 -19494900.70043  23449963.4774                   23449962.2734
 -10919490.52348  -8488136.90446  21508370.0164                   21508370.3984
 -26251040.18047 -20438122.28446  21430938.1954                   21430936.1844
   2464833.11347   1937146.88845  22430125.4694                   22430124.8324
  12896349.28146  10066651.28144  23660552.2344                   23660551.4844
 -26453362.96948 -20595853.59946  20291948.3524                   20291946.5164
 -42913954.45347 -33420959.60145  21525629.0314                   21525624.9694
 11  8 13  2 45  0.0000000  0  7G10G25G12G29G26G05G02
 -24993709.34446 -19458560.21143  23458837.8984                   23458837.0554
 -10974646.41847  -8531115.48146  21497874.4304                   21497875.3054
 -26244385.07847 -20432936.49146  21432204.3054                   21432202.2424
   2326514.89847   1829366.51045  22403804.0314                   22403803.0204
  12743383.41846   9947457.20544  23631443.2894                   23631442.5784
 -26485725.30947 -20621070.98746  20285789.6484                   20285788.4144
 -42931866.56247 -33434917.09245  21522220.1414                   21522216.5354
 11  8 13  2 45 30.0000000  0  7G10G25G12G29G26G05G02
 -24946868.23046 -19422060.61943  23467751.2344                   23467750.8444
 -11029188.03147  -8573615.41746  21487495.3134                   21487495.6724
 -26237270.43447 -20427392.62846  21433558.3594                   21433556.4414
   2188321.85547   1721683.65345  22377507.2664                   22377506.1374
  12590515.14546   9828339.09344  23602353.7274                   23602352.5314
 -26517530.28547 -20645854.07646  20279737.2194                   20279735.5274
 -42949647.76647 -33448772.56845  21518836.3204                   21518832.6134
 11  8 13  2 46  0.0000000  0  7G10G25G12G29G26G05G02
 -24899823.84846 -19385402.68543  23476703.1954                   23476702.4734
 -11083114.34847  -8615635.90446  21477233.3364                   21477233.9654
 -26229697.00447 -20421491.24546  21434999.4454                   21434997.5594
   2050257.82447   1614101.34345  22351234.1884                   22351233.1174
  12437749.48046   9709300.96444  23573283.1334                   23573282.2384
 -26548778.13347 -20670203.02846  20273791.6334                   20273790.2114
 -42967296.64147 -33462524.91445  21515477.6334                   21515474.2504
 11  8 13  2 46 30.0000000  0  8G10G25G12G29G26G05G15G02
 -24852584.43746 -19348592.78643  23485692.8674                   23485692.4884
 -11136430.99647  -8657181.33746  21467087.6334                   21467088.4534
 -26221672.55147 -20415238.42045  21436526.2584                   21436524.3484
   1912319.55547   1506617.03945  22324985.4144                   22324983.9964
  12285085.00846   9590341.63344  23544231.5704                   23544231.0434
 -26579476.10248 -20694123.51446  20267949.5084                   20267948.2034
  21834300.28556  17027189.71553  24480514.1414                   24480513.3554
 -42984818.84847 -33476178.56245  21512143.8364                   21512139.8014
 11  8 13  2 47  0.0000000  0  8G10G25G12G29G26G05G15G02
 -24805156.03946 -19311635.51343  23494717.9844                   23494717.0164
 -11189141.95347  -8698254.78346  21457057.1024                   21457057.5634
 -26213202.96947 -20408638.73346  21438137.8754                   21438136.3794
   1774505.20347   1399229.32545  22298760.3134                   22298759.2464
  12132521.66846   9471461.17443  23515200.4694                   23515199.4614
 -26609628.10248 -20717618.56146  20262211.6884                   20262210.2464
  21683015.79746  16909305.83343  24451725.3204                   24451725.0784
 -43002217.45347 -33489735.91145  21508832.8054                   21508829.0634
 11  8 13  2 47 30.0000000  0  8G10G25G12G29G26G05G15G02
 -23182129.74247 -18046939.69143  23803570.0554                   23803568.7584
  -9665833.00847  -7511260.78846  21746933.5004                   21746933.8874
 -24628878.31247 -19174100.03746  21739625.5704                   21739622.9734
   3212234.68047   2519538.08345  22572351.1954                   22572350.0394
  13555480.89846  10580260.62143  23785980.6484                   23785979.2074
 -25063822.03948 -19513094.34046  20556369.0634                   20556367.4654
  23107057.14146  18018948.53143  24722711.9224                   24722711.0824
 -41444079.27347 -32275602.23645  21805336.7734                   21805333.1484
 11  8 13  2 48  0.0000000  0  8G10G25G12G29G26G05G15G02
 -23134346.19947 -18009705.72543  23812662.7034                   23812661.4184
  -9717349.23047  -7551403.28146  21737130.0704                   21737130.4884
 -24619541.22747 -19166824.37945  21741401.9224                   21741400.0124
   3074659.52747   2412336.73745  22546171.4534                   22546170.1294
  13403115.29346  10461534.20443  23756986.0474                   23756985.1844
 -25092902.89547 -19535754.73146  20550835.2734                   20550833.1644
  22955575.93046  17900911.32243  24693885.1564                   24693884.6054
 -41461246.64147 -32288979.38045  21802069.5634                   21802065.5044
 11  8 13  2 48 30.0000000  0  8G10G25G12G29G26G05G15G02
 -23086390.60247 -17972337.74743  23821788.4384                   23821787.5864
  -9768270.41447  -7591082.10646  21727439.8914                   21727440.6214
 -24609775.44547 -19159214.68146  21743260.4224                   21743258.4414
   2937205.37147   2305229.64845  22520014.3914                   22520012.8364
  13250852.68447  10342888.09643  23728011.3914                   23728010.6484
 -25121452.11747 -19558000.86346  20545402.5004                   20545400.3984
  22803998.81346  17782799.41943  24665040.3594                   24665040.4304
 -41478299.87947 -32302267.58745  21798824.1804                   21798820.8834
 11  8 13  2 49  0.0000000  0  8G10G25G12G29G26G05G15G02
 -23038262.47746 -17934835.31943  23830947.1024                   23830946.4804
  -9818594.35947  -7630295.54946  21717863.6334                   21717864.5744
 -24599580.85947 -19151270.83145  21745200.2894                   21745198.0234
   2799877.15647   2198220.72745  22493882.2584                   22493880.3444
  13098698.99146  10224326.88043  23699057.3524                   23699056.1024
 -25149468.37148 -19579831.69346  20540071.2664                   20540069.2664
  22652330.91846  17664616.76843  24636179.3834                   24636178.6454
 -41495236.41847 -32315464.87245  21795601.9534                   21795598.3324
 11  8 13  2 49 30.0000000  0  8G10G25G12G29G26G05G15G02
 -22989963.35946 -17897199.67043  23840137.8364                   23840137.0474
  -9868320.29748  -7669043.01946  21708400.7894                   21708402.1374
 -24588958.79347 -19142993.87446  21747221.9304                   21747219.8164
   2662678.20347   2091312.54745  22467773.8674                   22467772.4384
  12946659.66046  10105854.76143  23670125.5474                   23670123.5084
 -25176951.94148 -19601247.43046  20534841.0474                   20534839.3914
  22500576.57046  17546366.73943  24607300.5474                   24607300.4884
 -41512054.95747 -32328570.21845  21792401.1174                   21792397.3484
 11  8 13  2 50  0.0000000  0  8G10G25G12G29G26G05G15G02
 -22941494.90646 -17859432.03343  23849360.6954                   23849360.1804
  -9917448.27347  -7707324.54046  21699052.4064                   21699053.1764
 -24577911.03947 -19134385.23745  21749324.0784                   21749322.1644
   2525611.08247   1984507.08245  22441690.9454                   22441689.1604
  12794738.66046   9987474.79243  23641215.4844                   23641213.3794
 -25203903.69147 -19622248.79146  20529711.9694                   20529710.3954
  22348738.87146  17428051.76543  24578407.1724                   24578406.2734
 -41528754.70347 -32341583.00345  21789223.4384                   21789219.6804
 11  8 13  2 50 30.0000000  0  8G10G25G12G29G26G05G15G02
 -22892859.45846 -17821534.29243  23858615.5944                   23858614.7894
  -9965978.62947  -7745140.34646  21689817.1174                   21689818.0044
 -24566439.98447 -19125446.77045  21751506.8754                   21751504.7664
   2388678.07847   1877806.14045  22415632.7974                   22415631.4184
  12642939.86346   9869190.15843  23612328.8834                   23612327.5904
 -25230325.03947 -19642836.83546  20524684.2814                   20524682.3594
  22196820.85246  17309674.17143  24549497.9064                   24549497.5864
 -41545335.68447 -32354503.21745  21786067.8914                   21786064.2384
 11  8 13  2 51  0.0000000  0  8G10G25G12G29G26G05G15G02
 -22844056.79346 -17783506.33043  23867902.3914                   23867902.1454
 -10013909.22747  -7782488.85646  21680696.5314                   21680697.0274
 -24554544.90647 -19116177.87645  21753770.1484                   21753768.0474
   2251884.08246   1771213.48945  22389601.5314                   22389600.6724
  12491269.87546   9751005.80443  23583467.2504                   23583466.0594
 -25256215.16448 -19663010.94146  20519757.4844                   20519755.7814
  22044828.03146  17191238.27043  24520574.7734                   24520574.1724
 -41561794.68047 -32367328.39945  21782936.1954                   21782931.8984
 11  8 13  2 51 30.0000000  0  8G10G25G12G29G26G05G15G02
 -22795088.08646 -17745348.90143  23877221.7734                   23877220.6524
 -10061239.41447  -7819369.49446  21671690.1174                   21671690.2114
 -24542227.60547 -19106579.97445  21756114.0944                   21756112.0904
   2115232.61347   1664731.90145  22363598.1094                   22363596.1954
  12339733.66846   9632925.67943  23554630.3834                   23554629.1954
 -25281574.07048 -19682771.11746  20514932.0634                   20514930.4184
  21892764.37146  17072747.30343  24491638.3364                   24491637.0474
 -41578130.74647 -32380057.77945  21779826.9384                   21779823.0824
 11  8 13  2 52  0.0000000  0  8G10G25G12G29G26G05G15G02
 -22745959.79746 -17707067.15743  23886569.9534                   23886569.5044
 -10107973.65248  -7855785.75746  21662796.3134                   21662796.7274
 -24529494.21547 -19096657.82046  21758537.1094                   21758535.5474
   1978721.76247   1558359.87345  22337620.7814                   22337619.4694
  12188330.92246   9514949.60443  23525819.5554                   23525818.4064
 -25306407.05148 -19702121.47746  20510206.5634                   20510204.6334
  21740628.93446  16954200.24243  24462687.3754                   24462685.8484
 -41594347.46947 -32392694.17345  21776741.2424                   21776737.3754
 11  8 13  2 52 30.0000000  0  8G10G25G12G29G26G05G15G02
 -22696673.54346 -17668662.29743  23895949.0634                   23895948.1604
 -10154112.06247  -7891737.74546  21654016.7664                   21654017.0904
 -24516346.64847 -19086412.94445  21761039.5474                   21761037.1954
   1842354.49247   1452099.75045  22311671.0164                   22311669.4184
  12037066.24647   9397081.10144  23497034.8754                   23497034.2544
 -25330715.05148 -19721062.74746  20505580.7814                   20505579.4224
  21588425.03546  16835599.93743  24433724.0234                   24433722.6524
 -41610444.24247 -32405237.09845  21773677.8594                   21773674.5704
 11  8 13  2 53  0.0000000  0  8G10G25G12G29G26G05G15G02
 -22647231.14546 -17630135.80443  23905357.3204                   23905356.5274
 -10199654.58247  -7927225.40946  21645349.9384                   21645350.7154
 -24502786.90247 -19075846.91445  21763619.1644                   21763617.7704
   1706133.73047   1345953.77145  22285749.0554                   22285747.0514
  11885944.11346   9279323.64144  23468277.5944                   23468276.0784
 -25354499.33648 -19739595.94846  20501054.7664                   20501053.1294
  21436156.08646  16716948.84543  24404748.5704                   24404747.4734
 -41626420.29747 -32417685.97545  21770638.0784                   21770634.7464
 11  8 13  2 53 30.0000000  0  8G10G25G12G29G26G05G15G02
 -22597631.48446 -17591486.77743  23914796.3594                   23914795.5554
 -10244598.46547  -7962246.57446  21636797.5084                   21636797.9654
 -24488813.69147 -19064958.67545  21766278.4304                   21766276.7854
   1570065.41847   1239926.58145  22259855.9844                   22259854.4454
  11734971.64846   9161682.84444  23439547.6094                   23439546.3014
 -25377757.91847 -19757719.47646  20496628.9384                   20496626.8594
  21283828.47746  16598252.13243  24375761.1094                   24375760.2544
 -41642271.89547 -32430037.84545  21767621.3834                   21767617.8244
 11  8 13  2 54  0.0000000  0  8G10G25G12G29G26G05G15G02
 -22547882.23846 -17552721.15643  23924263.8594                   23924262.2774
 -10288949.87947  -7996806.09246  21628357.6954                   21628358.6374
 -24474435.19147 -19053754.64145  21769014.7664                   21769012.5164
   1434145.71147   1134015.17045  22233991.3834                   22233989.9924
  11584147.23446   9044157.41644  23410847.2274                   23410846.6564
 -25400498.23448 -19775439.18246  20492301.3914                   20492299.7234
  21131439.59046  16479507.65843  24346762.6644                   24346761.8054
 -41658004.34847 -32442296.90045  21764627.2274                   21764623.6684
 11  8 13  2 54 30.0000000  0  8G10G25G12G29G26G05G15G02
 -22497985.09846 -17513840.21543  23933758.5234                   23933757.7504
 -10332708.53947  -8030903.73146  21620030.9064                   21620031.2734
 -24459652.76247 -19042235.83946  21771827.8754                   21771825.6644
   1298378.12147   1028222.29845  22208155.5004                   22208153.9454
  11433475.52347   8926750.91644  23382175.3834                   23382174.3484
 -25422720.07848 -19792754.88646  20488072.5864                   20488070.8674
  20978993.10946  16360718.32843  24317753.0084                   24317752.0944
 -41673616.55147 -32454462.25245  21761656.7734                   21761652.9264
 11  8 13  2 55  0.0000000  0  8G10G25G12G29G26G05G15G02
 -22447938.25046 -17474842.66943  23943282.4534                   23943280.6844
 -10375871.10548  -8064536.86546  21611817.1024                   21611817.7424
 -24444465.03547 -19030401.22945  21774717.8674                   21774715.9694
   1162768.91447    922552.84345  22182350.0314                   22182348.3284
  11282964.60247   8809469.74144  23353533.4924                   23353533.5204
 -25444421.51248 -19809665.07546  20483942.8054                   20483941.0594
  20826496.26246  16241889.73243  24288733.9064                   24288732.8594
 -41689104.21947 -32466530.55645  21758709.3674                   21758706.2854
 11  8 13  2 55 30.0000000  0  8G10G25G12G29G26G05G15G02
 -22397745.12146 -17435731.17843  23952833.5554                   23952832.4884
 -10418439.30948  -8097706.87146  21603716.9064                   21603716.8404
 -24428875.49647 -19018253.51745  21777684.3834                   21777682.5434
   1027319.63347    817008.00345  22156574.7504                   22156573.3014
  11132617.36747   8692316.12844  23324924.3364                   23324923.1484
 -25465605.11748 -19826171.76646  20479912.0314                   20479910.2894
  20673951.00447  16123023.40943  24259705.4844                   24259704.4184
 -41704468.26647 -32478502.52145  21755785.9924                   21755782.5084
 11  8 13  2 56  0.0000000  0  8G10G25G12G29G26G05G15G02
 -22347408.78146 -17396508.02843  23962411.5394                   23962411.1174
 -10460414.98048  -8130415.16946  21595728.4844                   21595729.3014
 -24412887.59847 -19005795.38545  21780726.8594                   21780724.4064
    892031.37547    711588.64045  22130830.4144                   22130828.5594
  10982436.62946   8575292.28744  23296345.5394                   23296344.6604
 -25486273.51648 -19842276.98846  20475978.9144                   20475977.2544
  20521359.11746  16004120.77543  24230667.7194                   24230667.1054
 -41719709.71547 -32490378.96045  21752885.3674                   21752881.5864
 11  8 13  2 56 30.0000000  0  8G10G25G12G29G26G05G15G02
 -22296936.85246 -17357179.26043  23972016.8754                   23972015.5354
 -10501804.25448  -8162666.53946  21587852.8204                   21587853.3554
 -24396509.19947 -18993032.95545  21783843.1414                   21783840.9694
    756901.23847    606292.47145  22105115.8054                   22105114.0554
  10832420.69546   8458396.79144  23267798.0234                   23267797.3094
 -25506433.57848 -19857986.12846  20472142.6484                   20472140.6644
  20368718.22746  15885179.88644  24201620.9454                   24201620.7384
 -41734833.09447 -32502163.39545  21750007.7734                   21750003.5274
 11  8 13  2 57  0.0000000  0  8G10G25G12G29G26G05G15G02
 -22246330.30546 -17317745.59042  23981646.1724                   23981645.4224
 -10542606.66448  -8194460.60146  21580088.1414                   21580088.9964
 -24379741.74647 -18979967.38245  21787034.3364                   21787032.0634
    621932.80547    501122.31745  22079431.8984                   22079430.6684
  10682574.92647   8341633.84344  23239283.2974                   23239282.7664
 -25526085.76248 -19873299.51246  20468403.0234                   20468400.9694
  20216032.31346  15766203.95343  24172566.1644                   24172565.9304
 -41749837.13347 -32513854.84545  21747152.7114                   21747148.2274
 11  8 13  2 57 30.0000000  0  8G10G25G12G29G26G05G15G02
 -22195590.30546 -17278207.94542  23991302.8284                   23991301.1604
 -10582821.64148  -8225796.92846  21572435.8754                   21572436.2074
 -24362586.30547 -18966599.49445  21790298.3594                   21790296.6804
    487129.59447    396080.91445  22053779.6254                   22053777.8634
  10532904.23446   8225007.29544  23210801.2504                   23210801.4184
 -25545230.43048 -19888217.41646  20464759.9614                   20464757.6214
  20063305.75446  15647196.39943  24143502.7034                   24143501.8714
 -41764720.42647 -32525452.21045  21744320.2894                   21744316.7194
 11  8 13  2 58  0.0000000  0  8G10G25G12G29G26G05G15G02
 -22144721.27346 -17238569.74843  24000982.1564                   24000981.3984
 -10622452.33248  -8256677.96946  21564893.8134                   21564894.9734
 -24345047.75447 -18952933.06445  21793635.9304                   21793633.9884
    352491.87547    291168.45245  22028158.7974                   22028157.6564
  10383410.69947   8108518.76344  23182353.7274                   23182352.8204
 -25563871.82048 -19902743.16746  20461212.5394                   20461210.4304
  19910539.58146  15528157.91843  24114432.2344                   24114431.0984
 -41779484.84047 -32536956.94445  21741510.5784                   21741507.0744
 11  8 13  2 58 30.0000000  0  8G10G25G12G29G26G05G15G02
 -22093721.90646 -17198829.98943  24010686.7894                   24010686.5634
 -10661495.83248  -8287101.47446  21557464.6094                   21557464.9064
 -24327124.65647 -18938967.00045  21797046.4304                   21797044.8984
    218025.32047    186389.36045  22002570.8134                   22002569.1724
  10234101.87947   7992174.25644  23153941.8834                   23153941.0274
 -25582007.47748 -19916874.84546  20457761.1024                   20457759.6024
  19757740.59446  15409093.86543  24085355.9144                   24085354.4534
 -41794126.04747 -32548365.67345  21738724.4694                   21738720.8634
 11  8 13  2 59  0.0000000  0  8G10G25G12G29G26G05G15G02
 -22042596.31246 -17158991.84743  24020415.9454                   24020416.0704
 -10699955.23448  -8317069.82546  21550145.7894                   21550146.6804
 -24308821.40647 -18924704.71245  21800529.5474                   21800527.4614
     83730.57847     81744.15145  21977015.1094                   21977013.9344
  10084979.58247   7875975.07743  23125565.3914                   23125563.9804
 -25599641.11348 -19930615.30946  20454405.5394                   20454403.6724
  19604909.37946  15290004.71343  24056272.4224                   24056271.5124
 -41808646.56247 -32559680.36345  21735961.5314                   21735957.7814
 11  8 13  2 59 30.0000000  0  8G10G25G12G29G26G05G15G02
 -21991345.58646 -17119056.24343  24030168.4064                   24030168.7734
 -10737830.42248  -8346582.95146  21542938.5634                   21542939.2344
 -24290139.89147 -18910147.68945  21804084.8054                   21804082.5314
    -50388.73847    -22764.36845  21951493.0554                   21951491.6724
   9936048.62547   7759925.00844  23097224.5634                   23097223.1684
 -25616773.60248 -19943965.29646  20451145.6254                   20451143.8954
  19452050.02346  15170893.59543  24027184.8984                   24027183.3204
 -41823044.78547 -32570899.73445  21733221.8364                   21733217.3094
 11  8 13  3  0  0.0000000  0  8G10G25G12G29G26G05G15G02
 -21939973.55946 -17079026.18743  24039943.7814                   24039943.7304
 -10775123.71948  -8375642.62746  21535841.6254                   21535842.4064
 -24271084.62147 -18895299.40945  21807710.5084                   21807708.3984
   -184332.07847   -127135.74345  21926004.7584                   21926002.9024
   9787311.60946   7644026.09244  23068919.1644                   23068919.9264
 -25633407.92648 -19956927.10446  20447980.2424                   20447978.3834
  19299163.94946  15051761.65143  23998090.8444                   23998090.3714
 -41837321.81647 -32582024.68545  21730504.7194                   21730500.6844
 11  8 13  3  0 30.0000000  0  8G10G25G12G29G26G05G15G02
 -21888479.20746 -17038900.63943  24049743.8914                   24049742.3014
 -10811832.98048  -8404247.24346  21528856.2664                   21528856.6134
 -24251654.59047 -18880159.11945  21811408.3594                   21811405.9804
   -318093.77047   -231365.56145  21900550.4924                   21900549.4414
   9638775.68047   7528283.90644  23040655.0084                   23040653.7734
 -25649542.75048 -19969499.67846  20444909.9144                   20444907.4694
  19146257.64146  14932613.91643  23968993.7504                   23968993.0434
 -41851474.01247 -32593052.37445  21727811.8284                   21727808.6684
 11  8 13  3  1  0.0000000  0  8G10G25G12G29G26G05G15G02
 -21836869.68046 -16998685.44943  24059564.4534                   24059563.9144
 -10847964.04748  -8432401.30146  21521980.8364                   21521981.5044
 -24231857.09447 -18864732.50845  21815175.5784                   21815173.7194
   -451676.18747   -335455.71345  21875130.5864                   21875129.1914
   9490439.86347   7412697.66944  23012427.3364                   23012426.0554
 -25665184.68047 -19981688.20046  20441933.6024                   20441931.0274
  18993329.05546  14813448.92043  23939892.7504                   23939891.3404
 -41865506.20347 -32603986.56945  21725141.4844                   21725138.0124
 11  8 13  3  1 30.0000000  0  8G10G25G12G29G26G05G15G02
 -20209729.56646 -15730784.00643  24369199.7114                   24369198.0044
  -9308097.43048  -7232505.24046  21815007.7344                   21815008.1804
 -22636276.12947 -17621422.66245  22118804.1724                   22118802.5234
    990346.77747    788198.59845  22149538.4064                   22149537.2424
  10917732.16446   8524873.58544  23284032.1644                   23284030.9574
 -24104915.86747 -18765894.30746  20738842.7194   20738840.4574   20415805.93846
  15921872.56143                  24210580.5164                   24210579.5274
 -40303998.18747 -31387227.09945  22022286.7974                   22022282.8984
 11  8 13  3  2  0.0000000  0  8G10G25G12G29G26G05G15G02
 -20157896.97346 -15690394.98243  24379062.2034                   24379061.1884
  -9343076.07048  -7259761.30746  21808351.5554                   21808351.7854
 -22615752.44947 -17605430.16545  22122710.3914                   22122707.9184
    857129.07847    684392.65345  22124187.8204                   22124186.5434
  10769807.38747   8409607.61644  23255882.9304                   23255881.9454
 -24119578.55547 -18777319.76746  20736052.3524   20736050.4024   20262841.23447
  15802679.30843                  24181473.2734                   24181470.9414
 -40317790.21547 -31397974.14145  22019661.6804                   22019657.9144
 11  8 13  3  2 30.0000000  0  8G10G25G12G29G26G05G15G02
 -20105955.65246 -15649921.20843  24388946.5234                   24388944.8984
  -9377479.65248  -7286569.27546  21801804.8914                   21801805.0984
 -22594869.16847 -17589157.49945  22126684.0704                   22126681.6684
    724097.68447    580731.87645  22098873.2344                   22098871.4344
  10622094.31347   8294506.57844  23227773.8444                   23227772.7154
 -24133753.76647 -18788365.39046  20733354.5164   20733352.7774   20109863.62546
  15683476.03843                  24152361.9844                   24152360.1524
 -40331461.16447 -31408626.86545  22017060.5634                   22017056.9304
 11  8 13  3  3  0.0000000  0  8G10G25G12G29G26G05G15G02
 -20053908.30546 -15609364.78143  24398850.8364                   24398849.5824
  -9411309.69948  -7312930.34046  21795366.8054                   21795367.1804
 -22573629.14547 -17572606.79445  22130725.8054                   22130723.3984
    591254.70747    477217.90845  22073593.6884                   22073592.1294
  10474596.49647   8179573.25944  23199705.9844                   23199704.7194
 -24147443.75847 -18799032.90546  20730749.8364   20730747.5904   19956875.48846
  15564264.59643                  24123249.0634                   24123247.2274
 -40345011.28547 -31419185.41545  22014482.2114                   22014478.0744
 11  8 13  3  3 30.0000000  0  8G10G25G12G29G26G05G15G02
 -20001755.18446 -15568726.01642  24408775.0554                   24408774.0744
  -9444565.72348  -7338844.10346  21789038.3834                   21789039.3484
 -22552033.78947 -17555779.25545  22134835.3444                   22134833.1884
    458604.31347    373854.01345  22048351.2344                   22048349.1804
  10327319.53947   8064811.99644  23171680.2974                   23171678.9844
 -24160648.50047 -18809322.30746  20728237.0474   20728235.0944   19803881.64546
  15445048.69543                  24094134.6484                   24094133.3164
 -40358438.47347 -31429648.13345  22011926.5394                   22011922.7624
 11  8 13  3  4  0.0000000  0  8G10G25G12G29G26G05G15G02
 -19949498.34046 -15528006.37243  24418718.9924                   24418717.5784
  -9477248.45748  -7364311.15446  21782819.4144                   21782819.8754
 -22530085.33247 -17538676.53945  22139011.9924                   22139009.7384
    326149.08247    270642.19545  22023145.7974                   22023143.9884
  10180267.93847   7950226.44644  23143696.9774                   23143695.8714
 -24173369.54747 -18819234.80346  20725815.8914   20725814.3094   19650885.52746
  15325831.03543                  24065021.4064                   24065019.7704
 -40371742.08647 -31440014.58445  22009395.2664                   22009391.5864
 11  8 13  3  4 30.0000000  0  8G10G25G12G29G26G05G15G02
 -19897146.33246 -15487212.61343  24428681.8984                   24428680.4024
  -9509365.67248  -7389337.53746  21776707.3444                   21776708.1094
 -22507792.84047 -17521305.76545  22143254.2344                   22143251.7624
    193885.17647    167579.47345  21997976.5394                   21997975.1564
  10033438.94147   7835814.33344  23115756.0474                   23115754.7664
 -24185615.41047 -18828777.03246  20723486.0554   20723483.7704   19497883.74246
  15206608.94843                  24035906.1564                   24035905.1684
 -40384928.30946 -31450289.56245  22006886.2344                   22006882.6174
 11  8 13  3  5  0.0000000  0  8G10G25G12G29G26G05G15G02
 -19844697.35946 -15446343.22843  24438661.7274                   24438661.2974
  -9540914.55548  -7413921.07446  21770703.6564                   21770704.7154
 -22485155.09447 -17503665.94045  22147561.8594                   22147559.7974
     61818.68047     64670.55445  21972845.0474                   21972843.6024
   9886840.57446   7721581.87644  23087858.8444                   23087857.9574
 -24197383.81247 -18837947.22746  20721246.7584   20721244.2704   19344883.09846
  15087387.78444                  24006790.2894                   24006789.4774
 -40397992.96147 -31460469.85045  22004400.0554                   22004396.2934
 11  8 13  3  5 30.0000000  0  8G10G25G12G29G26G05G15G02
 -19792156.84446 -15405402.61143  24448660.6564                   24448659.5434
  -9571899.38348  -7438065.07046  21764807.7274                   21764808.0394
 -22462177.15247 -17485761.06145  22151934.3524                   22151932.3404
    -70050.86347    -38084.86645  21947751.3594                   21947749.5474
   9740473.63747   7607529.79244  23060006.4224                   23060005.4264
 -24208679.80547 -18846749.28746  20719096.8134   20719095.1134   19191883.94546
  14968167.73143                  23977675.7034                   23977674.3284
 -40410938.60247 -31470557.33545  22001936.5084                   22001932.3134
 11  8 13  3  6  0.0000000  0  9G10G25G12G29G26G05G15G21G02
 -19739524.57446 -15364390.36342  24458676.2734                   24458674.7894
  -9602319.26248  -7461768.87346  21759019.5474                   21759019.7584
 -22438860.53947 -17467592.23245  22156371.4924                   22156369.0164
   -201718.77347   -140683.18245  21922695.6484                   21922693.6524
   9594344.23047   7493662.78944  23032199.9304                   23032198.3984
 -24219503.10248 -18855183.02846  20717037.2584   20717035.3134   19038891.49646
  14848952.87843                  23948562.4534                   23948561.1604
                                  25040027.61316                  25218915.016
 -40423762.81647 -31480550.23745  21999496.6644                   21999492.0704
 11  8 13  3  6 30.0000000  0  9G10G25G12G29G26G05G15G21G02
 -19686814.14846 -15323317.32042  24468706.0554                   24468704.5944
  -9632186.84448  -7485042.29346  21753335.3594                   21753336.1134
 -22415218.67647 -17449169.98145  22160870.3524                   22160868.0984
   -333194.13747   -243131.46945  21897676.8364                   21897674.5004
   9448444.93447   7379975.16944  23004435.2274                   23004434.2384
 -24229866.71548 -18863258.56246  20715065.3054   20715063.2304   18885897.34846
  14729736.75743                  23919448.3674                   23919446.8984
                                  24926414.832 6                  25197295.227
 -40436476.73847 -31490457.20745  21997076.7894                   21997072.5634
 11  8 13  3  7  0.0000000  0  9G10G25G12G29G26G05G15G21G02
 -19634034.15246 -15282190.02342  24478749.6954                   24478747.9344
  -9661510.20747  -7507891.64846  21747755.3134                   21747756.0084
 -22391261.14547 -17430501.75045  22165429.2974                   22165427.1134
   -464481.25847   -345433.07345  21872693.5634                   21872691.7704
   9302773.09446   7266464.72544  22976714.8284                   22976713.9964
 -24239779.45347 -18870982.75946  20713178.8834   20713176.5594   18732897.80046
  14610516.44843                  23890333.7664                   23890332.5124
                                  24812825.922 6                  25175680.516
 -40449086.62947 -31500283.06145  21994677.0004                   21994673.3834
 11  8 13  3  7 30.0000000  0  9G10G25G12G29G26G05G15G21G02
 -19581184.15646 -15241008.12942  24488806.7664                   24488804.9024
  -9690287.64848  -7530315.62646  21742278.9144                   21742279.7894
 -22366987.58647 -17411587.28745  22170048.4614                   22170045.8054
   -595574.49247   -447583.59845  21847747.2584                   21847745.1134
   9157335.44547   7153136.72944  22949039.0784                   22949038.1024
 -24249240.38348 -18878354.90946  20711378.1804   20711376.6174   18579898.80946
  14491296.41943                  23861218.2974                   23861216.9304
  24699263.93446                  19256349.03653  25154070.0784   25154068.8484
 -40461589.12147 -31510025.28545  21992298.0784                   21992294.4844
 11  8 13  3  8  0.0000000  0  9G10G25G12G29G26G05G15G21G02
 -19528265.18046 -15199772.52042  24498877.0084                   24498875.6294
  -9718519.69948  -7552314.60446  21736906.5704                   21736907.3714
 -22342400.03147 -17392428.12245  22174727.1254                   22174724.7974
   -726470.68047   -549580.58145  21822838.8134                   21822836.7814
   9012136.77346   7039994.97544  22921408.3284                   22921407.5514
 -24258250.58247 -18885375.83146  20709663.7894   20709662.2584   18426904.97346
  14372080.53544                  23832105.4454                   23832103.9694
  24585729.20746                  19167880.53542  25132465.0634   25132463.1024
 -40473983.11347 -31519682.93845  21989939.6174                   21989935.8164
 11  8 13  3  8 30.0000000  0  9G10G25G12G29G26G05G15G21G02
 -19475279.08245 -15158484.63342  24508960.7114                   24508958.9024
  -9746207.61347  -7573889.60246  21731637.9384                   21731638.7154
 -22317501.14547 -17373026.38045  22179465.1884                   22179462.6724
   -857167.14847   -651421.95045  21797968.0554                   21797965.7074
   8867181.18447   6927042.59544  22893824.4454                   22893823.3914
 -24266812.12147 -18892047.16346  20708034.9304   20708033.0704   18273918.87546
  14252870.67144                  23802992.8524                   23802991.8284
  24472221.56645                  19079433.14142  25110864.4924   25110862.8874
 -40486268.19947 -31529255.72845  21987601.8674                   21987597.9344
 11  8 13  3  9  0.0000000  0  9G10G25G12G29G26G05G15G21G02
 -19422227.12545 -15117145.43042  24519056.3054                   24519054.7304
  -9773352.24247  -7595041.25246  21726472.2274                   21726473.0164
 -22292292.67647 -17353383.40145  22184262.4144                   22184260.0084
   -987660.82447   -753105.28445  21773135.8284                   21773133.8204
   8722473.18847   6814283.19244  22866287.2734                   22866286.2974
 -24274925.85247 -18898369.52546  20706490.3984   20706488.6484   18120944.30546
  14133669.76344                  23773883.0394                   23773881.2774
  24358741.19945                  18991006.99642  25089270.0164   25089268.3324
 -40498443.37947 -31538742.87745  21985284.8834                   21985280.9884
 11  8 13  3  9 30.0000000  0  9G10G25G12G29G26G05G15G21G02
 -19369112.37146 -15075757.31242  24529162.6884                   24529161.7734
  -9799955.58647  -7615771.12545  21721410.1564                   21721410.2274
 -22266778.31647 -17333502.07145  22189117.3204                   22189114.8364
  -1117949.92247   -854629.21245  21748342.3834                   21748340.4184
   8578016.05147   6701719.24444  22838797.7584                   22838796.9414
 -24282594.17648 -18904344.83046  20705032.0084   20705029.5984   17967984.01646
  14014479.98044                  23744775.1174                   23744773.4534
  24245287.56645                  18902601.61342  25067680.9534   25067678.0634
 -40510508.84047 -31548144.54845  21982989.3054                   21982985.2464
 11  8 13  3 10  0.0000000  0  9G10G25G12G29G26G05G15G21G02
 -19315931.72746 -15034317.81242  24539282.6884                   24539281.8164
  -9826014.04348  -7636076.40046  21716451.1564                   21716451.6564
 -22240955.66447 -17313380.51045  22194031.4924                   22194028.8164
  -1248027.06647   -955987.98945  21723589.6804                   21723587.6294
   8433818.76246   6589357.74744  22811357.9614                   22811356.4264
 -24289814.46148 -18909971.02246  20703657.3674   20703655.3484   17815046.10547
  13895307.66944                  23715671.6334                   23715670.5704
  24131865.39545                  18814220.77742  25046097.2504   25046093.8954
 -40522459.23847 -31557456.50945  21980714.6724                   21980710.9304
 11  8 13  3 10 30.0000000  0  9G10G25G12G29G26G05G15G21G02
 -19262691.48046 -14992831.97243  24549413.7114                   24549414.0744
  -9851533.28947  -7655961.53746  21711594.8674                   21711595.3524
 -22214831.67647 -17293024.14645  22199002.6484                   22199000.4964
  -1377893.66847  -1057182.68945  21698876.6884                   21698875.2464
   8289881.32847   6477198.75544  22783967.4224                   22783966.6644
 -24296592.93048 -18915252.93646  20702367.5314   20702365.6174   17662129.57046
  13776151.98344                  23686572.6884                   23686571.1414
  24018469.60245                  18725860.48442  25024519.0634   25024516.1724
 -40534298.31247 -31566681.74745  21978462.0474                   21978457.6174
 11  8 13  3 11  0.0000000  0  8G25G12G29G26G05G15G21G02
  -9876510.56647  -7675424.34846  21706841.9924                   21706842.4494
 -22188404.85947 -17272431.82345  22204031.5394                   22204028.9454
  -1507543.24247  -1158208.28345  21674205.4844                   21674203.8874
   8146211.82447   6365248.47744  22756628.3834                   22756627.5044
 -24302927.25848 -18920188.76646  20701161.9844   20701159.9454   17509241.77746
  13657018.68243                  23657478.7894                   23657477.1804
  23905104.68445                  18637524.26242  25002945.7584   25002943.9534
 -40546021.26647 -31575816.51345  21976231.0234                   21976227.7464
 11  8 13  3 11 30.0000000  0  8G25G12G29G26G05G15G21G02
  -9900948.35547  -7694466.77846  21702191.7194                   21702192.1954
 -22161679.12947 -17251606.55545  22209116.9064                   22209114.9774
  -1636974.24647  -1259063.58245  21649575.5164                   21649573.4804
   8002813.05147   6253509.17844  22729340.1564                   22729339.5984
 -24308820.46948 -18924780.85246  20700040.6564   20700038.8524   17356384.94947
  13537909.56844                  23628391.8594                   23628389.3094
  23791769.28555                  18549211.08252  24981377.0314   24981376.3834
 -40557628.63347 -31584861.20145  21974021.8674                   21974018.6564
 11  8 13  3 12  0.0000000  0  8G25G12G29G26G05G15G21G02
  -9924840.36748  -7713083.92746  21697645.1724                   21697645.6604
 -22134649.10947 -17230544.20645  22214260.4224                   22214258.6844
  -1766176.17247  -1359740.34646  21624989.0784                   21624987.6024
   7859696.99247   6141990.17544  22702105.8754                   22702104.8984
 -24314266.54747 -18929024.53246  20699004.2974   20699002.3284   17203569.92246
  13418832.96344                  23599312.1804                   23599310.2344
  23678470.89845                  18460926.70342  24959818.7664   24959815.3984
 -40569112.45747 -31593809.64345  21971837.3134                   21971833.3714
 11  8 13  3 12 30.0000000  0  8G25G12G29G26G05G15G21G02
  -9948179.24248  -7731270.06046  21693204.0554                   21693204.5394
 -22107308.47347 -17209239.81045  22219463.3834                   22219461.1564
  -1895137.64147  -1460229.75746  21600448.4224                   21600446.5354
   7716876.24247   6030701.28644  22674928.2894                   22674927.1644
 -24319258.60948 -18932914.43246  20698054.3594   20698052.0004   17050808.93446
  13299798.51944                  23570242.1094                   23570240.3834
  23565218.41045                  18372678.10942  24938267.4924   24938264.3874
 -40580463.52747 -31602654.64845  21969677.0004                   21969673.6954
 11  8 13  3 13  0.0000000  0  8G25G12G29G26G05G15G21G02
  -9970966.35248  -7749026.24746  21688867.4454                   21688868.2384
 -22079660.07447 -17187695.59645  22224724.7274                   22224722.5164
  -2023856.29747  -1560529.96945  21575953.7974                   21575951.7584
   7574355.27047   5919646.05144  22647807.7974                   22647806.4384
 -24323798.76648 -18936452.20146  20697190.5234   20697188.2194   16898105.31346
  13180808.71244                  23541183.3364                   23541182.6724
  23452011.44945                  18284465.02742  24916724.1024   24916722.9384
 -40591681.27347 -31611395.74945  21967542.1414                   21967538.6414
 11  8 13  3 13 30.0000000  0  8G25G12G29G26G05G15G21G02
  -9993207.48848  -7766356.99545  21684635.4454                   21684635.2704
 -22051710.97747 -17165917.07945  22230043.5234                   22230040.8714
  -2152333.39547  -1660641.94946  21551505.5784                   21551503.9224
   7432133.55947   5808823.98444  22620744.0004                   22620741.8954
 -24327893.04747 -18939642.54546  20696411.4064   20696409.4654   16745457.78946
  13061862.67743                  23512134.7274                   23512133.7704
  23338845.38745                  18196283.82442  24895189.9534   24895187.8594
 -40602769.22747 -31620035.70545  21965432.2274                   21965428.3404
 11  8 13  3 14  0.0000000  0  8G25G12G29G26G05G15G21G02
 -10014902.75448  -7783262.39046  21680506.6174                   21680507.1844
 -22023462.26247 -17143905.10945  22235419.0784                   22235416.5124
  -2280565.10247  -1760562.73145  21527104.2034                   21527101.6134
   7290216.76647   5698239.53944  22593737.8914                   22593736.6294
 -24331541.96147 -18942485.86046  20695717.1564   20695714.8554   16592871.23446
  12942964.08443                  23483099.1564                   23483097.2814
  23225721.73846                  18108135.64643  24873664.0004   24873661.8484
 -40613725.36347 -31628572.93345  21963347.3914                   21963343.9534
 11  8 13  3 14 30.0000000  0  8G25G12G29G26G05G15G21G02
 -10036058.57448  -7799747.44546  21676480.8524                   21676481.4534
 -21994921.51247 -17121665.56145  22240849.9614                   22240848.1094
  -2408553.69547  -1860294.04745  21502748.0784                   21502746.3244
   7148604.10546   5587892.06344  22566789.6254                   22566788.8714
 -24334752.18047 -18944987.31646  20695106.1174   20695104.1214   16440344.32046
  12824112.01144                  23454074.1564                   23454072.6604
  23112635.54746                  18020016.65543  24852143.7664   24852141.6954
 -40624554.23847 -31637011.01445  21961286.7504                   21961283.1024
 11  8 13  3 15  0.0000000  0  8G25G12G29G26G05G15G21G02
 -10056677.65247  -7815814.27045  21672557.3054                   21672557.8594
 -21966092.34847 -17099201.28845  22246336.1804                   22246333.8674
  -2536297.48447  -1959834.63546  21478439.4844                   21478437.5234
   7007298.23447   5477783.62944  22539899.7814                   22539899.0824
 -24337527.06247 -18947149.55746  20694577.8984   20694575.9534   16287878.89146
  12705307.84543                  23425060.5784                   23425059.2424
  22999585.14546                  17931925.66543  24830630.5394   24830628.7234
 -40635256.62547 -31645350.52245  21959250.2504                   21959246.3674
 11  8 13  3 15 30.0000000  0  8G25G12G29G26G05G15G21G02
  -8501340.94148  -6603863.56946  21968528.0004                   21968528.2854
 -20361558.67247 -15848915.30645  22551668.5634                   22551666.4104
  -1088370.02747   -831579.43446  21753970.7344                   21753969.1454
   8441728.02347   6595521.17544  22812862.7034                   22812861.6454
 -22764448.29347 -17721373.88146  20993924.9224   20993922.9734   17710903.53546
  13814158.23844                  23695853.2974                   23695852.1684
  24461994.32046                  19071465.44843  25108918.5944   25108915.8954
 -39070411.33647 -30425990.53145  22257030.4384                   22257026.5434
 11  8 13  3 16  0.0000000  0  8G25G12G29G26G05G15G21G02
  -8520893.28947  -6619099.16446  21964807.5394                   21964808.0004
 -20332163.23047 -15826009.72945  22557262.1024                   22557260.3364
  -1215618.42647   -930733.99246  21729756.2344                   21729754.6254
   8301046.14547   6485898.94744  22786092.0864                   22786090.7154
 -22766360.21148 -17722863.67746  20993561.0164   20993559.0824   17558569.28946
  13695456.31544                  23666865.3754   23666864.1994   24349013.40646
  18983428.48643                  25087418.3594                   25087416.9734
 -39080860.55947 -30434132.78145  22255042.2814                   22255038.0864
 11  8 13  3 16 30.0000000  0  8G25G12G29G26G05G15G21G02
  -8539917.89148  -6633923.53646  21961187.4144                   21961187.8984
 -20302491.74647 -15802889.09145  22562908.6644                   22562906.7934
  -1342618.37147  -1029694.97146  21705589.1804                   21705587.0634
   8160679.12947   6376522.12544  22759381.4144                   22759379.6914
 -22767846.73047 -17724022.00046  20993278.2114   20993275.9144   17406302.54346
  13576806.90944                  23637889.9224   23637889.4224   24236063.68445
  18895415.93643                  25065923.7504                   25065922.2034
 -39091185.78947 -30442178.42045  22253076.7814                   22253073.1414
 11  8 13  3 17  0.0000000  0  8G25G12G29G26G05G15G21G02
  -8558415.20348  -6648337.02145  21957667.1884                   21957667.8244
 -20272545.97747 -15779554.73745  22568608.1254                   22568605.2304
  -1469366.23847  -1128459.51046  21681469.5554                   21681468.1484
   8020632.18447   6267394.67244  22732731.2274                   22732729.7154
 -22768909.05547 -17724849.78546  20993076.2034   20993074.3954   17254107.42646
  13458213.34744                  23608928.5004   23608927.3874   24123146.10245
  18807428.36843                  25044436.3834                   25044434.8594
 -39101385.06247 -30450125.91545  22251136.0944                   22251132.5944
 11  8 13  3 17 30.0000000  0  8G25G12G29G26G05G15G21G02
  -8576385.44148  -6662339.80545  21954247.7424                   21954248.0004
 -20242326.86747 -15756007.36845  22574357.9304                   22574355.1764
  -1595857.72747  -1227024.27346  21657399.2734                   21657397.4304
   7880910.55547   6158520.69644  22706142.7114                   22706141.9774
 -22769547.05147 -17725346.92846  20992954.8914   20992952.3714   17101989.17647
  13339679.63844                  23579980.9384   23579979.9304   24010261.88346
  18719466.75943                  25022955.0164                   25022953.8404
 -39111456.37147 -30457973.64745  22249220.3054                   22249216.5084
 11  8 13  3 18  0.0000000  0  8G25G12G29G26G05G15G21G02
  -8593834.71947  -6675936.64546  21950926.8444                   21950927.3204
 -20211841.65247 -15732252.66745  22580158.8054                   22580156.8094
  -1722094.72347  -1325390.74446  21633376.6414                   21633375.0044
   7741514.29347   6049900.23344  22679616.9924                   22679614.8794
 -22769767.35947 -17725518.59946  20992911.7814   20992910.8524   16949946.09047
  13221204.51444                  23551048.4454   23551046.8484   23897406.67246
  18631527.87543                  25001479.8054                   25001478.1844
 -39121403.91047 -30465724.96745  22247326.8444                   22247323.1254
 11  8 13  3 18 30.0000000  0  8G25G12G29G26G05G15G21G02
  -8610764.06247  -6689128.34645  21947705.8594                   21947705.9024
 -20181092.40647 -15708292.19345  22586010.3444                   22586008.1374
  -1848073.79747  -1423556.22945  21609404.0394                   21609401.7464
   7602447.83247   5941536.71844  22653153.3364                   22653151.6914
 -22769571.53548 -17725366.01146  20992949.7504   20992947.5164   16797982.65247
  13102791.45144                  23522130.8834   23522128.6684   23784580.84846
  18543611.77143                  24980009.5314                   24980008.2384
 -39131226.34847 -30473378.82445  22245457.3834                   22245453.3014
 11  8 13  3 19  0.0000000  0  8G25G12G29G26G05G15G21G02
  -8627175.40648  -6701916.40346  21944582.9064                   21944582.8754
 -20150081.93447 -15684128.18645  22591911.4534                   22591909.0594
  -1973792.73847  -1521519.01046  21585480.5004                   21585478.6994
   7463715.02347   5833433.21944  22626753.5864                   22626752.0314
 -22768961.61748 -17724890.74246  20993066.2114   20993063.8914   16646102.04747
  12984442.95844                  23493228.5314   23493226.1564   23671783.93446
  18455718.17843                  24958545.6644                   24958543.1684
 -39140923.19547 -30480934.78245  22243612.1414                   22243608.5634
 11  8 13  3 19 30.0000000  0  8G25G12G29G26G05G15G21G02
  -8643073.07848  -6714304.20746  21941557.6254                   21941558.0474
 -20118815.66047 -15659764.85045  22597861.3204                   22597859.3914
  -2099251.28147  -1619278.88645  21561606.6724                   21561604.4104
   7325317.34847   5725590.89444  22600417.4384                   22600415.9384
 -22767942.46148 -17724096.58746  20993260.3524   20993258.1604   16494304.91847
  12866159.47144                  23464342.2344   23464339.9144   23559013.38346
  18367845.12243                  24937085.0704                   24937083.0394
 -39150496.25447 -30488394.31345  22241790.6414                   22241786.1134
 11  8 13  3 20  0.0000000  0  8G25G12G29G26G05G15G21G02
  -8658457.68048  -6726292.21945  21938629.6484                   21938630.7344
 -20087295.17647 -15635203.44445  22603859.5864                   22603856.8554
  -2224445.40247  -1716832.71646  21537782.6414                   21537780.6134
   7187259.99647   5618013.71744  22574145.3594                   22574144.3014
 -22766514.71148 -17722984.05546  20993531.7424   20993529.4574   16342595.62147
  12747944.43944                  23435472.6414   23435471.2624   23446270.01646
  18279993.17843                  24915630.6334                   24915628.3634
 -39159944.59447 -30495756.64245  22239992.7274                   22239988.2854
 11  8 13  3 20 30.0000000  0  8G25G12G29G26G05G15G21G02
  -8673329.86348  -6737880.93045  21935799.8204                   21935800.1254
 -20055521.97747 -15610445.09745  22609905.5864                   22609903.1994
  -2349371.54347  -1814177.74446  21514009.9614                   21514008.0904
   7049548.10947   5510705.77544  22547940.1024                   22547938.4144
 -22764679.43448 -17721553.96646  20993881.0004   20993878.9384   16190978.80946
  12629801.49043                  23406620.9144   23406619.3054   23333555.03946
  18192163.48843                  24894181.5394                   24894179.2934
 -39169265.75047 -30503019.90345  22238218.7344                   22238215.3554
 11  8 13  3 21  0.0000000  0  8G25G12G29G26G05G15G21G02
  -8687694.86348  -6749074.44545  21933066.0944                   21933066.4344
 -20023502.26647 -15585494.67045  22615998.5864                   22615996.7114
  -2474030.40647  -1911314.48746  21490288.5164                   21490286.4844
   6912182.15247   5403667.38544  22521799.8754                   22521798.8984
 -22762441.86747 -17719810.41646  20994306.8284   20994304.4534   16039454.39146
  12511730.51244                  23377786.8754   23377786.0164   23220864.52746
  18104352.80143                  24872737.7344                   24872735.0314
 -39178462.85947 -30510186.46845  22236468.4384                   22236464.9184
 11  8 13  3 21 30.0000000  0  8G25G12G29G26G05G15G21G02
  -8701555.18448  -6759874.69945  21930428.5554                   21930428.9884
 -19991239.23047 -15560354.64445  22622138.2034                   22622135.7464
  -2598420.17647  -2008241.55246  21466617.5314                   21466615.7894
   6775165.51247   5296901.17844  22495726.3914                   22495725.4884
 -22759804.69947 -17717755.48446  20994807.9844   20994806.4304   15888025.05947
  12393733.63144                  23348971.6414   23348969.6804   23108197.84046
  18016560.61143                  24851298.0554                   24851295.8134
 -39187535.65647 -30517256.18545  22234742.1094                   22234738.8874
 11  8 13  3 22  0.0000000  0  8G25G12G29G26G05G15G21G02
  -8714913.93748  -6770284.11145  21927886.2734                   21927886.8324
 -19958736.92647 -15535028.18045  22628323.3754                   22628321.5124
  -2722539.34047  -2104957.76746  21442997.9924                   21442996.4614
   6638501.08247   5190409.42545  22469719.8204                   22469719.0434
 -22756771.43447 -17715391.89646  20995385.8284   20995383.5824   15736693.00047
  12275812.57344                  23320173.6254   23320172.2424   22995553.49646
  17928785.90143                  24829862.2034                   24829860.2974
 -39196485.17647 -30524229.84445  22233038.8134                   22233035.2234
 11  8 13  3 22 30.0000000  0  8G25G12G29G26G05G15G21G02
  -8727771.80948  -6780303.23745  21925439.7504                   21925439.8484
 -19925997.07047 -15509516.59745  22634553.0864                   22634550.8164
  -2846383.87147  -2201459.97046  21419431.5234                   21419430.0904
   6502193.92647   5084196.09544  22443781.7344                   22443780.5514
 -22753342.97347 -17712720.38346  20996038.4614   20996036.0554   15585462.64147
  12157970.74344                  23291395.6884   23291394.1174   22882932.52746
  17841029.45743                  24808430.5944                   24808428.7234
 -39205309.66047 -30531106.05445  22231359.7274                   22231356.6884
 11  8 13  3 23  0.0000000  0  8G25G12G29G26G05G15G21G02
  -8740130.54348  -6789933.42746  21923087.9694                   21923088.9694
 -19893022.10547 -15483821.84345  22640828.1484                   22640826.3364
  -2969951.02747  -2297746.04946  21395917.6484                   21395915.8874
   6366248.20747   4978264.39545  22417912.0864                   22417910.6684
 -22749521.11747 -17709742.30246  20996765.5084   20996763.6804   15434337.67647
  12040211.04544                  23262637.2114   23262635.7464   22770334.95746
  17753291.12243                  24787004.3524                   24787002.3524
 -39214008.42247 -30537884.32245  22229704.5864                   22229700.8914
 11  8 13  3 23 30.0000000  0  8G25G12G29G26G05G15G21G02
  -8751989.39147  -6799174.09445  21920831.4384                   21920831.7274
 -19859812.26247 -15457944.03245  22647147.5704                   22647146.0234
  -3093235.69147  -2393812.00246  21372457.2274                   21372455.5784
   6230670.40647   4872619.35844  22392112.6094                   22392110.6884
 -22745305.27347 -17706457.24346  20997567.7814   20997566.1604   15283323.89846
  11922537.98644                  23233900.6564   23233899.2774   22657763.33246
  17665573.09643                  24765583.1484                   24765579.9534
 -39222578.13347 -30544562.02445  22228073.6804                   22228070.3914
 11  8 13  3 24  0.0000000  0  8G25G12G29G26G05G15G21G02
  -8763351.05148  -6808027.34245  21918669.6644                   21918669.8324
 -19826370.80947 -15431885.77045  22653511.5704                   22653509.3634
  -3216235.85248  -2489656.26346  21349050.8284                   21349049.2734
   6095463.98047   4767263.69844  22366383.6414                   22366382.4694
 -22740698.22347 -17702867.33946  20998444.4844   20998442.0784   15132423.77747
  11804953.55144                  23205185.2034   23205184.1294   22545216.60946
  17577874.44543                  24744165.1564                   24744163.6024
 -39231018.99647 -30551139.34145  22226467.3754                   22226463.5704
 11  8 13  3 24 30.0000000  0  8G25G12G29G26G05G15G21G02
  -8774221.77047  -6816498.03945  21916600.7274                   21916601.3324
 -19792704.99647 -15405652.66945  22659917.9384                   22659915.9614
  -3338953.17647  -2585280.14346  21325698.9454                   21325696.6564
   5960628.30147   4662196.97345  22340725.1884                   22340723.9414
 -22735706.81647 -17698977.92646  20999394.1564   20999392.0124   14981636.64847
  11687457.10344                  23176491.4534   23176489.8794   22432690.16446
  17490191.62343                  24722752.9774                   24722750.0204
 -39239334.73047 -30557619.14245  22224885.0944                   22224881.1524
 11  8 13  3 25  0.0000000  0  8G25G12G29G26G05G15G21G02
  -8784603.77047  -6824587.88745  21914624.5554                   21914625.3484
 -19758817.65647 -15379246.93945  22666365.9774                   22666364.6524
  -3461385.18047  -2680681.67346  21302400.9694                   21302398.9804
   5826167.34447   4557422.22544  22315138.5634                   22315136.3054
 -22730332.61747 -17694790.22946  21000416.7584   21000414.7424   14830965.74247
  11570051.22144                  23147819.5004   23147818.3634   22320183.79346
  17402524.44142                  24701342.5554                   24701340.3874
 -39247524.68447 -30564000.91645  22223327.0164                   22223322.9654
 11  8 13  3 25 30.0000000  0  8G25G12G29G26G05G15G21G02
  -8794496.48448  -6832296.51145  21912742.5234                   21912743.5514
 -19724709.23447 -15352668.93445  22672857.0394                   22672855.2814
  -3583526.43447  -2775856.66446  21279158.0704                   21279155.8984
   5692087.52747   4452944.48544  22289623.5394                   22289622.1724
 -22724575.60547 -17690304.25546  21001512.9064   21001509.9414   14680416.62147
  11452740.25444                  23119171.0004   23119170.1054   22207699.72746
  17314874.66442                  24679937.1254                   24679935.5164
 -39255585.96947 -30570282.44745  22221792.5864                   22221788.8954
 11  8 13  3 26  0.0000000  0  8G25G12G29G26G05G15G21G02
  -8803904.23048  -6839627.22746  21910952.0634                   21910952.9494
 -19690384.82447 -15325922.65545  22679388.5234                   22679386.7034
  -3705376.63347  -2870804.84646  21255970.3834                   21255968.4734
   5558390.31647   4348764.85144  22264181.6024                   22264179.8204
 -22718440.52047 -17685523.66746  21002679.9774   21002677.9264   14529990.39146
  11335525.04544                  23090545.3134   23090544.2704   22095235.52046
  17227240.38742                  24658535.9694                   24658533.7544
 -39263520.29747 -30576465.05545  22220282.8444                   22220278.4024
 11  8 13  3 26 30.0000000  0  8G25G12G29G26G05G15G21G02
  -8812830.59848  -6846582.84545  21909253.8364                   21909254.0634
 -19655848.27747 -15299011.05745  22685960.9844                   22685958.8984
  -3826934.94547  -2965525.58846  21232838.8134                   21232836.8244
   5425078.24247   4244885.32345  22238813.0234                   22238812.1334
 -22711930.58247 -17680450.98846  21003918.4924   21003916.6884   14379689.38747
  11218407.43244                  23061944.5164   23061942.8444   21982789.44146
  17139620.14842                  24637138.9534                   24637136.1294
 -39271328.60547 -30582549.43445  22218797.1804                   22218793.3134
 11  8 13  3 27  0.0000000  0  8G25G12G29G26G05G15G21G02
  -8821275.27347  -6853163.11545  21907646.4924                   21907647.3014
 -19621100.29747 -15271934.71645  22692573.4304                   22692570.7734
  -3948196.31647  -3060014.93746  21209763.3674                   21209761.5314
   5292157.58647   4141310.80445  22213519.0234                   22213518.0474
 -22705045.60547 -17675086.06746  21005228.7114   21005226.7274   14229519.09047
  11101391.63844                  23033367.6254   23033366.1024   21870363.75846
  17052015.80942                  24615744.4454                   24615742.0204
 -39279008.04747 -30588533.41145  22217335.8204                   22217332.2074
 11  8 13  3 27 30.0000000  0  8G25G12G29G26G05G15G21G02
  -8829244.88348  -6859373.19545  21906130.1484                   21906130.4884
 -19586148.43447 -15244699.49745  22699224.0554                   22699222.1454
  -4069162.62548  -3154274.37646  21186744.7894                   21186742.3444
   5159627.71947   4038040.80244  22188299.7894                   22188298.6134
 -22697792.32448 -17669434.14546  21006609.2344   21006607.0394   14079477.92647
  10984476.46244                  23004816.1024   23004814.2504   21757953.66846
  16964423.64542                  24594353.2114                   24594351.5164
 -39286562.51247 -30594420.00645  22215898.2734                   22215894.1054
 11  8 13  3 28  0.0000000  0  8G25G12G29G26G05G15G21G02
  -8836740.05548  -6865213.59045  21904704.0634                   21904704.3014
 -19550993.60947 -15217306.13445  22705914.4144                   22705911.4304
  -4189829.69948  -3248300.64946  21163782.5704                   21163780.5514
   5027493.88747   3935079.41944  22163155.2034                   22163154.3914
 -22690171.28947 -17663495.65446  21008059.3834   21008057.4344   13929571.18847
  10867666.07944                  22976290.0004   22976287.8874   21645560.94946
  16876845.02042                  24572965.7584                   24572962.6844
 -39293989.84847 -30600207.55545  22214484.8594                   22214480.8794
 11  8 13  3 28 30.0000000  0  8G25G12G29G26G05G15G21G02
  -8843762.87948  -6870685.92945  21903367.5394                   21903367.8094
 -19515638.87147 -15189756.98244  22712642.0864                   22712639.6054
  -4310195.08247  -3342091.82746  21140877.2734                   21140875.8364
   4895760.02347   3832429.69645  22138087.5474                   22138086.1564
 -22682184.57048 -17657272.21946  21009579.2034   21009576.8634   13779802.20747
  10750963.00444                  22947789.1024   22947788.4774   21533184.98445
  16789279.44542                  24551580.5004                   24551578.3284
 -39301289.28147 -30605895.42145  22213095.5474                   22213091.5824
 11  8 13  3 29  0.0000000  0  8G25G12G29G26G05G15G21G02
  -8850315.60947  -6875791.94945  21902119.9614                   21902120.8874
 -19480086.99247 -15162054.23845  22719407.3674                   22719405.3094
  -4430255.85947  -3435645.62946  21118030.3594                   21118028.4734
   4764430.05147   3730094.66944  22113096.1564                   22113094.8204
 -22673834.67647 -17650765.79746  21011168.3524   21011165.7194   13630174.00047
  10634369.62244                  22919316.3674   22919314.6134   21420825.09045
  16701726.37142                  24530200.1564                   24530196.4264
 -39308460.79347 -30611483.60945  22211731.0314                   22211726.8834
 11  8 13  3 29 30.0000000  0  8G25G12G29G26G05G15G21G02
  -8856401.43448  -6880534.16145  21900962.0704                   21900963.0084
 -19444341.57847 -15134200.67445  22726209.5784                   22726206.7894
  -4550010.42647  -3528960.86146  21095241.6804                   21095239.9064
   4633506.62947   3628076.44645  22088182.1024                   22088180.9774
 -22665125.16448 -17643979.15346  21012825.0704   21012823.2424   13480689.14847
  10517887.97544                  22890870.1564   22890868.1724   21308480.27346
  16614185.04343                  24508821.6334                   24508818.1644
 -39315504.91447 -30616972.57645  22210390.4454                   22210386.5744
 11  8 13  3 30  0.0000000  0  8G25G12G29G26G05G15G21G02
  -7286603.60248  -5657315.07345  22199684.8834                   22199685.1914
 -17832988.32447 -13878600.71744  23032839.5084                   23032836.6724
  -3094033.57847  -2394433.40746  21372305.2114                   21372303.0474
   6078416.62547   4753980.37944  22363139.5704                   22363137.9064
 -21080639.07447 -16409314.66546  21314343.3054   21314340.7464   14906774.69147
  11629123.49344                  23162245.1334   23162243.5274   22771572.92646
  17754257.30643                  24787238.5784                   24787235.9494
 -37747001.51647 -29394762.12645  22508867.0864                   22508862.8404
 11  8 13  3 30 30.0000000  0  8G25G12G29G26G05G15G21G02
  -7291761.27747  -5661334.05345  22198703.6254                   22198704.0634
 -17796863.86347 -13850451.80444  23039714.1954                   23039711.7074
  -3213167.43748  -2487264.95546  21349634.5634                   21349632.5234
   5948318.92647   4652605.56644  22338381.9534                   22338380.7154
 -21071214.55548 -16401970.86746  21316136.5394   21316134.5554   14757587.57447
  11512873.83344                  23133855.6484   23133854.3014   22659258.87946
  17666739.91343                  24765866.5474                   24765864.0044
 -37753787.25047 -29400049.71745  22507575.7814                   22507571.5394
 11  8 13  3 31  0.0000000  0  8G25G12G29G26G05G15G21G02
  -7296462.66047  -5664997.47945  22197808.8204                   22197808.9574
 -17760558.21947 -13822161.68944  23046622.8914                   23046620.7934
  -3331991.33647  -2579854.97146  21327023.0554                   21327021.2034
   5818635.27747   4551553.39145  22313704.7504                   22313703.6024
 -21061440.55947 -16394354.75946  21317996.4614   21317994.1454   14608549.62147
  11396740.39444                  23105494.8984   23105493.6484   22546955.50446
  17579230.88342                  24744495.3754                   24744492.1134
 -37760447.59447 -29405239.60945  22506308.1564                   22506304.6644
 11  8 13  3 31 30.0000000  0  9G18G25G12G29G26G05G15G21G02
  28157400.96916                  24796126.727
  -7300707.92648  -5668305.46745  22197001.0944                   22197001.7734
 -17724072.55947 -13793731.32344  23053565.8984                   23053563.2464
  -3450500.50047  -2672199.75846  21304471.6564                   21304469.5514
   5689371.60547   4450828.47945  22289106.3914                   22289105.2074
 -21051317.05147 -16386466.30446  21319923.1954   21319920.4694   14459666.39547
  11280727.47444                  23077163.3524   23077161.9654   22434664.73446
  17491731.63343                  24723126.9144                   24723124.3364
 -37766979.70747 -29410329.56045  22505065.2814                   22505061.1884
 11  8 13  3 32  0.0000000  0  9G18G25G12G29G26G05G15G21G02
  28013014.215 5                  24768650.555
  -7304510.22747  -5671268.30345  22196277.3284                   22196278.2854
 -17687420.34047 -13765171.15745  23060540.3594                   23060538.3674
  -3568703.31247  -2764305.81246  21281978.6334                   21281976.2934
   5560521.00847   4350425.41645  22264587.2194                   22264585.1954
 -21040857.29348 -16378315.83146  21321913.3054   21321911.3484   14310930.48447
  11164829.37644                  23048859.6414   23048858.3554   22322375.52046
  17404233.60743                  24701759.0554                   24701756.9964
 -37773394.10547 -29415327.77745  22503844.6644                   22503840.8484
 11  8 13  3 32 30.0000000  0  9G18G25G12G29G26G05G15G21G02
  27868801.37545  21741790.09653  24741206.7034                   24741204.3954
  -7307875.49247  -5673890.60845  22195637.3364                   22195637.7384
 -17650607.90247 -13736486.14844  23067545.8054                   23067543.0474
  -3686600.88347  -2856174.03446  21259543.1644                   21259541.0634
   5432083.17647   4250344.01145  22240146.1024                   22240144.4654
 -21030067.03148 -16369907.82846  21323966.7344   21323964.3984   14162341.67247
  11049045.89744                  23020584.1724   23020582.7234   22210084.02346
  17316733.83243                  24680390.5784                   24680388.8834
 -37779693.72347 -29420236.58645  22502645.4774                   22502642.1884
 11  8 13  3 33  0.0000000  0  9G18G25G12G29G26G05G15G21G02
  27724762.79745  21629552.30942  24713797.1884                   24713794.3954
  -7310807.17247  -5676175.03345  22195079.5554                   22195079.9694
 -17613639.60547 -13707679.70244  23074579.8284                   23074578.2894
  -3804191.69547  -2947803.22646  21237166.5084                   21237163.9384
   5304060.82847   4150586.35145  22215784.1024                   22215782.4774
 -21018949.68047 -16361244.94846  21326082.1644   21326080.0554   14013901.84047
  10933378.50644                  22992337.1484   22992335.1214   22097788.95746
  17229231.29643                  24659021.4454                   24659019.0944
 -37785879.08247 -29425056.35345  22501469.0944                   22501465.2814
 11  8 13  3 33 30.0000000  0  9G18G25G12G29G26G05G15G21G02
  27580902.89146  21517453.85242  24686421.7194                   24686418.9064
  -7313304.72347  -5678121.17745  22194603.8594                   22194604.8754
 -17576515.14847 -13678751.55544  23081644.8754                   23081642.2194
  -3921470.24247  -3039189.08846  21214849.0004                   21214846.6954
   5176460.87147   4051157.82545  22191502.5004                   22191501.2464
 -21007504.50847 -16352326.64146  21328260.2194   21328257.9494   13865617.41447
  10817832.20445                  22964119.9614   22964118.1524   21985492.78546
  17141727.84443                  24637652.1804                   24637650.0164
 -37791947.11347 -29429784.68845  22500314.0784                   22500309.9694
 11  8 13  3 34  0.0000000  0  9G18G25G12G29G26G05G15G21G02
  27437220.84046  21405493.89542  24659079.4924                   24659076.2154
  -7315372.46947  -5679732.42345  22194210.8204                   22194211.1294
 -17539239.09047 -13649705.28344  23088738.2894                   23088736.1764
  -4038435.97747  -3130331.20846  21192591.4774                   21192589.2814
   5049284.85247   3952059.65445  22167301.6334                   22167300.3594
 -20995735.55148 -16343156.02746  21330499.4924   21330497.6214   13717489.93847
  10702408.22444                  22935931.9924   22935930.3054   21873193.22346
  17054221.72143                  24616282.6024                   24616279.5944
 -37797898.94547 -29434422.47345  22499181.4774                   22499177.6484
 11  8 13  3 34 30.0000000  0  9G18G25G12G29G26G05G15G21G02
  27293721.04745  21293675.96942  24631771.9064                   24631768.8094
  -7317010.31247  -5681008.65345  22193898.7034                   22193899.1024
 -17501812.11347 -13620541.42245  23095860.7894                   23095858.1094
  -4155083.89547  -3221225.69046  21170393.9924                   21170391.5594
   4922538.99647   3853296.66645  22143183.2664                   22143181.9734
 -20983642.66848 -16333733.00246  21332800.4924   21332798.6954   13569525.07447
  10587111.00245                  22907774.4534   22907773.4304   21760892.54746
  16966714.81043                  24594911.9844                   24594909.8244
 -37803731.54747 -29438967.36745  22498071.6334                   22498068.2034
 11  8 13  3 35  0.0000000  0  9G18G25G12G29G26G05G15G21G02
  27150407.77045  21182003.36342  24604501.0394                   24604497.1334
  -7318217.69947  -5681949.47945  22193669.2194                   22193669.6724
 -17464234.36347 -13591260.07645  23103010.9304                   23103009.0704
  -4271408.28147  -3311868.05146  21148258.3204                   21148255.9574
   4796229.91447   3754874.00245  22119147.1024                   22119145.9884
 -20971225.53148 -16324057.30846  21335163.6254   21335161.6994   13421728.88347
  10471945.14144                  22879650.4924   22879648.4224   21648593.37146
  16879209.04843                  24573542.5234                   24573539.6564
 -37809441.67647 -29443416.83145  22496984.7194                   22496981.5554
 11  8 13  3 35 30.0000000  0  9G18G25G12G29G26G05G15G21G02
  27007280.56346  21070475.74642  24577264.2664                   24577261.0354
  -7318999.11347  -5682558.37145  22193520.4064                   22193520.7854
 -17426510.55947 -13561864.91744  23110189.8594                   23110187.5634
  -4387408.95747  -3402258.16446  21126184.1174                   21126181.9654
   4670359.24247   3656792.97245  22095194.7424                   22095194.0164
 -20958488.25847 -16314132.16646  21337587.4384   21337585.1604   13274102.64547
  10356911.75445                  22851557.6954   22851556.2464   21536293.71146
  16791702.91543                  24552172.5234                   24552169.9224
 -37815030.53147 -29447771.78645  22495921.7274                   22495917.2934
 11  8 13  3 36  0.0000000  0  9G18G25G12G29G26G05G15G21G02
  26864342.02045  20959095.15643  24550064.0004                   24550060.5474
  -7319355.88747  -5682836.36245  22193452.3594                   22193452.7544
 -17388642.55947 -13532357.39644  23117396.2814                   23117393.3874
  -4503082.06247  -3492393.04046  21104172.2974                   21104169.9304
   4544931.89847   3559057.37945  22071326.5784                   22071325.0784
 -20945431.75047 -16303958.24846  21340072.2664   21340069.9344   13126651.02047
  10242014.40445                  22823498.6884   22823496.9964   21423994.37146
  16704196.99143                  24530802.7814                   24530799.8754
 -37820496.53147 -29452031.00245  22494881.4534                   22494877.3014
 11  8 13  3 36 30.0000000  0  9G18G25G12G29G26G05G15G21G02
  26721593.51646  20847862.59643  24522899.0944                   24522897.1334
  -7319290.30547  -5682785.25845  22193464.7274                   22193465.2584
 -17350632.86347 -13502739.48444  23124628.8984                   23124626.3054
  -4618424.82447  -3582270.50646  21082222.9224                   21082220.7814
   4419951.47747   3461670.04445  22047542.7664                   22047542.1254
 -20932058.31248 -16293537.39646  21342616.9844   21342615.2704   12979377.25447
  10127255.64144                  22795473.3444   22795471.6604   21311695.10246
  16616691.15043                  24509432.8134                   24509430.2704
 -37825838.98047 -29456193.97045  22493864.4614                   22493861.2894
 11  8 13  3 37  0.0000000  0  9G18G25G12G29G26G05G15G21G02
  26579037.71146  20736780.19843  24495771.9844                   24495770.6214
  -7318803.29347  -5682405.77645  22193557.4304                   22193558.0744
 -17312482.96947 -13473012.32044  23131888.6334                   23131886.3484
  -4733433.43047  -3671887.59046  21060337.4924                   21060335.6524
   4295423.24647   3364635.08345  22023846.9774                   22023845.3364
 -20918368.52748 -16282870.02346  21345221.9614   21345219.9804   12832286.30147
  10012639.35845                  22767482.6884   22767481.3094   21199397.21546
  16529186.36043                  24488062.8594                   24488060.1564
 -37831055.91447 -29460259.12744  22492871.8204                   22492868.1844
 11  8 13  3 37 30.0000000  0  9G18G25G12G29G26G05G15G21G02
  26436672.19546  20625846.16343  24468680.8594                   24468678.2974
  -7317901.91447  -5681703.39545  22193729.2814                   22193729.5904
 -17274199.95347 -13443181.37544  23139173.5704                   23139171.1174
  -4848109.28147  -3761245.37446  21038515.4144                   21038513.4884
   4171346.18847   3267951.68145  22000236.6094                   22000234.4344
 -20904369.22748 -16271961.48446  21347886.2424   21347883.9924   12685377.06647
   9898164.66944                  22739527.1884   22739525.1024   21087096.09846
  16441679.06543                  24466692.3834                   24466689.9384
 -37836151.24247 -29464229.52744  22491902.1094                   22491898.1484
 11  8 13  3 38  0.0000000  0  9G18G25G12G29G26G05G15G21G02
  26294501.53546  20515063.86742  24441626.4614                   24441624.4494
  -7316585.24647  -5680677.43845  22193979.7664                   22193980.1024
 -17235783.23447 -13413246.32244  23146484.1094                   23146481.3244
  -4962447.05147  -3850339.71446  21016757.3914                   21016755.8244
   4047727.30947   3171625.28945  21976712.0084                   21976710.4774
 -20890059.50048 -16260811.03046  21350609.1564   21350606.9184   12538655.93447
   9783836.57044                  22711606.6174   22711604.9694   20974794.87146
  16354171.65443                  24445322.7274                   24445319.8754
 -37841120.98847 -29468102.06444  22490956.8914                   22490952.7424
 11  8 13  3 38 30.0000000  0  9G18G25G12G29G26G05G15G21G02
  26152525.91046  20404433.62943  24414609.6884                   24414606.7034
  -7314856.96147  -5679330.72445  22194308.3914                   22194308.5044
 -17197237.19947 -13383210.45944  23153819.5394                   23153817.3164
  -5076444.85547  -3939169.14846  20995064.5314                   20995062.9964
   3924569.13747   3075657.89844  21953275.7194                   21953274.0124
 -20875443.01248 -16249421.56046  21353390.4454   21353388.1374   12392125.22747
   9669656.78045                  22683722.9534   22683721.4304   20862492.11346
  16266663.14943                  24423951.9614                   24423949.0744
 -37845965.80547 -29471877.24444  22490034.6334                   22490030.6294
 11  8 13  3 39  0.0000000  0  9G18G25G12G29G26G05G15G21G02
  26010746.94146  20293956.50243  24387629.8284                   24387627.5594
  -7312718.92247  -5677664.74445  22194715.7734                   22194716.2114
 -17158563.86347 -13353075.43044  23161178.6254                   23161176.4384
  -5190100.33647  -4027731.83646  20973436.3834                   20973434.9414
   3801875.68047   2980052.61845  21929927.6414                   21929926.1994
 -20860520.68047 -16237793.74846  21356230.2814   21356228.0044   12245789.07047
   9555628.61745                  22655876.4224   22655874.5274   20750188.52346
  16179153.96543                  24402581.0554                   24402578.2194
 -37850684.41447 -29475554.11445  22489136.8984                   22489133.0124
 11  8 13  3 39 30.0000000  0  9G18G25G12G29G26G05G15G21G02
  25869167.11346  20183634.66243  24360687.9844                   24360685.6844
  -7310172.94547  -5675680.88645  22195199.9144                   22195200.5124
 -17119765.51647 -13322842.94344  23168562.0394                   23168559.9534
  -5303409.73447  -4116024.84846  20951874.6884                   20951872.6254
   3679651.42647   2884812.96245  21906669.1644                   21906668.1484
 -20845294.40648 -16225929.12946  21359127.6884   21359125.3954   12099651.25047
   9441755.01945                  22628067.1094   22628065.1454   20637884.25845
  16091644.22342                  24381210.0164                   24381206.7234
 -37855275.53547 -29479131.61945  22488263.1644                   22488259.4414
 11  8 13  3 40  0.0000000  0  9G18G25G12G29G26G05G15G21G02
  25727788.10246  20073469.20742  24333784.5084                   24333781.8634
  -7307221.61347  -5673381.16545  22195761.5474                   22195761.8404
 -17080845.04747 -13292515.33144  23175967.6334                   23175965.5704
  -5416370.70747  -4204046.36546  20930378.6094                   20930376.7464
   3557899.99647   2789941.72545  21883500.6484                   21883499.7384
 -20829766.16048 -16213829.19046  21362082.6024   21362080.1214   11953715.05546
   9328038.52945                  22600296.5394   22600294.5864   20525579.21146
  16004133.87243                  24359838.3594                   24359835.7344
 -37859738.77747 -29482609.46645  22487413.8284                   22487409.9454
 11  8 13  3 40 30.0000000  0  9G18G25G12G29G26G05G15G21G02
  25586609.18046  19963459.75442  24306918.4454                   24306916.0394
  -7303869.13747  -5670768.87045  22196399.1094                   22196400.3984
 -17041806.50847 -13262095.73644  23183397.4534                   23183394.9694
  -5528982.19947  -4291795.54346  20908949.5234                   20908947.7934
   3436623.10547   2695440.28145  21860422.1644                   21860421.6024
 -20813940.30148 -16201497.34046  21365094.4694   21365091.6174   11807982.20747
   9214480.48545                  22572564.2894   22572562.1954   20413271.41846
  15916621.30143                  24338467.5314                   24338463.8754
 -37864075.31647 -29485988.61345  22486588.9774                   22486585.0234
 11  8 13  3 41  0.0000000  0  9G18G25G12G29G26G05G15G21G02
  25445634.91446  19853609.71843  24280091.9924                   24280088.6024
  -7300115.12547  -5667843.67645  22197113.8284                   22197114.4224
 -17002650.14847 -13231584.30044  23190848.3204                   23190845.8444
  -5641238.44547  -4379267.91646  20887587.8054                   20887585.5824
   3315827.18047   2601313.62245  21837435.5394                   21837434.2464
 -20797816.16048 -16188933.07446  21368162.3204   21368160.0474   11662459.14847
   9101085.90145                  22544871.7504   22544870.4534   20300963.74246
  15829108.93143                  24317095.4064                   24317092.8484
 -37868281.45347 -29489266.11344  22485788.0784                   22485784.1564
